GFSNGP_2pvu_pres_000.txt.gz
Presure
150 156 153 114 127 137 175 166 172 93 167 166 162 157 166 176 174 118 154 137 167 178 176 171 88 160 181 182 178 167 193 193 174 168 201 206 206 197 205 203 202 214 278 219
86 180 163 181 133 173 144 148 172 163 157 168 166 167 164 166 135 177 178 77 150 167 176 181 181 149 183 185 187 156 189 174 177 196 154 152 153 181 219 190 238 216 207 208
179 170 172 170 183 183 165 171 167 169 165 167 151 170 169 179 180 176 98 172 179 183 186 188 182 147 193 190 182 196 200 170 157 202 175 219 202 205 201 183 185 169 214 206
160 173 169 166 180 172 183 163 168 162 146 178 174 177 177 166 176 173 180 182 176 136 125 182 193 187 182 173 179 183 191 186 194 221 160 209 219 173 228 226 190 184 185 194
142 182 178 174 174 177 128 171 180 172 157 172 170 176 152 158 169 168 165 176 117 192 186 175 135 127 209 184 175 151 158 198 169 213 228 217 193 170 198 199 198 199 185 200
138 135 186 183 179 160 180 173 171 170 179 187 181 188 185 182 181 179 187 105 165 168 120 162 171 188 137 166 138 196 203 140 209 197 167 173 181 187 204 162 277 210 248 232
164 151 187 169 174 181 169 188 187 157 159 171 175 179 191 146 163 161 203 100 116 119 146 197 141 165 196 181 184 181 205 171 193 187 228 175 206 241 259 236 275 299 311 237
181 168 177 171 175 176 171 190 189 190 188 183 155 203 199 158 198 136 133 129 159 177 192 160 161 181 213 200 257 264 216 177 174 212 265 257 302 350 229 201 305 248 384 344
162 175 200 135 236 109 188 237 168 168 187 206 183 198 153 133 143 135 148 135 135 135 168 223 193 183 220 228 343 239 263 275 311 253 221 332 284 296 341 366 380 376 380 392
194 181 131 134 134 114 144 99 176 206 184 152 163 139 135 147 200 103 132 165 165 180 217 284 241 219 218 293 283 313 335 360 308 342 335 332 321 303 305 318 385 387 396 322
116 164 183 109 101 172 169 156 100 124 153 155 145 152 217 205 163 137 196 200 221 296 314 291 356 323 341 331 324 369 359 355 371 374 344 314 315 319 290 338 385 415 370 412
158 155 149 159 161 161 144 196 181 124 150 159 144 209 198 185 237 160 254 237 355 222 317 284 309 337 335 376 375 376 376 379 320 314 319 319 384 395 423 410 353 313 370 366
211 216 128 198 116 149 224 226 190 174 181 161 170 168 222 234 182 270 176 348 334 192 309 358 381 379 372 372 376 383 377 315 319 316 328 434 417 363 389 314 352 346 344 341
223 152 188 210 211 173 208 121 154 200 216 236 165 175 179 234 247 285 355 219 307 299 375 373 374 373 373 372 367 355 334 357 371 376 376 370 366 356 348 342 330 317 328 356
157 152 163 156 141 237 166 181 168 229 216 220 222 221 238 271 321 351 345 317 289 347 368 371 369 365 366 361 358 367 369 356 349 358 353 348 345 338 336 335 345 350 346 427
205 202 181 140 215 129 147 180 218 234 231 236 255 267 282 341 313 397 329 303 357 363 359 366 363 313 353 362 361 352 350 348 345 345 341 335 337 370 358 349 411 421 416 413
147 224 103 215 216 221 228 204 240 210 246 281 272 295 330 338 401 389 377 364 358 355 354 342 279 279 351 350 355 349 344 340 336 341 505 485 458 443 431 413 395 387 388 390
223 221 240 236 237 163 210 198 120 149 262 273 291 312 411 396 378 373 362 359 354 355 336 281 286 352 348 345 343 340 347 515 502 489 465 441 430 415 392 376 368 362 358 361
222 228 229 189 236 239 246 240 248 279 295 317 318 340 396 385 378 366 360 357 358 350 286 350 339 336 337 340 446 520 512 481 468 439 423 416 401 371 358 352 352 351 348 347
214 194 238 128 234 233 238 250 289 299 275 305 400 395 380 373 366 362 360 337 299 290 340 335 333 337 494 517 491 467 447 426 401 391 377 363 354 348 348 341 340 339 357 336
213 232 242 243 227 241 239 282 304 319 420 403 386 373 372 357 352 347 351 346 340 331 333 334 367 498 442 432 385 371 362 355 352 349 348 351 354 338 332 337 391 393 398 410
232 227 169 234 244 250 287 294 304 395 391 383 373 365 357 347 341 352 307 201 334 332 340 503 422 415 381 360 349 346 354 359 357 354 346 339 332 343 391 375 362 371 387 398
245 243 248 257 207 284 292 296 318 393 376 370 359 356 349 343 352 339 181 325 331 339 445 412 397 382 369 347 335 353 351 343 334 335 357 419 448 405 377 355 349 353 365 381
236 255 256 252 287 295 299 316 382 377 374 362 358 347 349 352 183 187 201 337 332 435 411 392 382 366 359 335 351 360 336 320 359 432 389 379 377 377 358 342 344 358 379 386
263 267 274 298 295 317 394 388 374 370 360 356 343 351 341 183 184 193 338 328 430 417 404 385 358 337 335 360 368 356 310 440 401 375 363 354 353 354 341 340 364 396 408 505
276 292 298 306 390 392 388 374 369 354 356 342 348 334 330 332 196 339 325 367 408 398 393 359 353 371 371 366 358 329 373 377 364 354 349 348 346 344 343 409 417 463 524 426
309 314 384 402 390 386 368 333 349 353 344 348 334 329 326 324 324 329 305 404 395 380 374 367 361 363 365 360 381 382 365 354 347 342 341 347 338 369 406 417 439 364 386 410

GFSNGP_2pvu_pres_003.txt.gz
Presure
209 201 199 171 192 189 151 137 175 144 155 175 146 158 168 179 177 166 167 163 161 164 145 142 181 167 172 164 182 188 129 145 163 188 191 191 189 180 146 162 183 147 159 184
147 137 83 81 82 126 167 165 164 158 181 178 177 175 161 161 166 173 178 179 178 179 180 162 177 177 180 183 118 162 188 193 136 140 200 166 218 174 142 127 132 153 143 211
207 189 184 112 159 184 170 183 165 150 173 166 179 170 171 162 172 170 177 179 173 170 177 181 182 186 149 168 192 182 164 180 165 145 137 146 189 162 151 184 241 202 237 180
172 202 177 156 179 167 171 168 173 184 182 182 178 180 188 183 179 174 170 174 180 179 152 187 192 170 186 135 131 125 125 158 146 157 134 146 204 191 188 210 189 191 263 231
207 193 191 196 178 184 176 187 188 185 174 174 129 175 180 181 183 183 187 188 140 186 188 159 144 139 121 117 117 141 135 151 163 236 182 238 202 230 220 254 257 254 388 319
194 201 185 189 175 151 180 134 139 184 180 187 185 182 153 182 183 182 138 191 168 193 196 137 107 133 130 135 173 194 169 164 230 239 222 240 243 331 347 370 256 265 359 404
168 190 182 187 186 186 183 149 189 186 189 190 181 159 161 173 116 126 147 201 216 132 133 186 133 134 197 181 130 138 193 210 229 345 277 273 238 278 374 302 393 393 392 391
181 167 192 167 182 192 181 160 155 162 135 104 192 188 183 180 177 152 197 189 145 134 151 143 220 231 198 77 120 279 289 313 262 292 393 387 386 387 386 388 389 392 356 324
169 164 156 197 210 160 201 204 187 205 140 149 153 90 103 176 188 97 181 155 140 123 134 149 190 177 191 242 234 298 405 397 264 317 388 385 384 384 386 384 378 324 326 331
176 190 196 125 196 205 154 156 228 200 101 156 160 167 216 218 164 229 246 119 129 187 211 241 244 277 292 159 318 392 272 379 317 319 379 376 374 368 365 367 339 384 384 383
180 175 213 201 168 187 169 161 166 181 194 164 152 158 150 222 184 171 200 222 227 194 139 257 279 312 267 341 306 388 382 372 330 377 377 372 366 367 371 372 369 362 355 362
152 155 193 197 201 204 191 153 220 127 208 116 214 116 160 242 184 234 233 236 194 234 226 266 298 329 410 392 390 384 380 374 373 369 365 315 286 289 353 351 356 352 350 353
190 169 163 181 213 147 190 207 94 198 162 223 109 224 221 231 231 225 227 231 236 250 184 381 381 410 395 390 378 370 372 371 322 306 292 291 360 361 362 349 342 342 343 344
193 152 103 144 199 196 138 201 125 220 159 125 126 159 207 205 126 153 226 233 251 326 421 430 416 400 392 369 375 370 371 319 304 309 357 350 349 354 359 401 532 507 465 457
114 141 220 185 224 218 213 216 181 195 187 217 214 216 214 217 215 201 188 253 288 319 419 409 401 384 374 369 370 369 312 335 354 346 348 357 501 521 508 499 479 458 439 422
178 200 185 191 200 201 144 149 226 166 213 228 225 230 215 231 156 222 224 274 321 315 405 391 377 364 366 366 344 307 358 342 344 350 489 508 492 484 469 450 434 422 406 396
150 206 201 218 208 150 214 227 216 218 148 123 226 234 218 235 249 258 269 307 410 396 387 373 364 365 360 337 369 344 340 345 349 455 466 472 435 419 408 399 391 380 374 373
148 146 209 213 203 225 200 220 232 120 143 205 235 236 242 256 273 285 313 402 397 382 370 368 364 362 366 182 289 339 345 372 434 398 378 369 359 355 355 350 343 342 346 350
214 213 216 215 221 213 148 218 122 231 233 237 238 244 259 270 290 328 405 392 376 370 365 361 359 358 181 214 341 340 420 414 395 374 362 361 370 360 354 346 337 342 345 344
220 211 216 215 222 226 125 203 225 227 194 237 240 258 280 286 382 402 392 373 367 366 363 359 196 183 190 340 338 419 405 392 381 364 344 362 361 346 342 339 336 333 329 330
211 212 220 227 204 126 192 221 227 235 247 247 254 273 287 320 350 393 374 369 360 355 350 344 337 193 340 339 422 412 394 379 366 353 341 368 346 324 356 477 464 425 391 378
219 217 212 125 226 224 224 227 238 258 250 265 272 285 325 407 396 374 368 363 361 356 338 340 325 339 335 411 406 401 351 359 375 370 374 362 316 371 398 392 418 388 376 363
215 221 226 170 218 228 235 245 251 251 259 291 282 304 412 396 383 366 362 359 350 340 338 329 334 334 380 395 389 382 377 376 376 372 356 301 370 386 370 361 363 368 349 351
223 232 217 227 235 237 249 251 258 264 307 309 307 363 404 389 369 369 361 360 342 328 336 322 335 323 398 393 380 358 337 385 381 296 345 377 374 369 356 349 348 344 336 335
226 224 238 236 249 249 256 258 294 305 322 319 405 395 389 307 373 363 361 343 343 340 325 343 325 416 400 377 362 345 346 330 365 365 358 354 355 350 345 348 345 371 363 412
253 259 258 255 254 258 313 320 310 336 384 378 390 385 314 361 365 358 352 337 331 333 336 333 340 409 393 367 348 361 343 368 353 352 366 132 213 349 346 350 359 399 440 458
247 263 262 263 271 301 315 325 402 400 393 389 376 305 355 370 354 350 335 333 333 334 343 317 415 396 376 354 371 352 359 351 427 476 408 431 490 396 357 359 391 430 466 548

GFSNGP_2pvu_pres_006.txt.gz
Presure
195 190 197 211 191 175 176 211 183 197 150 183 192 185 181 180 157 184 179 167 178 158 157 151 173 177 180 172 166 172 171 181 183 134 193 191 139 139 121 161 139 144 148 185
145 154 138 149 219 156 217 197 196 134 141 197 168 174 162 158 133 132 141 148 187 179 177 166 163 163 181 184 181 187 197 200 105 159 146 121 151 132 133 238 132 159 211 198
226 204 192 218 144 171 118 199 192 149 159 200 199 151 179 162 159 176 180 188 184 175 168 168 182 189 191 192 181 150 173 150 102 130 131 173 157 137 137 141 147 238 134 245
220 184 188 192 180 175 175 158 157 192 149 145 193 170 176 175 169 167 171 152 137 191 192 194 192 162 169 199 193 194 132 123 118 180 135 182 152 151 189 229 226 310 274 325
202 158 170 140 150 193 199 194 196 189 198 166 197 195 171 171 166 164 191 187 188 192 199 200 125 135 193 187 167 128 125 134 158 133 91 132 205 155 211 225 320 416 380 379
154 179 149 200 200 195 198 169 171 164 188 183 167 136 149 189 179 190 189 165 187 167 195 147 207 152 197 182 161 136 134 138 132 176 155 300 222 141 254 413 404 406 400 396
197 124 192 201 204 196 195 202 206 187 183 187 187 194 189 157 132 157 174 169 199 207 210 152 184 126 185 187 152 138 126 140 230 244 298 395 411 403 395 388 388 387 388 389
212 216 205 182 182 192 194 206 208 195 202 198 158 160 194 200 149 138 177 192 196 178 169 162 152 164 172 165 187 192 227 241 270 294 426 414 399 392 387 380 383 381 387 386
140 195 194 201 215 213 161 207 174 175 170 169 203 148 194 165 130 172 194 147 129 172 140 191 192 178 217 195 217 252 208 279 299 412 415 404 394 382 376 379 384 389 380 380
203 204 205 147 201 204 194 200 196 189 163 239 234 211 204 198 143 160 180 159 153 111 177 148 188 200 141 231 260 191 286 310 404 415 408 394 378 378 385 384 377 379 367 362
205 199 241 240 216 179 197 163 182 224 202 192 173 177 172 199 190 129 175 150 182 206 225 217 233 230 245 226 270 283 328 421 412 402 390 382 381 381 370 368 355 354 360 445
146 142 144 146 150 169 187 160 163 146 161 158 94 114 161 200 205 197 201 138 191 215 224 224 218 189 215 265 289 363 423 408 396 384 380 375 376 378 346 342 350 469 510 507
143 144 145 136 135 164 169 184 186 164 195 204 163 158 204 213 216 159 215 227 135 116 216 194 248 261 265 275 340 410 403 388 384 379 374 382 193 218 355 347 468 478 457 454
140 181 193 125 219 219 173 121 142 183 159 186 173 214 198 176 210 143 188 127 151 223 233 177 253 192 284 324 409 397 385 381 375 380 366 264 195 353 449 423 384 361 380 403
152 180 121 205 206 148 156 194 165 153 179 204 160 194 222 178 153 183 210 224 226 237 252 258 264 291 315 406 393 383 381 374 376 359 183 195 357 429 415 382 366 362 349 358
205 184 176 135 189 210 198 194 196 157 156 117 206 224 215 211 227 206 228 217 196 242 259 258 271 322 408 393 383 385 373 372 275 183 192 297 425 409 392 371 354 368 358 351
193 157 199 207 166 197 192 148 166 160 121 227 213 205 121 136 213 192 231 235 239 252 263 282 326 385 391 383 379 382 355 361 343 348 349 428 416 392 384 368 346 367 353 357
190 208 208 194 187 144 192 213 208 171 217 223 168 187 228 218 135 236 237 226 261 260 266 332 345 393 381 375 378 369 358 348 340 346 418 412 405 356 348 372 362 370 333 329
213 132 139 141 141 151 152 206 212 214 211 214 181 227 210 186 236 240 246 261 261 266 333 385 396 383 379 307 370 346 355 332 346 341 405 395 391 390 388 384 385 361 319 386
126 137 141 152 219 205 207 213 221 178 209 222 222 210 225 238 239 259 266 265 270 336 425 414 389 379 308 371 356 352 340 346 342 410 395 379 355 384 379 380 298 325 402 415
134 142 203 222 206 213 214 214 213 222 213 204 232 230 232 245 270 251 264 317 339 420 412 396 368 379 368 360 337 345 329 346 329 405 384 362 345 347 322 310 352 396 376 378
200 205 186 222 212 154 220 225 215 225 231 233 232 237 258 275 259 286 330 343 418 411 406 344 377 368 359 340 337 335 349 335 379 398 377 359 361 335 376 375 372 374 360 369
211 214 211 220 204 215 217 215 223 229 229 242 251 267 262 282 286 302 394 412 407 393 383 370 353 361 341 333 341 340 342 320 403 385 371 393 395 364 355 347 360 356 347 350
219 223 215 215 226 219 219 217 228 233 247 263 269 264 293 326 337 414 414 401 395 337 373 290 364 349 330 336 339 347 328 408 391 380 399 383 360 367 396 385 351 131 346 348
222 223 220 221 214 220 224 234 245 253 267 252 259 271 326 418 425 358 381 390 299 382 301 365 352 328 331 338 347 336 341 402 385 386 376 363 434 393 401 414 422 359 350 342
219 223 217 219 227 235 239 252 262 279 304 302 295 328 416 389 333 318 391 385 382 381 364 349 327 327 337 347 336 418 410 391 384 371 370 429 397 424 454 498 488 363 355 396
222 230 238 247 257 262 304 310 337 261 319 325 330 422 358 324 309 384 379 377 380 357 346 326 329 338 349 331 448 422 403 385 376 377 433 454 426 466 461 475 420 356 400 456

GFSNGP_2pvu_pres_009.txt.gz
Presure
163 159 186 184 171 191 193 197 164 189 157 182 153 167 170 185 193 180 184 198 193 156 156 189 133 176 192 175 168 173 175 182 189 153 195 190 167 230 215 217 140 127 142 139
187 187 138 157 183 178 185 182 186 187 114 170 173 133 143 131 185 166 153 157 199 186 189 185 176 169 187 172 173 188 187 178 167 189 159 198 213 211 137 224 164 145 132 135
193 180 187 185 187 176 193 173 194 182 195 172 133 156 183 150 146 155 198 188 200 197 167 171 169 171 176 190 180 187 193 182 166 130 199 146 218 132 205 146 134 128 186 149
194 194 189 197 202 139 184 147 140 146 204 231 168 175 214 218 173 194 165 168 205 183 184 199 195 194 175 160 198 194 209 214 142 188 198 131 124 144 142 190 224 152 210 247
238 235 235 238 230 220 222 226 230 224 229 217 219 151 152 166 159 195 197 192 203 192 190 121 199 197 201 201 194 148 214 126 216 207 172 203 145 133 206 262 161 221 331 429
217 228 225 228 150 226 178 142 153 225 150 220 215 207 178 203 196 212 212 207 189 113 101 125 154 185 232 151 147 143 173 192 184 214 188 199 192 158 148 235 314 435 426 413
221 220 220 217 211 196 141 141 171 220 210 209 181 155 204 202 201 207 205 178 177 202 154 176 196 181 201 168 118 182 187 201 195 200 223 228 208 243 312 362 433 418 404 398
153 156 145 149 186 192 172 183 210 196 215 212 212 209 207 206 207 211 186 210 186 214 177 175 168 173 183 176 149 203 193 208 201 198 218 277 296 315 353 426 414 408 399 391
218 205 210 205 209 171 211 216 219 219 216 216 160 212 216 190 193 194 197 229 187 189 138 197 158 167 185 213 198 192 226 196 223 140 235 284 317 337 422 413 407 398 376 367
224 222 225 227 156 181 200 193 144 208 206 205 203 165 169 174 204 164 133 180 205 139 171 151 176 206 183 183 224 223 243 170 245 280 282 307 347 416 415 401 389 370 366 196
129 171 218 222 215 207 176 188 193 210 212 186 166 187 163 212 201 130 204 180 186 175 176 195 182 209 207 217 207 177 246 265 279 283 289 360 407 408 400 387 370 365 289 180
214 207 153 191 200 209 181 163 139 134 148 177 163 168 181 131 178 180 124 162 172 162 183 205 195 225 226 149 235 247 197 275 285 294 403 412 406 406 381 365 351 360 445 431
255 259 228 147 142 141 147 151 198 192 159 175 193 129 198 223 148 194 158 155 163 196 169 211 228 106 212 219 247 261 285 285 291 407 408 408 402 317 373 347 353 435 424 406
144 147 147 139 143 141 137 104 185 192 142 147 165 204 198 144 199 184 179 187 185 210 199 219 135 220 224 245 234 272 283 292 362 410 406 396 319 380 354 358 368 421 406 361
142 141 141 141 144 127 185 187 192 172 211 196 174 141 192 203 204 152 203 219 213 206 205 207 224 236 179 261 280 289 298 298 416 406 398 392 376 363 334 355 424 405 400 393
201 154 171 96 139 209 207 145 176 192 203 155 137 206 152 207 206 219 204 210 213 220 203 225 238 238 258 267 285 313 350 426 411 394 393 380 357 345 360 378 414 373 367 392
113 202 208 199 197 185 196 201 206 200 134 189 143 199 210 204 221 205 208 194 218 225 228 229 246 248 264 262 273 413 422 416 397 390 382 360 354 329 351 434 400 363 372 389
113 198 194 191 189 202 196 207 185 171 184 142 167 208 212 208 153 215 218 217 222 235 233 246 243 264 284 277 427 418 415 405 385 363 370 342 340 360 363 423 390 370 358 338
186 188 182 185 195 201 138 137 154 212 160 195 209 219 216 215 228 221 213 223 225 235 236 248 266 285 291 422 418 406 401 387 383 371 352 341 352 348 426 400 376 405 391 391
166 167 198 203 205 179 127 199 211 205 195 217 219 219 223 215 222 217 221 234 236 244 248 268 342 302 410 356 334 385 318 389 376 357 336 347 360 332 414 388 410 386 366 379
203 192 189 126 127 127 170 199 210 208 220 219 221 223 222 222 220 221 233 231 252 265 278 316 350 354 407 327 394 390 391 378 360 340 335 354 344 427 404 385 389 362 356 366
180 195 184 197 199 208 206 210 223 224 217 223 223 218 218 225 218 237 242 260 270 327 355 313 361 386 330 319 384 386 379 361 338 332 351 357 413 422 386 399 362 407 377 360
191 207 200 203 204 211 221 223 220 223 211 225 224 226 230 237 247 256 266 346 314 334 351 421 411 332 366 386 385 370 362 339 334 352 360 449 431 401 396 370 446 396 520 366
201 220 222 219 217 224 219 215 219 222 233 237 244 251 257 260 270 284 351 342 353 397 346 365 338 388 390 381 373 363 338 340 352 365 456 435 411 395 377 472 416 449 427 371
213 211 224 217 220 218 223 225 235 239 252 259 261 276 309 306 302 339 310 351 410 338 338 335 393 392 376 369 357 337 345 355 441 461 436 414 389 373 453 417 482 485 510 372
219 220 221 224 229 236 238 243 252 261 277 306 303 285 313 356 359 329 386 381 337 377 399 398 388 374 365 347 340 350 374 474 461 434 412 384 378 417 408 476 473 489 442 367
230 237 244 247 251 258 266 285 300 301 302 340 350 368 373 360 405 417 336 341 406 398 391 380 369 354 340 346 359 511 466 459 436 409 356 375 406 401 461 468 463 434 403 372

GFSNGP_2pvu_pres_012.txt.gz
Presure
198 193 195 192 191 188 191 187 183 177 159 177 181 178 185 168 168 174 148 170 174 173 185 185 186 185 184 186 190 192 202 198 181 189 192 194 185 171 189 151 187 200 187 146
216 213 196 200 198 194 196 197 169 187 164 175 176 184 171 153 170 179 193 180 190 129 189 142 189 200 201 162 168 188 198 201 200 184 186 124 130 154 218 187 113 122 135 205
182 185 186 193 196 190 165 178 185 175 164 179 181 192 185 189 194 191 190 179 172 158 191 181 205 188 209 192 193 118 174 180 186 169 203 146 165 183 187 211 214 215 212 226
191 192 182 179 183 187 180 187 182 181 186 181 177 199 197 192 191 170 193 159 134 166 208 216 205 203 202 188 125 100 192 200 161 188 128 136 146 200 216 190 217 223 221 207
187 183 181 180 182 147 189 187 188 189 191 191 191 199 141 140 199 199 166 173 213 218 215 213 206 199 211 200 212 214 158 193 194 190 138 173 214 223 226 224 228 132 242 217
193 191 187 202 199 191 192 196 189 188 148 201 154 151 197 196 137 221 226 226 215 183 208 198 191 202 214 206 200 141 215 134 132 184 212 128 216 200 203 185 232 218 295 315
216 210 201 202 175 200 174 145 173 142 143 132 131 134 233 234 234 222 214 209 211 213 154 211 220 186 204 130 134 193 135 155 205 204 207 212 225 215 120 211 271 295 329 348
232 220 161 229 129 239 130 194 187 212 183 237 172 150 230 199 211 221 219 188 206 203 202 195 199 191 162 136 209 154 183 187 190 120 221 180 235 249 245 242 283 298 409 430
148 149 140 139 133 174 166 146 219 214 136 217 205 214 220 210 199 204 198 201 206 208 207 139 165 214 142 133 159 191 193 199 184 121 197 207 202 253 265 292 317 439 432 422
214 222 218 219 224 224 192 215 202 211 155 148 214 196 166 202 202 207 203 203 186 127 161 205 180 141 149 204 207 204 206 186 156 199 196 210 212 261 289 316 442 428 419 409
211 180 221 189 127 152 222 210 185 199 178 194 177 182 176 143 150 155 206 154 141 215 183 177 194 154 189 189 186 184 146 206 212 234 231 245 260 281 285 444 426 414 410 394
208 201 213 218 223 132 204 176 179 205 215 164 139 148 150 216 159 131 126 186 206 149 160 142 182 200 183 184 176 211 213 200 234 232 195 261 279 311 445 432 403 399 312 369
147 211 224 225 224 220 230 234 228 184 142 132 136 135 161 121 125 206 201 204 142 131 189 194 190 202 134 203 214 221 216 220 233 246 259 279 308 438 425 349 323 388 365 351
258 263 254 187 221 200 205 147 154 143 139 124 200 198 125 201 202 186 177 137 132 141 188 183 187 199 212 211 207 226 218 227 247 261 282 328 410 432 392 376 399 378 347 359
251 204 143 146 147 143 146 143 137 135 201 208 211 192 185 183 183 151 135 141 153 200 185 185 212 211 218 216 228 218 231 251 266 279 372 419 430 354 384 402 383 362 344 357
143 144 144 144 142 144 189 208 135 216 204 216 188 173 181 189 179 135 128 201 211 204 200 202 217 217 218 230 184 248 260 272 282 363 421 427 356 346 403 387 366 346 359 347
134 143 132 206 134 138 211 122 92 195 193 183 185 177 187 137 132 134 195 196 202 210 221 212 212 237 236 247 249 265 275 307 360 442 426 384 349 403 394 375 352 336 355 418
129 206 209 104 204 203 194 195 197 184 185 169 162 199 135 133 167 126 199 202 215 217 221 219 237 191 248 208 273 286 321 297 440 368 409 405 403 391 376 358 340 353 350 408
192 192 94 88 95 182 169 192 172 167 193 178 198 147 130 192 201 209 201 190 215 221 233 237 246 250 265 273 304 301 329 437 356 349 403 399 389 377 362 343 343 360 424 411
105 196 199 121 158 175 170 186 201 158 198 199 187 187 204 211 210 228 219 219 222 239 244 247 255 267 318 309 364 431 334 353 411 402 399 387 377 361 344 342 428 440 415 403
206 207 204 200 200 198 197 194 194 199 200 203 203 197 205 222 215 224 222 239 239 252 247 265 305 373 393 380 439 419 347 410 404 397 385 374 357 343 344 425 449 421 402 422
196 192 193 192 191 193 160 205 199 207 212 207 221 222 218 221 226 238 237 250 257 267 289 377 332 383 381 431 373 366 407 401 390 379 366 349 343 350 476 450 422 396 422 503
191 192 197 201 199 206 207 208 209 214 221 226 223 222 233 238 236 247 260 289 341 345 408 357 380 433 427 344 400 401 393 385 376 360 344 345 488 473 448 418 391 419 448 468
200 194 198 199 204 205 208 218 224 227 223 225 236 240 237 249 267 341 359 353 330 410 405 439 427 425 339 408 397 390 384 370 351 341 377 482 470 444 414 387 411 425 471 516
208 211 216 211 219 226 228 226 227 234 239 239 239 258 278 338 299 312 301 340 396 439 430 410 339 341 401 392 388 379 363 344 346 511 466 459 435 405 380 403 424 468 497 510
219 224 229 228 225 227 233 239 239 240 249 278 300 292 275 304 346 344 334 438 431 429 343 344 376 397 392 385 372 352 343 428 462 456 445 421 398 356 396 428 460 489 499 368
230 224 230 235 232 238 250 260 186 284 278 269 273 334 347 341 330 330 431 428 393 362 389 400 392 389 378 360 343 362 482 447 440 437 404 390 360 392 396 444 481 479 389 366

GFSNGP_2pvu_pres_015.txt.gz
Presure
205 192 187 187 185 187 173 178 180 165 183 165 182 183 188 182 192 186 186 173 178 190 191 150 197 166 193 191 151 193 196 185 207 178 200 97 195 207 208 135 139 209 206 156
211 204 200 193 190 190 184 191 180 191 185 189 164 180 176 174 192 174 190 189 192 197 129 191 193 195 138 191 191 192 211 216 217 212 221 214 205 148 136 211 180 144 201 197
269 254 198 195 194 192 192 187 185 183 183 186 188 185 191 190 193 170 170 193 194 195 181 186 197 190 202 201 198 159 221 190 222 216 208 206 134 135 140 154 155 143 208 196
263 263 257 234 197 191 188 187 187 183 188 193 190 186 159 198 188 184 194 161 163 193 200 193 185 203 204 204 226 221 214 217 208 216 131 160 186 208 145 132 197 204 141 218
202 262 277 263 230 223 216 195 199 201 197 143 198 158 198 191 178 187 184 142 186 193 144 203 216 226 224 226 178 210 220 138 203 188 236 136 144 190 129 160 206 191 215 204
240 247 189 180 176 181 185 183 180 189 189 189 190 185 182 138 139 154 142 192 201 141 232 171 226 218 208 225 223 208 198 140 260 158 148 132 211 215 194 155 213 211 206 186
212 211 211 217 188 187 189 166 184 182 181 139 168 189 193 133 146 203 203 202 215 228 237 221 196 215 209 218 197 134 239 175 182 216 145 145 205 154 176 204 202 211 213 214
197 194 197 126 131 131 159 192 128 130 182 169 200 156 204 207 222 178 243 235 228 207 219 206 212 207 127 129 218 203 162 162 142 176 194 203 159 192 203 201 202 217 232 227
191 192 196 197 144 190 148 131 135 137 134 236 232 237 246 245 236 194 221 219 219 142 152 214 137 123 126 190 165 200 194 194 208 201 131 215 192 203 192 204 235 267 274 299
229 225 131 224 153 189 132 233 233 229 230 227 233 229 227 211 203 194 221 157 204 203 148 186 144 193 172 153 133 148 136 199 208 192 183 197 204 193 199 245 264 279 301 335
229 227 200 230 230 222 220 180 151 183 134 224 208 224 220 217 181 228 211 142 171 176 127 189 188 203 190 167 133 167 205 188 183 193 209 206 197 218 230 265 280 313 328 437
221 220 215 213 215 214 168 223 225 179 220 140 229 222 222 158 210 130 161 155 157 177 199 208 181 133 128 128 185 191 187 181 200 212 214 199 218 251 264 281 328 400 431 417
203 212 216 220 224 222 210 218 226 231 229 229 176 228 216 133 138 149 155 200 208 214 193 188 151 127 184 186 196 207 203 197 197 193 220 234 258 270 284 370 437 428 422 385
224 229 229 212 203 199 208 186 220 191 232 223 141 136 126 142 180 212 216 212 194 190 174 163 127 139 189 192 201 207 211 202 214 168 244 263 280 319 411 450 436 358 411 400
243 253 250 253 261 219 269 272 212 214 141 137 135 140 209 215 212 199 199 195 185 173 179 125 143 196 199 187 210 213 219 219 237 256 271 324 410 407 447 423 354 418 404 392
265 267 248 246 160 139 137 136 134 143 141 140 212 160 204 194 197 176 183 173 174 192 128 189 199 202 208 198 216 223 240 250 263 283 415 403 431 443 423 356 415 402 390 375
126 127 136 128 126 131 132 130 211 212 204 199 199 200 200 198 201 168 156 196 204 179 198 204 209 207 221 221 234 249 262 277 330 311 405 450 441 360 420 408 399 389 368 352
124 126 125 127 132 154 198 84 119 95 198 182 186 198 181 194 199 165 197 206 199 202 204 210 210 221 231 251 252 266 337 354 422 459 448 431 354 366 404 394 384 362 349 451
133 136 136 140 176 198 180 162 193 161 205 200 195 193 193 153 193 193 201 202 201 202 214 226 239 250 254 263 298 302 337 457 453 443 383 347 398 397 389 377 357 355 497 465
142 154 150 168 173 191 200 199 199 196 192 192 194 195 196 198 202 206 193 203 211 228 235 247 250 260 272 298 365 353 464 416 434 347 404 403 393 382 368 351 470 489 462 428
178 178 181 190 198 196 197 192 192 189 189 135 192 199 201 196 197 217 215 231 193 242 141 261 267 308 287 367 351 344 438 352 369 413 401 389 377 360 352 485 482 455 421 392
187 196 188 185 188 191 192 190 190 198 202 199 194 200 210 215 221 229 227 233 248 252 261 300 282 369 361 348 432 351 398 420 410 400 384 369 352 406 472 476 446 414 399 426
190 186 190 193 191 192 198 196 184 171 203 215 210 209 221 232 226 233 242 257 284 293 282 347 367 355 346 413 373 428 419 410 399 378 359 350 467 463 463 432 406 398 431 462
195 195 194 191 193 200 202 204 203 206 212 217 159 231 227 225 241 290 292 281 277 275 370 299 353 341 438 339 426 418 408 391 369 351 492 459 448 449 420 405 393 437 458 514
198 201 202 201 201 199 200 211 216 194 228 225 226 238 250 286 279 267 270 276 292 367 362 348 391 435 417 425 414 403 379 359 368 468 445 427 431 406 390 386 426 446 508 434
201 200 202 205 213 217 219 225 226 226 243 279 267 270 277 276 257 269 307 347 361 358 338 402 436 432 422 411 394 368 354 467 442 433 425 421 409 389 376 415 437 500 492 372
213 210 220 222 224 224 229 261 282 276 269 266 266 262 263 262 274 305 348 357 343 339 417 437 429 415 408 384 361 423 446 434 429 416 418 460 370 373 404 430 494 492 375 383

GFSNGP_2pvu_pres_018.txt.gz
Presure
191 193 190 187 182 179 182 183 162 190 193 185 188 169 178 179 179 174 179 174 190 178 179 186 194 186 183 187 195 186 156 193 197 200 202 166 229 230 216 178 221 220 146 191
198 197 195 188 176 175 178 183 182 188 186 194 178 173 173 179 186 178 167 186 187 188 187 177 179 144 191 187 186 132 193 200 200 229 231 229 221 231 147 217 134 250 228 144
199 197 197 193 185 182 178 175 163 165 164 184 184 181 177 183 185 184 189 186 174 186 192 193 203 191 139 191 144 194 187 181 227 227 225 212 224 140 142 241 176 215 173 142
210 202 195 196 192 191 185 188 187 185 186 184 183 183 189 188 186 186 185 192 200 199 196 129 162 160 191 186 172 180 208 218 234 222 220 202 172 229 214 219 171 144 166 201
277 217 209 207 199 201 198 194 191 161 190 192 191 189 179 173 185 187 188 191 130 142 133 181 175 164 194 198 205 209 236 229 209 212 129 186 215 190 193 214 204 209 202 192
199 185 192 236 218 212 207 201 198 196 195 186 183 184 187 195 190 134 199 181 139 191 189 193 194 202 205 218 223 230 210 137 125 213 236 181 184 206 142 201 208 209 203 207
257 190 189 198 266 263 259 260 259 257 212 244 131 129 218 216 201 167 181 176 183 196 178 198 202 203 241 231 190 173 126 160 230 209 205 132 136 160 212 210 205 212 206 202
230 231 236 239 192 228 177 234 148 195 240 131 231 128 194 146 154 135 168 191 179 164 201 234 236 224 216 140 224 136 216 233 203 129 144 173 202 197 202 209 204 199 203 216
204 212 217 220 224 213 214 226 224 220 129 152 138 186 205 188 186 199 196 200 239 242 231 222 164 145 148 164 181 230 208 203 129 189 190 200 200 194 198 199 201 214 222 231
197 162 184 177 195 196 194 192 150 140 135 132 186 205 204 196 221 246 236 228 225 215 221 192 155 226 149 142 225 201 225 130 187 146 192 204 204 195 199 205 214 230 237 287
232 233 236 235 129 213 161 216 240 236 159 235 222 232 130 228 135 225 225 222 228 126 137 239 232 218 207 210 220 143 192 160 135 195 208 208 198 210 214 223 232 283 434 463
224 224 185 223 224 190 224 228 233 229 225 225 225 226 224 229 224 235 207 139 130 178 176 194 204 221 215 208 201 193 182 148 206 210 198 208 213 214 242 273 303 462 395 457
223 224 223 226 228 124 233 232 229 228 221 224 230 226 226 227 227 240 134 140 137 186 153 219 210 198 209 197 170 134 202 208 205 204 209 214 227 263 278 448 377 463 453 375
226 203 222 221 219 225 220 221 222 228 210 218 230 227 243 156 246 141 137 137 148 217 207 205 200 197 157 192 203 207 204 203 204 213 223 257 269 360 417 367 467 436 356 371
241 248 235 241 242 257 253 239 240 245 252 171 204 133 134 139 146 151 184 206 201 198 191 192 193 193 204 194 197 199 197 211 217 242 262 279 320 482 411 368 382 436 428 418
256 259 255 251 241 246 245 263 252 149 131 136 147 143 149 197 207 197 201 206 194 198 198 201 200 199 204 196 195 204 217 235 198 271 306 293 476 470 399 353 435 428 413 392
222 236 249 262 269 175 140 126 114 131 126 148 208 203 194 192 104 196 199 198 195 197 197 197 199 196 194 200 202 229 239 262 306 291 390 478 472 368 371 435 425 406 372 363
209 206 192 138 119 121 129 136 133 138 202 200 190 190 196 198 154 190 195 193 195 196 201 192 197 210 205 177 238 255 276 290 327 371 376 468 456 444 434 422 397 360 445 488
200 144 134 135 126 128 141 137 175 189 185 187 194 196 196 179 197 196 194 197 194 192 200 203 209 215 232 249 270 298 289 331 373 361 404 452 438 429 412 380 361 513 484 476
132 132 134 131 138 142 147 192 186 178 193 195 183 187 197 193 195 196 192 191 203 207 151 218 230 234 266 282 299 285 311 379 357 447 450 436 425 401 365 522 489 472 469 421
190 135 170 187 167 157 196 181 196 197 184 185 194 193 189 192 196 200 201 201 196 214 225 227 256 275 275 286 284 308 374 355 390 451 435 420 387 362 497 464 457 462 415 405
155 189 188 180 178 191 165 170 195 200 206 198 192 192 196 201 202 201 212 215 223 237 244 277 272 276 254 308 315 334 353 462 451 430 412 377 408 465 450 440 451 415 403 442
179 190 197 195 198 193 193 169 191 192 192 193 198 202 202 203 206 215 224 236 239 271 269 272 260 293 308 323 339 353 460 448 430 406 371 454 454 442 435 441 413 400 443 483
199 199 202 207 194 207 206 195 190 193 204 203 202 205 209 215 231 234 237 255 276 277 283 288 292 307 323 304 404 461 442 427 402 368 475 452 444 432 429 416 378 436 473 468
178 203 197 205 211 194 203 202 195 211 204 208 220 223 233 233 230 268 271 279 290 282 289 298 309 301 333 453 459 439 423 396 365 473 449 460 445 421 441 349 422 455 521 382
202 203 136 200 213 207 191 207 211 218 222 228 228 228 252 266 273 277 279 285 285 302 336 335 316 355 379 456 434 416 387 361 463 440 450 470 459 469 350 406 442 519 393 391
182 210 211 211 153 205 218 215 221 230 230 249 264 265 270 268 268 279 285 293 330 329 346 351 458 448 450 432 412 380 357 454 436 479 456 438 438 369 400 433 484 433 354 317

GFSNGP_2pvu_pres_021.txt.gz
Presure
198 188 188 199 185 177 175 183 186 131 184 178 176 171 174 172 164 168 161 159 163 159 163 189 175 181 183 171 196 193 171 192 197 177 196 189 192 195 205 213 236 234 217 158
194 194 192 180 179 139 167 176 177 180 179 190 184 176 185 182 186 189 186 182 174 174 182 183 183 177 178 179 183 199 200 199 180 149 195 198 202 210 215 237 227 222 201 218
195 194 191 179 181 181 183 172 188 179 183 185 179 179 186 188 191 192 191 170 162 171 169 174 187 188 188 191 177 145 152 185 194 195 198 203 215 219 194 194 176 211 231 169
194 195 189 190 181 186 186 179 180 182 188 184 176 163 162 174 176 185 187 182 182 176 184 189 189 190 161 132 171 204 193 194 199 196 187 187 239 232 155 229 212 237 208 210
196 194 192 193 190 188 189 188 184 182 179 178 181 182 180 183 184 184 185 186 185 185 187 183 131 131 134 193 217 197 190 195 223 205 223 234 141 216 237 230 157 187 215 202
207 196 195 195 193 193 188 192 191 191 189 188 186 185 186 185 133 183 184 187 191 159 130 193 167 142 234 210 186 191 196 216 181 231 150 185 244 215 218 128 229 214 196 193
267 216 209 204 202 192 193 193 191 176 190 190 190 191 195 195 197 167 197 179 186 185 186 170 234 218 189 193 192 203 240 134 218 206 122 223 226 214 219 212 161 192 193 205
234 294 299 228 209 205 201 199 190 195 195 197 172 201 204 206 190 122 202 245 241 191 232 224 186 193 196 202 233 135 143 234 217 232 221 214 210 212 186 163 190 202 215 213
222 199 261 293 268 181 181 268 246 250 254 258 256 253 149 133 245 242 134 231 228 220 192 195 194 198 237 144 137 157 234 232 216 214 216 208 201 207 194 191 212 204 216 225
236 239 243 241 213 244 244 198 209 200 242 128 122 195 230 134 136 177 217 191 197 192 198 236 235 230 133 163 235 228 215 211 210 208 186 190 205 196 213 202 209 222 229 252
197 205 211 214 221 197 222 137 219 217 160 169 167 183 175 202 199 126 197 198 224 235 231 231 226 135 138 204 214 207 216 208 203 143 172 202 199 205 208 216 224 237 301 404
193 190 191 127 198 197 178 132 170 132 195 130 192 229 205 196 222 235 234 231 230 222 224 225 140 136 212 206 212 206 205 201 200 180 205 207 201 171 217 183 278 301 285 403
134 198 199 199 231 232 231 127 124 225 225 226 230 229 233 232 237 236 224 211 217 145 144 156 210 204 211 201 205 195 199 202 200 210 201 209 216 226 238 291 292 278 470 460
229 226 227 215 230 232 233 233 237 239 239 238 239 238 225 225 232 212 145 166 264 166 206 206 202 202 200 195 202 202 199 202 202 204 212 212 233 273 297 283 334 476 461 447
218 218 222 222 224 229 232 232 230 229 224 231 232 239 254 136 157 272 186 178 210 202 150 198 193 181 202 188 198 199 194 201 209 205 225 250 291 280 309 335 478 463 447 425
230 220 223 240 244 246 246 248 253 258 259 255 227 130 124 137 144 150 209 197 194 149 194 198 168 197 195 199 200 193 204 204 222 238 269 289 300 329 317 478 461 440 418 387
243 210 148 256 258 259 258 264 268 269 173 129 126 123 139 189 194 197 196 191 190 192 199 195 192 195 198 196 204 205 215 226 253 281 312 314 328 321 479 460 437 408 376 482
235 243 196 251 269 274 264 208 131 125 126 140 135 156 180 197 195 190 187 190 191 180 186 196 198 194 205 205 208 217 249 268 289 304 315 340 329 481 458 435 403 375 470 457
262 236 236 207 196 192 206 128 138 134 130 137 146 148 184 188 188 180 185 187 198 194 201 199 200 207 212 214 236 256 288 302 303 316 351 326 478 382 434 401 374 458 454 465
202 196 185 192 207 160 134 135 131 134 142 187 189 188 197 191 177 170 193 203 202 194 200 206 209 208 231 246 268 294 294 311 314 333 314 478 460 432 397 371 463 462 456 414
162 177 194 173 130 130 135 192 194 193 189 187 172 175 200 185 166 208 207 196 198 203 205 208 219 243 254 290 290 305 309 339 333 369 477 459 430 395 372 463 472 445 423 414
168 201 172 157 170 188 166 172 187 187 194 194 184 194 208 197 198 202 194 214 204 206 218 242 250 278 280 290 302 306 344 323 388 477 458 430 394 362 457 478 420 438 406 446
187 120 119 190 186 187 191 189 186 196 196 195 207 204 202 215 211 210 215 206 219 237 250 266 282 274 291 305 298 346 322 460 472 456 428 393 418 412 477 486 499 388 435 480
184 173 186 176 197 190 190 189 196 194 203 209 207 208 218 208 215 219 222 236 248 266 274 272 271 290 294 307 347 307 468 469 457 430 392 405 407 485 478 469 355 427 468 392
192 184 193 193 192 188 199 203 170 206 201 205 208 209 202 222 228 241 252 270 265 266 270 278 286 295 305 341 348 464 469 457 429 386 500 411 421 464 451 452 406 455 404 335
204 198 202 201 164 196 212 205 209 207 211 212 143 224 227 235 251 266 268 265 267 268 278 282 284 331 348 424 459 473 453 425 381 479 421 423 450 434 441 377 435 485 355 313
202 203 207 205 196 195 212 214 211 215 222 227 226 234 258 268 267 265 261 267 268 277 283 295 344 320 433 462 473 433 420 373 466 429 463 445 440 447 456 419 464 366 324 304

GFSNGP_2pvu_pres_027.txt.gz
Presure
245 254 237 232 241 263 221 184 142 219 210 186 180 175 189 192 205 197 200 189 185 184 179 179 176 180 175 177 176 174 175 177 185 197 196 196 191 184 194 201 237 143 231 228
242 248 213 194 264 224 228 236 224 202 184 178 181 130 190 199 195 183 189 189 185 173 173 172 176 173 173 177 180 181 187 193 190 173 178 190 193 201 193 137 247 231 230 214
187 234 243 269 208 224 242 233 207 197 181 178 188 190 191 182 184 181 176 176 177 181 176 174 180 185 182 180 179 185 171 173 184 191 192 199 200 135 139 234 230 213 226 214
271 201 248 233 224 246 232 208 194 175 169 161 165 167 168 175 164 168 174 180 179 177 182 184 180 168 171 186 173 181 183 189 190 196 171 166 262 236 230 229 214 156 226 142
190 218 211 235 239 219 209 161 167 168 168 170 177 192 179 181 178 178 178 181 180 176 172 175 173 173 179 183 182 188 193 191 200 147 249 242 234 224 212 249 238 140 135 229
191 196 190 227 204 179 179 176 173 171 178 176 182 193 184 176 178 178 178 178 177 179 179 178 182 185 183 188 191 192 191 202 235 248 225 225 213 247 243 136 140 135 165 215
244 186 228 198 202 188 190 180 180 183 184 184 168 170 176 177 174 178 180 181 183 184 186 184 183 189 190 180 129 146 194 224 236 216 214 224 239 237 186 132 153 214 206 197
268 239 212 203 188 187 185 186 183 182 179 178 178 179 180 181 183 185 177 183 183 184 189 159 167 126 133 200 191 224 239 231 222 244 197 239 223 137 234 208 210 200 199 199
251 226 213 199 193 192 194 191 189 188 187 186 187 187 186 177 183 183 186 190 156 188 195 193 191 204 194 131 238 239 226 218 197 140 214 274 239 209 211 195 190 200 194 197
244 252 204 195 189 191 193 192 191 190 188 189 186 189 191 190 190 189 132 148 172 169 187 207 226 245 237 233 230 203 241 192 144 164 252 211 211 201 180 194 192 215 203 216
272 289 290 247 205 204 199 196 196 195 192 191 192 194 195 163 196 196 198 198 200 241 140 238 235 233 214 203 241 147 134 146 260 214 209 202 187 184 183 206 219 215 236 268
196 199 233 269 271 277 258 258 243 201 200 199 158 200 199 200 148 183 242 123 243 193 230 224 207 204 234 134 134 197 232 216 206 201 194 174 190 179 197 207 215 243 271 297
237 242 250 251 249 251 226 242 244 253 254 245 242 240 241 238 230 172 128 237 224 219 202 248 188 132 125 163 163 216 208 166 188 190 180 191 209 200 129 210 243 282 292 302
111 209 213 227 230 233 233 233 231 229 230 230 230 229 239 235 220 215 199 201 214 247 243 238 130 130 151 214 206 201 180 184 183 178 209 213 206 213 231 249 287 281 302 309
191 190 189 190 191 188 189 191 191 191 193 195 197 196 196 197 201 221 240 242 261 271 207 126 131 138 207 202 192 186 173 183 185 208 212 215 216 240 261 290 274 298 306 499
196 195 196 197 200 202 203 202 201 200 199 199 224 229 234 235 238 257 267 268 260 127 130 135 139 195 192 185 181 187 187 186 205 212 224 233 247 274 287 286 297 306 467 468
228 229 230 229 229 229 228 229 232 226 224 226 231 238 248 254 256 260 252 139 129 132 132 149 191 186 182 189 189 177 208 207 220 229 235 247 282 287 282 291 304 331 465 430
217 217 220 222 223 223 221 222 224 230 238 155 178 252 250 255 256 203 134 130 131 131 190 190 187 183 181 178 186 212 191 219 230 234 252 286 288 281 292 302 362 470 428 397
222 225 225 226 189 230 233 241 244 246 252 172 243 244 233 201 184 128 169 133 169 195 190 188 180 177 188 194 189 219 224 226 235 255 287 287 284 290 300 369 470 429 404 477
221 225 229 232 240 244 246 237 245 247 243 238 210 201 175 202 135 124 179 195 188 188 181 178 179 200 208 219 176 228 228 237 269 288 290 284 289 298 352 464 427 393 439 491
245 243 242 238 239 239 267 268 266 203 202 201 190 146 118 133 194 193 187 179 181 197 185 170 192 207 225 221 228 234 240 276 288 290 288 290 300 340 463 425 382 442 480 465
277 284 297 303 260 200 196 190 188 203 205 202 179 178 154 156 193 188 186 182 195 200 209 210 209 221 221 227 238 252 281 288 285 293 289 300 449 464 426 377 451 481 477 465
259 244 175 175 178 190 192 193 195 198 198 199 196 133 196 194 194 196 170 198 208 206 206 213 221 224 228 242 267 282 286 282 289 288 303 483 459 424 378 455 484 465 453 399
197 196 200 200 199 198 198 197 199 193 192 188 196 192 190 186 191 193 204 208 203 215 216 229 223 234 243 273 284 284 285 288 294 315 342 454 419 383 436 503 471 486 460 349
189 201 201 200 200 200 200 196 196 199 184 180 185 198 200 204 205 178 204 205 220 219 226 224 239 242 277 279 281 288 293 299 361 478 447 454 459 448 524 475 540 464 354 335
162 196 195 194 163 198 192 181 187 193 199 200 200 203 204 203 210 208 214 223 216 225 227 245 256 279 283 288 292 302 331 502 472 440 475 438 520 473 475 546 530 368 337 318
193 196 185 183 183 190 193 200 205 205 207 209 205 188 209 214 206 220 219 220 227 236 255 275 279 274 291 313 338 344 497 467 437 457 434 494 483 469 351 570 474 346 318 297

GFSNGP_2pvu_pres_030.txt.gz
Presure
233 240 234 244 246 165 251 251 252 268 246 213 216 221 224 220 206 179 180 176 181 187 195 201 201 197 196 193 189 183 183 181 178 182 179 187 174 174 184 189 194 197 205 262
234 239 242 250 233 237 249 295 280 245 229 215 217 224 219 213 180 180 171 179 188 192 199 196 200 198 191 181 174 174 178 185 186 188 173 180 182 185 191 198 198 203 256 228
239 238 227 220 259 227 258 211 270 207 218 209 228 223 207 180 176 176 178 185 193 195 196 198 192 187 187 180 185 182 186 169 175 177 181 184 187 189 178 155 210 250 231 217
232 169 253 242 260 244 255 232 232 226 217 231 225 197 178 175 179 181 186 192 197 195 192 185 177 179 181 180 177 168 182 173 182 183 187 186 172 192 196 244 149 231 242 253
250 237 214 266 253 262 273 243 228 219 224 221 184 177 178 183 183 185 187 187 186 164 172 182 182 179 184 185 180 179 182 182 184 125 148 192 142 192 250 228 211 253 238 265
192 261 249 210 253 251 209 217 234 223 185 185 173 176 177 182 188 188 183 176 180 183 183 185 186 182 178 183 181 184 173 186 181 165 192 203 227 237 240 214 153 135 265 215
240 217 242 298 208 218 226 233 208 178 171 170 167 168 168 169 171 185 184 178 179 181 180 177 182 184 181 185 180 187 180 179 155 140 209 249 225 212 240 155 217 219 204 168
187 238 233 216 224 229 236 200 178 180 178 167 172 174 176 174 179 182 175 174 179 180 181 181 180 183 180 188 184 193 173 200 204 255 232 219 232 178 149 261 204 161 191 185
236 218 210 182 262 220 185 178 178 176 178 180 179 183 185 185 184 179 179 181 181 184 177 182 178 189 177 185 147 201 206 254 240 225 213 146 198 257 210 209 188 189 187 200
240 250 263 255 193 208 190 187 186 184 185 185 183 181 180 182 183 184 184 182 182 174 185 184 192 194 195 204 180 257 238 226 211 128 163 182 226 213 174 196 190 197 202 210
244 246 247 236 216 198 191 191 193 192 190 189 187 187 186 184 182 184 186 154 190 192 194 121 204 204 253 252 243 227 208 130 128 145 266 214 200 198 191 192 196 209 210 233
278 285 272 247 226 208 205 191 191 190 191 192 192 192 192 192 192 193 193 197 202 142 135 147 235 246 232 211 211 175 127 132 140 215 198 191 190 189 196 190 211 219 235 251
198 207 274 273 280 217 215 202 198 197 196 196 197 199 200 202 206 206 211 245 247 249 237 243 226 204 213 248 301 130 133 136 195 199 187 186 187 195 184 201 234 236 250 295
242 246 211 178 252 255 254 256 257 256 258 261 263 261 250 245 245 235 231 230 230 219 204 207 231 252 279 210 134 133 137 199 192 183 180 187 197 191 224 233 236 250 292 297
199 205 221 224 178 233 245 243 248 247 239 242 233 229 227 222 207 194 202 208 209 219 244 259 266 268 132 131 131 134 192 194 183 181 190 194 206 224 234 241 268 293 288 292
192 193 190 189 190 189 188 190 190 190 191 187 188 193 201 207 205 203 224 230 237 252 264 258 258 132 130 132 134 195 190 181 181 190 187 201 225 234 240 283 296 288 298 308
199 198 198 198 196 195 197 199 199 199 200 202 204 205 225 233 231 231 248 252 253 255 271 193 132 134 128 136 197 180 188 194 193 193 220 224 235 242 284 293 297 301 314 466
226 223 222 220 220 223 228 228 228 226 226 227 227 227 227 234 154 253 257 248 246 199 148 130 150 135 196 182 179 183 197 195 215 218 231 231 245 282 293 303 307 336 467 430
227 227 228 225 225 222 219 222 225 225 230 233 234 252 249 251 255 253 230 205 180 151 168 164 196 192 192 180 188 192 199 212 216 232 229 249 283 291 301 316 362 469 435 482
221 223 223 222 220 225 222 222 169 235 238 247 245 237 261 316 235 209 205 195 172 197 196 193 191 190 195 194 193 208 206 229 225 236 256 285 295 302 321 365 421 440 484 476
225 224 223 222 224 232 231 234 243 241 243 278 219 299 207 205 207 204 178 198 195 157 195 194 186 192 194 204 211 208 231 223 239 256 287 289 309 344 368 467 487 472 469 491
217 234 235 237 250 260 278 289 290 297 258 249 202 194 186 200 202 200 199 134 194 189 183 191 194 199 205 207 213 221 226 238 256 285 279 333 337 393 463 471 451 480 497 480
271 273 275 275 242 261 259 256 221 206 192 196 193 199 199 198 201 194 175 188 184 191 195 196 208 199 188 214 220 228 239 256 282 281 342 308 474 460 469 470 540 505 487 390
233 237 238 237 236 235 229 206 199 200 200 199 196 197 204 200 200 188 190 192 196 203 208 206 199 223 218 222 229 244 255 280 302 319 349 479 460 460 480 503 494 478 452 362
220 218 217 216 214 205 192 203 204 203 203 190 199 192 194 192 184 193 202 208 208 205 202 214 213 228 228 231 249 266 284 303 325 347 483 456 447 459 496 489 487 553 363 340
211 212 212 211 208 168 193 205 200 199 196 191 194 198 195 196 202 202 205 202 201 211 211 212 219 235 230 249 272 283 302 345 338 483 457 448 459 485 477 462 567 366 340 310
207 207 206 201 196 200 202 203 201 197 196 193 195 201 205 202 198 209 216 211 217 217 217 219 237 234 278 283 279 297 324 355 483 454 443 445 482 465 347 580 406 344 314 296

GFSNGP_2pvu_pres_033.txt.gz
Presure
245 247 231 255 234 255 255 261 273 290 299 307 184 297 239 268 262 225 213 227 221 212 199 183 186 180 179 175 184 196 199 199 199 199 192 186 177 183 185 171 180 187 188 186
237 232 226 235 251 228 249 256 259 254 268 262 274 274 273 266 226 218 83 225 219 208 187 183 179 177 176 184 194 202 203 200 199 190 175 187 183 164 177 185 189 181 177 141
237 230 233 233 240 233 254 245 240 255 265 260 267 262 258 224 219 217 225 221 212 189 185 178 177 174 184 193 204 198 196 195 187 186 181 178 174 182 171 149 147 192 180 203
229 229 227 221 230 232 239 226 247 256 268 245 256 242 214 220 222 116 213 212 187 180 177 178 179 184 193 198 197 193 184 183 182 185 174 180 185 185 152 176 155 197 208 243
241 238 232 226 229 237 240 233 241 243 184 243 224 217 211 226 226 218 212 181 176 175 177 175 185 193 199 196 193 186 185 186 177 182 184 172 191 186 187 167 204 225 258 215
238 224 222 231 234 233 247 234 246 253 268 223 219 209 223 223 216 188 180 178 176 179 180 189 193 190 161 180 188 185 178 181 183 187 185 129 174 190 200 214 252 210 140 210
223 217 235 249 242 252 233 245 252 248 215 205 213 221 218 204 185 182 176 179 180 183 190 190 182 183 183 181 178 180 184 186 182 188 191 190 168 209 236 249 170 141 273 242
226 232 223 232 209 248 249 263 269 208 213 215 221 219 190 182 176 179 180 182 184 185 184 183 185 178 180 181 163 188 181 185 164 191 200 204 231 258 163 135 235 284 214 169
227 216 230 227 234 245 209 266 212 211 221 227 189 182 177 177 175 172 171 184 179 178 181 177 181 182 185 185 171 188 191 190 201 200 225 256 222 134 135 142 227 202 200 185
232 218 207 218 209 227 211 219 223 222 217 186 184 171 170 172 170 171 178 180 183 181 180 175 162 168 178 187 179 190 201 202 238 254 224 148 135 134 142 143 201 197 187 177
237 226 197 219 222 218 240 236 225 209 180 181 181 177 173 178 178 181 183 176 183 137 123 183 188 187 134 193 150 175 247 245 224 206 315 134 134 139 143 200 191 179 189 202
244 244 246 256 245 245 239 207 189 184 180 182 184 186 187 188 187 183 182 183 186 187 186 184 191 198 203 235 245 236 220 209 263 291 233 131 136 139 187 195 194 205 206 219
283 282 284 290 243 276 216 203 191 191 192 191 189 192 192 190 188 187 183 182 181 191 196 203 203 243 238 225 213 211 266 266 314 147 131 134 138 200 162 201 204 211 220 234
199 200 259 271 274 281 246 208 203 199 194 191 186 194 183 184 186 191 194 198 213 247 242 236 231 223 201 222 242 264 270 207 139 133 134 174 180 191 198 203 208 214 230 277
235 240 221 199 199 213 228 267 248 223 218 214 210 209 224 225 244 241 236 234 231 226 210 195 204 224 240 260 257 256 149 133 136 166 199 179 199 201 206 211 217 235 283 296
201 206 211 215 220 222 223 226 229 230 230 229 229 228 226 225 222 216 211 208 196 199 210 232 237 258 255 266 178 143 138 136 201 190 191 199 203 205 211 221 240 289 299 327
196 191 190 190 190 190 192 195 196 195 193 188 189 189 189 191 193 202 226 234 236 236 234 255 262 243 126 203 207 137 200 196 194 195 199 204 204 217 225 248 287 297 322 358
237 217 202 199 201 201 203 201 199 205 205 206 226 235 234 232 232 232 230 232 252 251 346 331 270 206 207 202 199 198 194 196 198 199 207 206 234 224 254 284 298 301 370 477
227 231 218 225 226 226 225 224 224 226 230 227 222 223 229 230 236 244 251 260 318 192 233 173 199 204 201 200 198 196 193 198 199 209 213 226 230 255 282 298 300 359 477 475
224 225 225 224 224 225 225 224 220 222 216 223 227 234 237 245 257 296 249 286 219 206 208 207 205 203 199 199 200 194 200 203 204 222 222 236 254 278 298 311 358 476 469 551
224 223 222 219 222 224 228 227 225 224 233 232 238 253 294 299 287 264 208 202 194 184 198 199 202 198 199 194 198 200 202 206 226 224 237 258 280 295 316 353 473 449 521 513
233 225 224 228 228 229 230 234 234 233 242 283 274 266 255 244 234 181 199 193 199 201 198 202 200 195 195 198 209 161 220 225 229 240 261 291 294 317 356 472 446 508 507 486
218 181 187 189 191 203 237 244 272 276 257 246 227 211 220 201 199 200 201 199 197 202 198 193 197 197 160 207 213 218 229 234 242 275 291 294 304 353 471 445 497 499 485 414
256 273 276 271 272 270 251 240 236 233 232 230 221 216 206 203 202 205 142 204 193 187 198 196 204 208 206 218 219 228 239 243 288 292 295 307 362 467 449 497 489 484 455 368
152 153 154 207 218 216 217 217 217 216 215 134 208 204 205 204 202 196 193 193 200 199 202 205 207 213 218 218 231 240 249 286 291 301 318 431 465 446 498 485 493 573 376 334
204 208 210 212 212 213 213 212 211 210 209 208 209 211 211 204 195 195 196 198 207 204 215 206 216 219 223 236 267 279 283 291 301 338 495 461 444 492 488 540 552 382 340 312
210 209 207 207 207 211 211 211 210 208 208 207 204 205 210 209 209 210 213 199 205 206 214 221 224 241 243 277 280 282 292 300 365 491 453 445 482 489 425 462 423 341 315 304

GFSNGP_2pvu_pres_036.txt.gz
Presure
238 250 151 234 249 267 269 341 336 318 296 295 285 294 280 272 267 265 258 249 249 253 262 228 218 228 219 212 198 187 183 176 180 182 178 175 194 201 202 202 193 190 182 183
229 225 236 235 246 232 261 282 310 307 303 299 303 302 303 217 294 268 287 293 294 261 239 223 207 226 214 202 187 180 176 174 178 177 175 194 203 201 197 197 183 185 182 186
221 230 246 223 236 252 243 248 265 280 294 305 295 297 301 286 259 262 266 290 150 270 229 221 230 216 203 191 186 181 178 178 177 178 191 202 198 198 184 186 186 184 184 142
219 228 230 234 228 234 239 227 249 268 266 270 281 280 275 267 266 262 274 300 269 228 216 226 215 203 193 187 179 179 177 176 182 191 199 200 189 187 186 182 187 127 173 193
227 233 228 238 218 226 234 243 251 242 255 255 262 274 261 268 263 262 266 277 218 219 224 215 204 193 183 180 178 173 178 183 191 198 187 183 187 181 184 189 188 194 194 204
243 213 226 213 230 217 191 232 254 251 240 243 246 248 253 269 266 249 218 202 217 216 211 203 192 187 183 175 178 180 183 192 189 173 186 182 182 188 186 196 191 206 210 172
225 220 221 226 222 225 226 223 241 249 206 187 253 248 248 237 210 208 213 216 218 208 199 188 181 177 177 177 182 187 189 181 183 180 181 187 153 191 192 199 206 227 205 139
220 208 190 242 228 230 239 237 241 250 242 265 222 213 203 210 210 216 215 212 208 186 181 169 174 177 180 186 188 183 184 180 181 163 186 190 193 198 206 220 256 227 136 143
226 226 226 177 243 232 255 258 260 255 243 217 208 207 212 219 219 215 208 189 187 171 175 181 182 180 173 182 182 178 133 184 186 121 136 141 206 217 251 236 255 132 149 141
214 225 229 228 245 226 234 243 298 270 203 206 211 215 223 219 208 186 177 174 175 179 178 174 179 176 178 183 180 184 186 191 147 193 205 213 252 241 208 210 274 140 141 144
236 210 208 203 227 182 186 223 235 210 212 217 218 228 204 183 179 177 177 174 170 174 179 181 182 183 147 184 188 190 190 194 204 220 250 240 204 257 297 247 141 142 176 198
224 209 210 202 219 222 225 185 224 236 229 223 213 187 184 184 176 173 177 177 180 180 182 169 183 186 190 188 188 198 204 209 247 242 207 236 266 306 164 142 201 201 200 202
265 255 241 237 255 239 223 233 245 242 227 212 179 180 182 182 179 180 184 185 185 183 126 190 188 183 195 201 204 212 239 239 201 204 255 264 201 137 187 202 202 165 206 211
264 274 277 284 279 235 243 237 232 203 191 188 187 188 188 189 189 189 189 188 188 188 185 193 198 202 213 236 238 228 194 211 250 267 264 150 162 191 199 197 190 204 211 212
232 199 204 238 261 270 281 227 224 214 194 192 191 190 189 188 187 187 190 192 196 198 202 218 233 234 228 207 196 243 257 293 300 265 181 192 191 201 179 201 208 212 218 228
221 219 240 228 189 191 209 250 248 249 245 201 199 199 199 200 202 204 206 224 226 232 231 224 200 194 231 244 255 302 273 256 210 201 195 201 202 184 203 209 215 224 234 304
204 206 207 208 207 212 215 219 222 227 230 230 231 231 230 229 230 230 227 213 192 193 193 205 240 243 252 267 270 252 215 209 203 204 204 199 194 203 213 217 227 208 303 303
197 201 198 198 198 197 197 196 197 196 195 196 199 196 194 191 191 191 205 206 235 236 237 245 299 308 231 256 215 206 157 203 203 204 196 203 204 213 225 233 233 301 301 303
207 208 205 201 202 205 206 199 198 195 206 213 213 211 227 234 234 229 230 233 242 271 302 288 266 255 213 201 188 193 200 203 201 176 204 205 214 227 240 277 301 303 299 487
230 227 230 231 233 226 222 223 223 225 225 226 228 226 225 227 230 235 243 291 279 264 255 249 213 200 192 194 201 202 203 200 208 205 215 220 226 245 292 300 304 294 482 444
224 225 224 224 222 221 221 223 225 229 230 226 227 231 233 236 240 282 266 256 243 235 226 205 198 198 200 203 202 208 204 205 212 216 216 234 249 292 301 306 300 476 434 509
233 233 233 234 234 228 225 226 229 230 232 232 233 232 237 259 268 251 239 169 223 217 202 202 170 202 208 208 205 205 204 217 215 225 245 257 295 299 307 299 474 433 501 497
216 218 216 235 280 297 270 204 238 217 206 238 242 256 267 244 234 227 218 214 212 210 208 201 205 205 196 203 200 207 220 217 229 263 290 299 300 304 300 474 429 499 485 460
201 204 203 221 229 188 187 190 191 192 249 273 236 218 215 214 213 212 209 205 203 203 206 204 205 204 202 217 208 218 225 247 287 292 295 299 297 309 478 425 496 480 597 369
210 209 211 200 198 200 211 216 216 210 215 215 214 213 211 206 147 205 205 208 212 212 209 201 213 217 207 214 223 239 272 290 289 299 300 297 467 484 428 500 540 404 380 343
201 203 176 154 176 203 203 204 206 206 207 206 205 206 206 206 208 210 209 211 214 216 214 197 206 214 223 249 271 274 290 293 302 293 347 477 520 427 502 599 347 409 349 327
202 191 193 203 208 209 210 210 210 209 210 212 210 209 209 209 210 212 209 210 210 208 205 213 225 239 254 287 293 292 293 312 324 332 484 505 466 498 656 344 550 355 330 309

GFSNGP_2pvu_pres_039.txt.gz
Presure
228 223 251 239 238 232 242 277 293 316 329 344 325 334 341 82 309 84 240 239 227 223 219 200 244 239 245 257 222 222 215 223 219 211 201 194 183 180 185 175 181 182 188 200
225 242 231 227 237 242 239 260 319 298 319 322 321 321 315 314 305 285 231 224 227 215 218 242 241 239 245 264 223 219 220 218 214 208 200 192 188 178 174 177 181 188 198 203
241 230 240 223 250 234 256 255 261 301 299 230 300 297 293 301 284 250 261 255 240 239 236 244 240 243 250 261 219 211 222 221 211 203 197 186 177 178 179 180 190 197 201 188
234 228 237 216 228 242 232 245 251 259 288 291 289 288 291 272 273 258 258 221 254 255 241 245 239 252 256 223 213 220 217 211 202 197 187 181 182 177 179 190 196 192 184 188
212 219 232 219 238 237 227 242 240 254 262 268 297 281 286 259 248 244 232 267 253 259 257 251 198 262 266 210 219 216 210 204 195 188 182 180 175 183 190 192 189 188 142 184
227 220 216 218 221 230 232 236 227 247 248 257 254 261 258 251 259 266 266 250 282 285 287 263 264 259 210 224 214 207 203 193 185 180 179 179 185 190 191 183 180 185 191 193
232 217 217 210 220 227 223 226 232 238 232 242 240 242 248 267 254 253 250 261 264 264 259 240 207 220 217 212 205 198 187 176 180 178 182 189 191 183 183 164 149 174 198 211
227 221 213 225 234 227 217 231 230 235 228 237 242 243 244 247 252 256 246 249 224 204 208 216 216 213 208 200 189 184 180 179 182 186 188 175 183 185 188 192 195 207 225 253
215 213 219 179 236 234 242 233 230 230 232 252 240 240 241 240 232 210 204 207 211 217 215 212 206 198 188 179 178 179 181 186 182 180 182 184 187 191 193 204 214 266 255 217
173 229 228 224 239 236 242 255 247 241 232 224 210 208 205 210 213 217 219 215 214 211 204 189 180 179 176 177 183 184 121 128 185 186 188 191 192 201 211 234 250 209 215 207
227 228 216 220 246 208 214 253 266 271 228 202 204 209 212 214 218 216 213 205 193 184 185 179 175 175 175 181 184 186 185 187 188 191 191 200 210 226 257 206 237 277 152 203
240 238 209 200 222 207 210 221 226 206 210 208 211 212 215 217 213 191 185 185 176 170 171 172 175 182 185 181 185 187 186 192 191 201 210 223 249 204 248 309 199 206 212 204
225 220 212 216 216 212 228 214 220 229 212 214 217 212 220 213 182 181 180 179 183 178 178 175 181 187 188 185 191 191 196 201 212 222 245 204 251 300 269 238 203 206 210 205
266 267 267 246 233 245 236 234 218 236 232 231 220 217 192 183 181 176 182 174 179 184 188 189 190 191 190 195 200 205 212 246 235 202 249 263 285 250 182 207 192 202 199 211
263 262 272 263 269 276 240 237 233 231 226 219 209 202 191 187 185 187 187 190 191 159 190 194 198 200 206 211 229 232 216 210 247 281 294 262 226 204 197 202 205 206 211 211
235 197 214 215 251 262 264 263 265 239 224 219 201 198 196 195 196 196 196 196 199 200 200 202 208 232 230 203 200 233 243 142 288 261 234 208 195 200 204 190 203 210 218 220
208 222 224 218 218 221 224 203 241 237 242 244 244 245 244 213 210 209 208 230 224 224 222 221 194 196 237 239 273 293 275 251 239 214 202 195 168 204 206 211 210 225 226 308
212 210 212 209 212 212 211 212 212 214 219 220 218 225 224 220 217 213 208 194 193 192 206 235 230 237 288 274 254 244 235 215 203 199 198 200 207 211 207 224 220 278 308 315
192 192 191 189 191 194 195 196 197 198 197 194 195 196 198 194 193 212 226 231 228 227 232 246 280 262 241 238 234 225 212 167 191 199 207 211 206 218 222 253 305 309 317 307
202 201 200 201 199 201 205 201 202 217 223 222 222 222 225 227 228 228 225 226 228 243 281 259 236 230 227 223 221 217 191 199 208 208 205 194 223 222 297 307 306 315 332 474
239 225 228 231 229 230 227 226 225 224 227 228 226 225 225 223 224 226 227 243 264 271 235 227 224 218 216 213 212 211 210 206 210 214 185 218 250 302 304 303 305 330 472 514
227 223 223 222 221 223 227 232 237 243 247 244 236 232 228 231 229 239 250 250 228 223 217 209 216 214 208 205 208 205 213 215 209 217 232 271 298 297 304 307 391 521 481 503
230 231 232 233 234 228 224 226 225 231 256 307 297 284 241 264 207 252 217 216 215 214 157 186 205 205 208 211 212 216 220 210 232 255 294 299 303 305 312 471 512 480 516 555
205 203 212 215 219 217 214 215 211 205 215 183 186 204 222 216 213 216 215 211 207 179 207 206 207 209 214 214 214 212 228 255 282 298 306 296 303 319 505 501 509 519 658 375
209 211 213 214 208 200 202 204 195 196 197 200 153 153 202 211 206 206 207 208 207 209 209 207 210 212 212 211 230 253 263 292 286 293 305 288 303 503 482 515 654 701 345 366
200 204 202 201 202 203 196 155 152 175 199 206 203 204 205 206 206 206 205 209 208 207 206 208 206 221 233 247 257 277 290 278 298 298 296 332 515 463 522 670 424 339 373 336
206 208 210 209 209 209 206 200 200 202 200 198 206 207 209 209 207 203 201 202 201 210 221 226 232 244 255 268 286 279 303 294 293 314 337 486 456 598 670 411 337 376 338 311

GFSNGP_2pvu_pres_042.txt.gz
Presure
258 252 244 226 255 238 243 260 301 283 293 324 314 320 327 329 343 404 446 104 203 266 245 234 238 221 217 207 207 234 237 236 244 227 218 216 215 223 221 214 209 206 200 192
248 238 204 247 246 234 235 259 272 277 298 305 310 317 328 356 387 369 277 273 81 260 245 235 232 212 204 216 218 236 237 239 246 229 217 214 212 217 217 210 208 204 201 191
179 218 163 240 226 233 237 250 221 288 278 276 283 290 300 318 325 338 248 265 261 199 250 245 213 223 215 220 221 237 235 237 244 229 217 212 210 218 214 210 206 201 195 186
238 221 222 224 236 225 227 239 262 264 272 281 251 245 272 286 300 280 234 186 245 247 234 232 221 215 216 214 225 233 234 238 248 229 216 207 220 213 209 207 202 196 184 176
192 221 216 217 216 227 223 233 243 260 276 272 240 231 238 259 269 265 223 225 223 227 222 223 220 220 226 236 226 226 237 242 253 216 206 220 215 211 205 201 187 177 186 182
195 230 216 215 215 216 220 231 227 242 250 290 255 242 215 194 244 254 253 231 184 223 216 216 216 229 225 236 238 230 246 251 215 204 220 214 209 202 201 189 186 183 187 192
223 222 220 221 217 228 215 207 223 230 240 241 247 248 229 227 232 231 268 252 256 248 252 246 239 241 240 243 243 251 242 205 200 216 212 205 204 191 185 182 184 190 182 186
220 233 217 229 234 231 229 226 223 225 229 250 242 244 252 245 244 248 253 261 274 275 280 285 284 272 257 256 227 204 206 215 211 206 204 191 184 180 183 187 182 186 190 192
226 225 219 232 224 239 227 237 229 229 224 233 236 230 235 247 245 244 238 247 256 258 249 251 246 211 204 217 217 213 210 207 202 188 179 181 167 187 190 185 189 186 194 202
224 226 230 229 224 243 242 237 222 236 239 228 233 223 230 228 228 220 216 213 206 204 204 204 211 213 212 210 207 205 193 173 179 181 182 189 188 184 189 191 193 200 214 215
231 233 220 234 240 176 237 256 230 265 226 212 213 209 209 210 209 208 206 207 212 214 212 211 211 209 204 187 172 176 182 180 183 188 184 186 190 190 194 201 214 182 205 245
238 220 224 226 237 243 229 246 246 231 219 211 204 204 210 212 217 220 220 216 213 211 205 200 188 179 181 177 174 178 186 186 188 189 189 189 196 204 219 212 201 245 285 263
221 222 226 221 202 209 209 222 255 203 207 249 209 212 213 215 215 215 215 214 200 184 180 179 177 172 179 184 185 189 190 190 184 192 198 211 221 204 217 270 281 260 246 228
236 208 203 209 212 207 211 215 221 219 214 216 218 223 215 224 222 218 183 183 185 182 183 183 184 188 190 189 189 187 192 198 206 211 225 212 242 288 270 252 242 230 218 207
257 259 264 257 257 235 245 236 229 236 230 229 219 213 215 218 201 191 191 189 190 190 190 189 188 190 190 193 199 201 203 217 219 220 266 274 256 245 236 229 220 208 204 213
251 251 263 275 254 258 237 231 236 237 230 221 222 221 219 216 213 195 190 187 186 187 189 193 197 199 198 204 218 231 205 251 276 259 246 238 235 227 219 189 209 213 221 222
183 225 200 200 202 244 251 264 262 264 228 258 228 220 219 218 212 202 200 203 208 208 211 217 224 225 213 205 207 286 269 253 164 238 234 198 223 221 220 218 219 223 223 235
214 220 205 222 222 220 214 213 220 228 233 231 230 236 235 229 237 233 233 227 219 205 194 195 201 214 234 265 273 251 240 233 229 223 219 215 186 217 219 221 223 247 312 308
221 209 212 212 211 210 209 198 198 199 200 204 200 199 197 195 193 193 194 193 194 213 230 229 228 236 271 246 239 231 228 220 181 217 216 213 216 218 218 235 298 306 308 329
201 200 197 193 191 191 191 193 193 193 194 194 194 193 215 226 227 226 231 232 230 227 227 225 241 249 235 228 224 216 216 208 208 208 214 213 222 233 272 301 299 306 317 409
200 209 200 199 203 241 212 208 209 211 223 226 226 225 226 229 232 235 229 231 229 228 200 253 238 224 215 193 183 211 208 209 207 151 214 234 263 285 296 298 323 314 404 502
222 222 223 222 228 225 228 232 231 224 223 231 241 233 234 238 256 294 294 288 249 276 207 207 211 216 215 211 209 206 209 210 174 217 241 272 289 296 298 303 294 505 504 516
229 229 228 230 228 224 220 220 224 232 234 228 223 215 215 212 212 189 187 187 215 213 213 214 209 207 208 204 206 210 186 217 230 247 283 289 292 293 297 317 518 502 545 663
225 224 225 226 227 227 232 242 245 221 212 213 214 205 204 203 191 172 203 207 207 205 201 208 207 205 209 211 205 211 223 232 275 282 287 287 293 288 343 509 516 670 705 530
233 232 233 235 234 236 210 214 210 206 200 195 200 204 194 165 205 204 205 203 206 207 203 204 209 210 198 206 227 232 274 274 282 283 278 291 277 349 536 531 681 705 339 379
207 212 205 206 207 205 203 205 207 204 203 202 202 203 204 202 201 202 201 197 194 206 210 208 209 226 221 237 231 273 276 279 282 272 282 272 352 689 658 679 698 333 381 347
206 207 206 203 199 194 191 192 197 201 204 206 207 201 196 196 191 193 202 198 151 199 222 222 230 245 247 263 271 277 278 278 270 283 302 348 614 658 668 570 339 378 342 314

GFSNGP_2pvu_pres_045.txt.gz
Presure
199 212 218 256 256 255 211 239 250 280 278 284 303 317 327 327 332 329 347 373 377 401 82 205 279 104 282 255 233 231 228 217 211 218 216 214 241 244 249 235 224 220 217 217
216 242 236 262 238 158 236 232 248 260 258 263 289 311 318 336 343 352 364 366 265 397 302 280 270 281 255 237 233 229 224 216 210 196 216 234 240 234 242 236 224 218 212 215
236 255 252 218 194 226 226 235 259 247 259 243 261 293 303 345 374 397 397 394 308 282 270 129 268 249 210 233 231 223 225 217 209 209 218 229 237 234 242 239 224 216 211 207
176 244 216 195 228 228 226 227 252 268 244 242 241 257 281 265 265 268 272 269 274 271 260 250 239 234 227 230 227 217 211 206 204 220 215 236 234 234 240 240 221 214 210 206
188 240 217 227 227 225 227 217 241 258 234 233 230 248 226 241 243 258 263 262 259 252 245 239 232 228 228 221 222 215 215 216 216 208 227 233 232 236 239 238 217 211 218 217
193 223 221 221 207 217 227 215 235 242 231 200 240 235 247 228 229 234 232 241 240 198 238 236 228 215 226 222 211 209 213 220 226 227 236 232 236 240 241 214 207 218 216 213
233 172 233 228 220 224 216 231 217 239 229 236 229 220 248 240 248 223 229 231 232 234 234 228 223 219 219 208 206 219 221 236 241 232 244 244 241 214 205 209 214 212 209 193
161 225 213 218 230 224 226 220 230 225 240 241 235 229 236 243 243 256 234 225 221 214 214 215 213 212 218 228 235 242 246 188 245 248 225 207 203 210 213 210 203 180 183 190
207 227 237 227 230 223 243 227 229 232 252 230 234 238 251 237 236 242 256 254 240 263 272 266 250 250 288 287 291 253 238 215 207 199 208 214 212 208 180 179 188 190 188 190
208 237 226 231 219 224 243 215 251 234 225 234 227 226 233 232 233 235 236 238 256 250 250 258 257 248 238 214 210 208 205 210 212 212 205 181 182 189 190 189 189 190 191 194
250 230 230 236 196 233 242 228 244 239 247 255 221 224 223 221 221 223 223 221 217 213 212 211 208 203 203 207 211 211 210 196 177 176 185 190 189 187 191 190 192 196 204 213
228 230 234 236 227 210 221 234 247 225 212 207 205 207 208 210 208 209 207 203 202 203 205 207 208 209 211 208 190 175 179 186 188 188 187 189 190 192 195 200 208 210 215 264
234 223 235 231 240 216 241 240 246 252 220 204 202 202 207 210 214 218 218 217 217 216 214 212 183 184 189 190 188 187 187 185 189 191 191 194 200 204 207 206 230 265 261 244
234 224 243 222 214 223 211 207 218 219 208 205 209 211 212 215 216 215 215 214 215 204 204 184 184 184 184 187 188 188 190 191 194 199 203 204 215 211 248 263 252 158 232 223
210 214 208 209 215 213 217 210 211 211 220 220 219 219 218 228 219 219 221 221 218 192 189 185 185 186 188 190 194 196 198 201 205 212 213 231 266 258 248 233 229 227 223 184
244 241 252 255 247 256 268 253 244 241 229 228 231 229 225 224 222 222 219 215 210 201 195 195 197 199 201 202 203 208 211 208 209 241 268 253 233 227 221 210 222 205 216 223
252 248 245 256 251 247 256 256 251 246 239 265 235 231 227 221 214 214 213 211 210 212 214 216 218 219 218 202 203 205 215 236 254 250 238 228 218 223 208 180 215 219 216 237
237 244 203 241 203 241 204 198 200 217 223 211 256 252 243 239 232 227 224 223 209 209 206 202 198 202 205 210 223 234 235 267 243 227 221 181 220 220 142 211 164 229 269 303
241 219 227 209 219 220 212 220 220 219 212 212 213 212 211 210 201 197 194 196 199 201 210 223 230 230 235 236 233 234 258 226 216 211 219 217 210 179 202 224 198 292 304 305
202 216 212 225 200 208 218 201 199 194 193 193 193 194 198 201 203 205 211 223 229 237 274 290 287 237 235 199 195 222 214 214 217 210 209 217 210 221 172 286 289 300 299 319
220 210 213 211 194 195 197 198 198 194 204 205 207 202 206 229 231 230 241 241 237 236 240 243 242 191 192 215 214 212 205 207 210 215 210 213 215 158 280 290 302 295 317 522
204 201 202 200 200 202 210 221 224 237 229 222 225 228 228 224 241 228 227 226 219 215 210 189 191 207 205 206 198 207 211 210 213 205 234 261 273 286 287 301 289 317 551 580
203 203 218 232 220 223 226 225 224 224 223 219 217 219 232 229 227 210 211 215 206 185 201 195 204 206 207 207 207 206 212 207 218 238 274 284 278 288 297 312 327 682 670 704
224 225 221 221 222 222 222 222 220 217 215 225 225 243 224 212 211 212 208 155 203 203 205 206 204 203 196 205 213 207 221 223 255 267 269 280 288 295 313 328 666 685 706 365
222 174 213 222 223 223 221 219 222 223 227 241 233 216 205 205 203 203 203 205 205 207 208 204 197 143 197 171 214 223 229 265 266 266 280 285 287 306 329 676 687 643 337 389
228 229 230 230 230 232 233 235 234 235 224 208 184 208 208 210 207 201 198 196 210 205 201 191 205 202 213 223 219 240 261 271 264 280 284 287 296 293 670 676 684 381 379 336
193 195 195 203 178 206 206 207 213 207 192 196 197 195 191 194 201 206 208 186 200 205 180 206 212 206 222 221 247 254 266 273 274 291 243 291 308 334 645 491 397 363 326 311

GFSNGP_2pvu_pres_048.txt.gz
Presure
223 219 218 212 209 222 255 246 248 242 167 247 238 273 279 95 219 96 313 361 348 327 358 302 135 182 305 140 275 287 303 254 251 226 219 220 224 228 224 219 216 214 215 234
215 216 217 211 258 223 235 237 233 244 265 230 262 242 259 292 390 382 361 366 361 384 366 338 325 303 307 305 289 280 285 262 243 233 220 218 228 223 215 185 204 205 221 234
210 217 224 247 247 236 233 224 241 255 261 226 241 243 244 262 272 292 385 406 411 400 350 298 307 321 346 317 286 275 264 249 235 216 219 226 226 215 213 205 215 211 233 237
221 219 236 234 243 228 180 227 238 244 231 252 232 223 232 233 257 265 270 270 273 279 283 282 283 283 281 276 265 254 247 235 229 218 224 191 218 210 204 216 211 224 237 231
211 230 245 229 232 227 222 222 226 238 257 227 238 246 235 223 240 247 250 252 257 259 259 257 258 256 251 246 240 233 226 221 222 222 208 211 203 211 216 206 235 238 240 237
213 255 214 209 233 227 214 217 228 240 231 226 233 245 218 225 229 217 237 241 239 240 237 236 234 232 230 228 225 224 224 220 220 220 211 217 209 230 229 233 229 239 240 223
260 227 227 213 227 213 223 222 213 221 234 232 221 234 247 249 234 238 238 239 236 237 228 236 226 225 223 225 161 215 215 215 210 216 209 215 226 242 236 244 238 215 209 204
249 231 224 230 226 231 225 218 235 212 262 243 242 225 212 242 258 223 228 227 227 229 228 222 214 219 214 216 225 218 201 204 206 208 217 234 241 236 217 208 204 208 213 212
252 157 202 220 222 231 226 223 221 223 249 239 244 246 248 233 236 256 250 236 224 214 216 206 208 206 206 205 210 212 211 218 235 244 245 219 209 201 207 212 210 192 188 184
251 240 223 237 230 222 228 239 225 234 224 231 236 240 238 233 239 237 240 244 253 247 248 246 235 228 228 237 251 257 258 242 217 209 204 207 177 205 188 185 183 185 192 196
251 190 227 233 233 220 224 245 222 237 242 229 240 228 226 235 233 236 236 235 237 239 246 256 258 251 245 225 215 208 204 204 197 191 184 188 184 182 185 190 194 198 203 206
245 236 251 249 232 226 227 188 222 237 216 134 202 205 206 209 207 207 206 211 209 210 210 209 208 206 206 207 206 207 208 208 197 183 183 187 190 192 198 201 206 206 216 216
250 254 220 243 228 243 230 231 232 241 246 209 203 198 205 210 211 213 215 216 213 214 217 217 215 215 212 183 183 182 183 184 187 188 191 196 201 203 209 207 216 218 256 251
245 235 232 235 261 233 218 220 222 244 235 206 203 203 207 212 215 217 218 219 219 217 215 213 194 181 183 182 185 187 187 189 193 200 203 207 208 216 215 226 255 247 237 227
205 235 242 223 233 209 222 208 206 208 212 228 213 212 212 215 213 215 220 219 219 220 219 214 201 192 189 189 192 195 200 203 206 210 207 213 217 227 236 250 237 138 222 218
196 237 222 229 208 209 211 259 257 231 238 218 222 225 235 224 221 218 218 220 219 220 220 218 199 197 200 204 209 215 217 206 205 215 223 229 233 249 242 223 218 216 221 220
243 207 244 234 235 241 251 251 261 254 252 244 260 242 242 234 233 230 225 214 214 216 232 234 232 223 215 206 201 202 217 228 233 231 233 234 250 219 133 214 214 222 216 231
240 212 235 251 234 244 245 245 249 257 238 200 211 249 243 212 208 233 218 219 217 213 209 203 197 201 209 233 265 278 269 264 243 199 247 224 213 210 210 219 214 225 255 288
231 214 250 204 193 193 212 237 234 226 224 228 223 215 212 199 194 193 194 195 198 200 204 214 224 243 242 237 231 233 237 205 192 215 211 206 206 212 215 221 236 287 288 307
240 262 226 207 241 236 233 229 203 218 220 203 200 193 194 194 199 203 204 205 224 231 227 235 232 222 226 227 219 213 191 203 208 208 210 210 217 215 229 247 291 291 316 321
258 240 214 241 200 201 207 221 195 193 197 200 201 203 203 219 220 222 220 225 224 232 234 224 225 221 213 153 187 203 205 209 209 205 217 211 226 229 255 294 289 309 329 396
235 233 208 221 199 208 197 202 202 200 200 201 210 221 233 226 224 223 224 219 232 231 229 214 214 164 201 203 205 209 212 206 203 216 214 226 229 257 290 284 304 326 525 696
216 201 203 203 203 203 203 201 204 201 223 219 224 225 225 221 218 220 223 230 243 219 213 209 185 200 204 206 202 213 210 205 207 218 224 232 256 280 282 303 302 324 710 374
212 202 205 205 204 203 202 210 213 227 224 225 224 224 218 218 219 224 232 243 222 150 206 205 205 207 198 200 213 210 203 217 220 224 232 249 269 283 252 285 322 707 463 405
200 204 206 206 210 230 218 224 227 224 222 223 222 217 220 220 223 233 238 213 210 208 207 210 202 202 206 207 213 204 217 222 226 236 249 277 278 280 282 319 458 428 394 350
233 232 229 230 227 225 226 226 224 201 182 182 222 223 226 229 232 229 208 205 202 195 194 196 203 208 181 203 213 218 222 227 230 242 278 271 302 258 288 322 436 394 348 322
227 213 224 227 227 225 224 225 225 226 225 224 224 239 225 208 205 207 196 200 201 202 204 149 207 202 205 218 216 224 225 232 257 270 272 291 277 260 328 380 406 362 331 310

GFSNGP_2pvu_pres_051.txt.gz
Presure
261 257 257 256 247 240 231 223 216 228 258 246 269 261 197 260 238 273 155 428 390 363 353 366 357 347 351 337 222 129 130 180 265 267 252 217 282 215 207 208 209 214 217 222
248 251 240 227 221 214 209 245 240 236 245 228 250 257 256 251 265 278 287 439 408 417 372 364 368 366 376 305 207 136 323 331 263 274 264 291 262 227 151 207 208 222 214 220
229 219 218 207 216 226 242 237 219 244 230 237 253 256 228 223 247 264 258 282 309 327 318 349 336 324 327 316 314 317 307 318 282 264 284 269 240 232 226 219 212 210 220 222
212 214 215 245 246 242 229 235 229 236 250 224 251 235 238 242 214 246 254 250 270 279 286 294 306 306 284 277 279 279 276 267 273 276 245 235 227 225 191 215 216 221 219 214
210 222 250 234 230 236 233 226 210 230 248 232 219 224 231 228 225 245 243 245 246 240 239 262 267 266 267 269 267 259 258 243 242 227 232 223 221 219 217 219 226 203 209 211
206 221 249 186 171 235 220 222 223 232 221 241 236 234 230 230 202 236 233 236 234 239 237 240 240 239 238 240 235 219 234 229 229 226 223 220 221 222 223 206 213 205 216 229
220 243 235 248 240 217 202 233 218 242 217 223 240 222 236 262 236 234 238 227 227 222 222 220 219 221 225 224 223 225 216 213 215 220 224 222 221 220 206 207 215 234 244 241
218 253 231 250 229 234 229 218 218 227 223 224 248 250 238 238 233 229 230 233 230 225 225 219 227 227 223 223 226 220 215 216 199 208 216 209 213 219 234 237 240 218 207 208
215 196 231 237 226 221 241 238 219 222 225 221 232 241 243 227 249 247 213 214 217 228 257 241 233 245 245 220 247 200 229 223 207 215 224 227 227 228 230 206 203 176 174 181
224 251 229 215 234 227 235 229 224 234 231 229 234 238 244 232 235 237 251 242 234 221 217 224 225 224 222 223 219 222 223 223 224 229 233 232 207 201 189 174 180 185 189 191
215 257 249 186 231 226 227 217 244 225 230 234 235 240 235 233 235 237 237 239 248 249 261 241 232 228 230 233 232 233 237 230 220 202 186 177 179 180 185 187 189 196 203 208
242 247 203 237 229 250 221 228 235 231 236 235 204 202 202 209 211 211 207 212 210 227 231 237 237 236 220 220 202 185 180 181 179 180 182 184 186 190 196 202 208 208 214 222
251 255 253 240 234 229 211 227 233 232 241 244 211 210 209 211 214 212 213 215 218 218 216 215 214 214 175 208 181 184 182 182 185 187 189 194 200 207 211 206 209 223 228 236
255 181 252 220 239 237 236 228 228 235 239 239 210 204 203 205 206 211 211 214 219 217 216 216 217 216 212 204 197 192 190 193 200 202 207 213 213 203 207 225 230 235 238 230
251 241 240 232 231 246 231 221 219 208 211 219 224 231 215 214 212 212 215 219 218 208 219 220 219 211 202 201 201 203 205 210 215 212 203 214 226 232 236 244 231 227 204 173
251 253 238 189 225 235 235 212 206 205 209 212 218 221 225 229 230 236 228 228 222 217 217 212 212 212 211 227 223 217 203 199 228 268 288 293 284 257 233 210 205 208 164 214
269 247 218 245 258 232 214 207 255 246 267 243 256 245 246 237 239 231 231 226 247 242 233 230 221 217 205 197 195 201 235 237 231 225 228 223 188 205 203 205 206 213 220 238
233 226 200 235 228 196 237 250 250 246 243 243 261 199 201 197 252 235 229 215 211 198 193 195 198 206 212 226 228 236 226 224 228 219 213 206 206 208 212 203 217 228 237 259
211 236 221 221 259 243 210 188 233 243 244 221 228 224 225 221 210 203 194 193 196 201 204 211 212 222 225 226 234 226 224 220 208 175 205 206 210 213 208 221 233 237 242 295
234 243 222 181 255 249 237 228 194 242 237 201 205 205 203 201 199 201 203 202 203 217 224 225 226 217 224 233 228 226 214 154 198 210 201 210 210 212 223 231 236 236 282 331
239 225 188 206 207 261 242 237 206 201 211 222 208 194 200 200 201 204 204 220 226 225 220 215 218 222 247 231 218 157 156 204 210 204 213 205 191 221 230 237 231 274 315 324
217 200 204 214 257 252 210 222 234 212 204 201 202 201 205 202 207 222 217 221 225 222 216 224 224 241 238 222 170 209 205 212 206 212 139 215 222 227 235 225 277 284 301 351
224 229 237 236 243 241 235 208 205 204 204 205 204 201 204 210 222 223 224 226 220 220 217 221 228 239 151 216 206 207 205 209 208 180 217 221 209 237 236 279 249 292 322 420
214 224 209 212 216 216 208 208 210 209 207 205 203 213 210 220 226 224 223 219 219 220 221 225 235 236 211 210 209 209 214 153 184 216 216 221 233 227 232 282 282 270 351 395
225 221 217 214 213 213 214 215 207 205 205 210 216 217 219 228 224 222 223 222 222 224 229 235 235 212 213 215 200 186 151 216 217 215 228 233 230 275 276 260 275 315 431 376
223 220 218 215 214 214 213 215 215 224 225 227 227 224 225 225 224 222 221 204 189 207 232 207 212 215 205 150 163 215 214 217 222 230 222 255 267 273 282 259 295 318 416 365
217 220 218 219 221 228 229 232 234 235 230 227 226 226 225 226 225 225 223 220 215 213 192 194 204 210 215 216 215 204 223 230 223 235 245 264 270 255 246 283 314 472 402 356

GFSNGP_2pvu_pres_054.txt.gz
Presure
238 237 235 230 230 233 232 223 224 235 242 249 250 206 228 264 264 260 270 279 310 140 168 413 364 357 343 333 337 335 338 330 321 320 123 126 133 275 250 271 256 215 225 225
225 227 217 216 218 263 255 247 246 241 234 225 182 239 262 263 252 237 252 273 301 291 344 383 384 376 369 362 354 354 341 326 318 311 285 123 141 286 271 266 269 199 219 241
236 262 261 250 246 239 232 225 217 221 250 240 250 257 245 250 243 231 219 219 269 288 298 305 308 329 329 327 331 331 328 334 326 309 137 145 192 261 247 256 275 238 211 220
255 253 236 228 219 221 209 231 239 239 232 259 242 233 243 234 219 232 231 247 238 260 279 283 291 291 294 316 302 312 328 329 323 281 208 252 252 263 207 235 237 236 225 215
224 212 214 215 216 249 244 236 218 232 217 233 249 246 233 234 223 235 231 248 234 247 248 258 261 263 264 267 269 268 267 262 259 250 242 241 239 234 229 229 210 223 223 225
213 217 210 218 248 242 224 228 240 242 229 237 234 245 239 236 224 227 233 243 240 237 225 238 239 247 245 243 239 243 241 239 230 228 231 224 226 226 226 220 225 228 227 225
207 210 223 252 229 229 223 217 220 232 222 240 234 237 246 242 223 225 227 235 228 227 233 221 237 238 221 227 232 226 225 230 232 222 224 226 227 228 229 232 229 221 211 211
215 213 257 244 240 234 229 232 233 225 217 231 230 241 242 245 248 218 223 220 228 223 235 211 214 238 227 237 225 239 239 227 226 226 226 226 224 205 210 210 213 216 231 240
213 211 248 238 237 219 232 233 225 224 227 221 235 226 229 240 233 244 219 223 221 218 229 252 217 243 234 243 235 234 231 218 214 209 204 212 214 216 229 239 236 216 210 182
224 229 221 251 234 225 232 233 223 232 232 235 234 243 224 241 235 233 254 239 235 236 230 223 225 227 218 214 218 219 220 231 235 218 228 240 242 235 204 174 178 183 193 194
218 225 237 219 233 202 233 232 227 230 235 220 236 243 236 237 224 241 239 236 244 262 259 246 239 235 235 236 236 233 232 229 231 206 201 181 181 185 192 194 195 196 200 202
229 224 257 255 241 230 239 231 225 226 244 224 222 218 208 205 206 213 213 215 214 219 213 252 249 236 245 248 221 212 190 177 183 186 192 194 193 199 197 197 202 207 209 224
229 232 259 255 226 240 228 252 216 230 234 209 253 194 207 207 205 217 220 216 221 213 210 214 212 211 209 210 208 195 194 198 198 194 199 200 203 210 208 244 253 256 254 252
237 235 267 258 237 240 232 235 226 231 238 233 247 226 203 203 205 202 205 237 211 211 205 203 203 212 207 208 207 205 204 204 206 211 212 195 203 248 235 227 223 219 202 205
223 215 264 264 236 229 239 226 230 222 225 225 231 236 234 223 215 214 214 221 219 220 220 221 213 215 214 214 215 216 223 212 201 195 199 237 226 221 222 212 199 206 205 214
214 216 249 246 243 231 247 243 230 208 210 205 207 212 229 230 224 227 224 226 224 225 226 225 219 221 227 235 213 201 196 197 222 236 238 225 222 214 205 208 204 202 210 204
217 228 242 181 231 244 230 241 233 211 208 212 274 238 227 243 233 237 239 233 243 227 230 231 217 189 193 196 204 216 225 227 233 237 226 221 210 203 211 201 212 209 213 219
225 233 248 261 240 189 238 234 243 214 253 251 252 245 266 263 215 217 214 238 226 204 194 192 196 203 218 221 226 229 220 225 241 231 230 204 206 206 214 210 210 218 216 231
219 233 261 249 214 247 225 247 235 212 243 211 242 250 223 233 222 218 209 203 199 195 202 205 218 227 228 228 220 221 221 241 243 221 204 177 215 214 205 214 218 217 233 234
217 238 264 255 224 203 229 229 185 212 239 239 245 234 207 209 205 205 207 199 200 207 213 223 229 226 227 222 217 226 228 239 238 223 202 220 213 202 139 212 222 232 246 274
227 246 240 251 221 201 231 182 225 193 230 231 208 211 215 214 210 207 199 198 204 208 221 228 226 228 225 220 217 215 229 239 157 207 211 214 206 211 213 231 226 244 267 284
242 246 240 244 226 232 227 236 210 258 252 193 210 205 207 204 201 202 203 203 211 215 224 226 225 223 217 218 222 227 237 241 224 216 204 120 215 211 225 220 240 240 280 299
232 219 246 234 227 223 216 226 205 202 219 215 205 208 206 207 206 206 202 212 215 218 230 224 219 218 221 223 213 226 238 216 209 213 134 213 203 227 222 241 238 275 279 277
236 242 244 231 233 222 204 204 227 222 225 206 209 205 206 210 204 207 207 210 222 216 224 223 218 220 222 228 226 214 194 214 216 203 204 224 225 219 238 235 267 278 291 298
243 235 254 234 224 228 229 217 176 215 216 219 217 216 211 205 206 215 220 227 226 224 227 217 225 224 227 209 213 213 212 203 207 223 224 216 235 229 249 274 275 272 296 295
244 232 244 232 231 230 225 219 221 221 219 215 214 213 214 219 225 237 235 226 168 195 223 224 218 212 215 212 204 204 213 221 215 216 229 231 240 241 271 268 261 291 284 306
225 225 224 223 224 222 229 221 219 220 221 221 221 224 226 228 229 226 215 219 216 215 209 208 203 208 213 219 222 219 215 223 229 231 239 239 259 271 266 280 283 276 307 326

GFSNGP_2pvu_pres_057.txt.gz
Presure
280 278 270 263 257 250 251 248 253 263 282 279 264 254 251 129 240 254 250 242 255 261 259 273 278 270 394 382 352 360 376 374 357 368 383 356 301 280 273 263 223 121 246 245
259 264 266 268 264 270 272 263 256 244 238 238 231 253 248 243 249 258 263 236 246 246 244 301 223 342 359 378 375 362 343 332 338 326 323 329 315 303 304 278 285 121 125 265
246 245 241 239 240 237 230 228 226 224 241 245 247 241 232 255 261 256 249 247 258 229 263 279 307 321 313 316 319 326 354 339 333 323 316 304 291 281 283 284 291 126 142 260
226 225 225 222 217 218 239 254 246 237 227 219 232 256 248 243 245 238 229 245 238 230 248 270 244 277 296 323 316 313 317 323 348 322 313 303 303 286 272 252 185 244 254 184
221 261 263 259 252 247 235 225 219 216 218 235 237 223 222 246 232 240 224 228 232 217 218 209 245 261 270 270 255 279 278 279 275 269 271 261 257 245 250 234 236 224 231 236
264 258 246 229 220 216 215 241 242 239 233 229 234 233 240 247 240 244 229 232 230 222 233 250 249 239 259 256 251 251 251 251 251 249 248 247 253 241 231 228 226 229 239 230
242 213 217 211 216 242 242 242 224 231 222 229 217 233 252 254 246 244 222 227 223 229 221 235 214 224 246 229 256 227 253 256 251 246 243 238 234 238 243 234 237 236 231 235
214 212 218 216 238 242 238 229 234 225 221 215 235 233 248 241 240 251 225 217 226 231 231 245 216 232 221 228 234 229 223 222 222 221 220 222 215 226 216 215 213 215 215 216
215 219 218 207 243 233 236 232 227 232 237 222 217 231 240 231 244 235 246 239 233 224 220 209 222 216 214 213 217 209 217 226 222 217 213 216 217 216 214 210 209 222 216 189
218 216 208 252 248 236 233 227 218 225 230 233 223 235 236 238 237 237 242 237 246 245 259 251 226 226 227 232 235 231 231 221 216 216 212 224 191 194 190 193 192 191 189 195
216 217 216 231 208 238 233 232 224 232 233 233 227 223 235 236 230 243 231 236 236 207 224 231 258 246 247 245 243 241 234 229 227 194 193 192 190 191 187 192 201 204 210 203
222 219 215 226 238 247 240 237 236 236 238 227 236 245 226 217 207 217 214 217 221 218 213 211 205 206 217 212 198 184 183 187 197 199 198 198 196 209 209 210 201 229 234 227
216 212 218 239 264 251 248 217 236 242 233 235 226 229 212 207 206 205 205 210 210 210 210 205 204 204 206 213 213 212 210 211 210 209 210 211 212 203 196 197 234 226 226 217
225 217 215 259 262 257 254 241 228 247 223 238 237 211 249 231 200 203 207 208 213 214 212 213 205 211 214 216 218 216 217 215 212 213 211 198 194 228 244 233 226 225 212 209
221 217 225 239 260 250 246 239 243 239 234 228 233 232 251 251 244 227 215 217 220 226 223 217 218 216 224 218 224 221 212 198 194 195 206 231 228 238 235 227 222 204 203 214
229 224 220 212 254 255 250 241 232 235 231 224 219 235 207 205 208 214 223 226 231 228 228 228 226 221 226 208 187 190 195 208 219 230 226 220 232 247 234 217 202 204 212 204
230 219 216 225 226 251 239 225 237 246 230 210 218 202 224 239 234 236 237 233 235 234 239 244 238 201 190 192 198 220 227 227 226 223 222 224 238 243 233 220 211 212 204 212
215 225 220 224 237 237 240 230 241 202 232 215 216 239 247 255 258 269 265 244 252 247 211 211 201 192 201 215 223 226 227 229 224 218 215 226 239 243 234 209 216 202 219 213
227 215 227 217 227 251 260 220 182 207 246 239 235 241 247 242 246 236 220 210 213 212 207 197 194 200 208 223 238 228 230 226 223 222 223 235 242 226 217 212 215 210 221 229
222 217 223 221 220 242 266 247 247 227 240 225 258 224 236 236 216 214 211 213 210 207 204 199 194 210 214 221 229 224 225 224 221 225 227 229 220 212 215 180 119 227 226 242
226 222 230 220 223 234 264 229 226 218 234 222 241 248 234 237 229 193 214 212 217 212 202 201 208 213 233 217 230 227 223 223 223 227 232 163 198 216 199 213 223 230 240 249
219 232 198 199 220 233 248 263 219 222 200 222 226 229 198 193 221 211 214 209 212 203 208 205 210 212 218 224 225 228 225 225 225 231 199 202 201 202 222 219 238 240 248 253
230 225 216 237 219 232 243 236 237 227 223 233 232 247 215 224 223 222 208 206 204 206 207 210 212 220 227 223 225 224 226 216 180 215 209 205 219 218 230 236 242 250 252 277
236 236 231 225 229 227 227 235 249 233 220 225 224 229 194 206 225 211 198 204 208 211 207 211 225 226 222 222 223 225 172 209 203 206 218 218 231 234 241 242 248 253 277 279
268 261 252 245 244 247 218 235 241 230 235 220 225 206 231 221 217 219 210 211 214 218 217 234 236 234 230 208 176 202 212 215 214 226 223 236 232 246 238 249 256 278 280 271
280 259 261 275 267 264 258 239 214 231 230 233 223 226 227 215 216 219 220 216 216 222 229 235 218 200 195 204 215 212 211 223 227 219 227 235 243 240 252 257 281 286 290 282
263 272 282 272 256 255 242 238 257 247 224 222 226 225 220 218 217 217 221 223 226 227 209 204 219 223 218 206 221 220 219 226 232 235 240 244 251 253 275 282 253 279 284 272

GFSNGP_2pvu_pres_060.txt.gz
Presure
275 270 263 263 263 260 262 263 264 252 249 244 245 256 251 249 256 259 288 285 265 251 249 256 268 277 279 290 352 346 182 396 374 364 402 376 413 395 371 277 277 230 175 282
283 278 256 250 251 257 255 249 257 257 264 258 252 244 252 270 269 251 244 244 244 252 271 261 260 257 244 356 306 351 347 367 353 341 337 340 348 390 366 366 347 266 254 252
272 268 268 270 269 268 262 263 269 263 262 262 273 261 241 237 239 247 245 249 256 260 258 243 240 236 242 254 330 325 324 357 327 319 319 317 322 323 313 314 302 306 315 315
268 271 273 273 273 273 273 272 264 254 246 237 234 239 245 233 237 255 252 248 253 248 239 227 231 230 235 233 281 289 313 342 322 324 318 305 303 295 301 303 301 297 292 285
246 248 246 246 243 234 231 233 228 223 246 249 241 226 236 218 235 231 242 238 244 237 238 230 236 225 227 226 263 269 268 278 283 282 283 280 270 267 270 268 256 249 238 245
227 228 227 227 221 221 224 258 254 240 229 215 211 238 238 237 232 242 246 239 242 236 236 232 231 239 225 228 244 240 225 265 262 262 262 258 261 247 244 242 243 239 239 237
225 238 266 263 261 254 240 226 216 219 236 244 233 231 222 243 243 259 252 251 245 232 235 236 240 222 251 230 220 215 227 232 221 231 233 242 253 247 247 240 227 240 245 246
272 271 257 237 217 216 212 232 244 245 235 195 209 224 233 236 242 247 253 249 236 223 222 215 216 215 216 217 221 216 226 231 228 227 229 234 223 220 225 226 225 224 223 226
267 217 214 215 210 217 247 243 245 238 237 230 235 227 214 237 237 232 241 242 256 261 252 247 259 257 226 231 232 236 234 231 235 224 227 233 238 234 229 208 202 198 197 190
217 214 212 212 218 226 245 233 241 236 226 230 231 237 227 224 237 236 236 238 246 242 242 237 240 251 263 246 251 249 242 232 228 202 199 194 195 196 195 196 196 196 208 212
212 223 215 220 215 247 243 235 238 225 223 225 227 232 221 226 228 226 238 224 219 204 212 219 211 213 216 215 214 214 198 184 199 197 208 208 204 204 201 202 207 204 203 199
214 212 214 218 215 218 243 239 174 234 238 225 237 225 234 241 228 224 210 207 212 225 225 217 214 212 206 209 210 215 219 217 215 209 204 209 208 215 211 203 199 200 214 235
212 212 220 218 213 218 215 237 238 241 231 237 246 237 240 204 212 206 195 256 219 210 211 239 214 215 215 200 194 222 223 221 220 220 217 208 198 199 201 217 217 227 244 236
213 210 217 219 211 213 247 247 247 245 233 235 240 244 230 229 202 246 204 203 209 208 215 218 218 222 226 218 216 216 222 219 209 192 193 204 215 222 226 226 227 237 244 237
210 216 218 221 218 215 263 256 258 249 245 248 231 235 237 231 242 248 204 224 222 222 225 230 233 232 225 228 226 218 205 192 193 210 221 222 228 221 227 227 222 239 245 241
218 219 216 227 212 218 266 257 251 245 247 251 234 229 227 226 218 218 216 212 213 226 227 231 234 234 203 236 224 196 194 204 225 223 231 228 231 222 214 220 236 242 227 219
215 212 219 221 209 226 230 268 250 247 241 236 225 228 215 214 203 205 236 231 237 237 236 238 216 201 258 213 201 193 196 213 233 232 227 230 222 222 225 228 228 219 213 213
226 223 220 231 213 220 222 237 248 239 244 229 241 233 211 206 216 230 243 259 250 245 246 246 242 223 212 201 194 201 200 212 221 228 226 224 220 224 222 231 225 210 209 213
226 214 219 230 221 220 215 230 236 243 217 230 247 203 217 240 221 235 242 238 237 227 202 211 218 211 209 204 194 196 209 216 218 220 226 227 225 225 225 217 210 210 213 213
225 231 223 227 210 219 225 219 230 256 258 243 256 238 247 255 246 225 233 233 221 223 216 205 216 207 213 205 201 204 208 213 225 226 225 223 225 223 204 210 193 194 220 235
234 225 230 225 224 221 215 216 221 235 250 243 241 230 236 245 237 225 236 188 190 226 217 212 216 222 206 203 206 205 210 216 226 226 226 226 204 204 204 185 210 225 237 249
234 225 233 225 213 220 219 230 211 225 239 241 232 226 221 233 233 192 244 238 236 229 220 214 213 207 205 205 207 209 211 226 234 234 232 208 204 184 201 215 232 236 249 253
233 225 226 228 229 223 226 221 204 208 227 241 242 254 216 234 235 237 254 254 198 194 207 231 214 199 205 206 210 206 223 232 233 232 204 192 202 215 224 235 233 247 252 252
236 236 234 222 224 228 223 219 213 230 216 234 229 227 242 231 229 233 237 242 239 207 214 219 224 217 215 213 215 222 227 236 219 223 195 212 220 223 230 240 251 255 253 292
244 237 239 238 239 235 231 230 213 230 227 218 230 230 236 249 233 223 219 226 231 226 224 217 214 212 214 219 223 223 232 221 196 211 232 229 224 234 241 253 252 263 297 287
290 277 251 244 240 237 237 236 223 218 219 234 237 237 225 241 236 232 236 232 230 223 233 216 217 221 224 215 218 223 211 213 227 227 224 232 240 250 249 263 268 300 256 251
276 282 293 291 275 268 264 266 266 261 257 252 253 249 241 239 230 231 235 224 223 228 229 226 224 220 220 221 220 227 230 235 234 230 244 243 243 261 270 282 278 243 254 253

GFSNGP_2pvu_pres_063.txt.gz
Presure
278 267 253 246 244 242 248 251 258 258 252 236 235 240 243 255 243 253 252 250 250 255 252 252 261 289 273 261 282 263 262 254 333 351 408 422 394 386 374 398 428 463 435 325
280 272 262 248 246 244 245 246 249 257 259 254 254 248 242 246 263 252 240 249 260 259 287 271 265 248 273 263 252 253 261 278 377 359 353 346 344 343 353 365 315 338 423 397
281 277 271 271 262 251 248 250 248 248 245 239 248 262 259 263 265 263 246 257 271 253 251 252 273 256 254 251 239 246 242 264 349 338 321 306 295 300 298 293 282 288 279 310
282 280 271 266 265 265 264 269 272 270 266 255 249 249 251 259 264 260 239 240 246 246 266 259 259 242 249 240 236 233 239 246 253 302 307 305 309 306 311 289 277 283 267 260
273 273 274 276 274 268 260 259 265 270 269 273 271 263 249 236 243 242 236 258 231 244 252 251 241 239 234 238 233 225 230 221 228 245 288 267 271 264 264 264 264 260 260 257
264 270 276 278 276 277 275 261 254 248 244 240 233 241 244 234 239 239 239 235 244 247 252 255 242 236 241 236 238 231 227 220 231 227 228 239 242 232 240 240 260 260 260 257
238 238 237 235 235 234 232 229 226 226 240 248 238 230 233 244 235 244 239 247 260 259 249 249 234 235 228 214 215 217 235 224 227 225 225 224 240 234 238 238 240 239 235 235
233 226 221 220 220 243 260 254 251 236 225 221 227 243 233 234 221 237 247 256 250 252 251 223 224 217 215 216 230 233 237 230 239 240 239 233 227 221 218 216 215 215 215 212
223 265 268 263 260 251 221 216 221 230 241 244 239 229 223 230 225 232 241 233 244 240 242 253 260 261 256 261 258 241 240 241 213 210 214 216 214 210 191 195 197 215 217 206
274 270 265 225 218 212 220 236 245 237 242 241 236 230 234 224 231 232 228 233 244 240 242 239 235 236 235 210 204 213 219 217 201 188 200 219 222 215 217 221 217 214 210 207
279 237 219 215 219 223 214 245 247 233 237 238 234 228 231 230 224 226 239 230 231 244 225 231 215 210 215 219 217 218 215 217 223 224 223 220 216 212 204 202 203 210 227 221
213 218 222 221 221 221 214 244 239 236 235 234 226 227 223 236 226 233 241 213 229 205 216 215 224 225 220 212 214 223 217 210 217 218 222 214 199 194 208 215 222 222 226 230
212 214 214 214 220 221 218 224 242 243 236 232 233 239 243 250 249 234 226 204 220 209 209 216 210 213 224 220 225 234 223 224 224 227 201 194 199 216 228 221 224 220 219 224
211 212 214 215 222 221 216 218 213 234 238 237 237 243 234 246 239 219 215 207 203 209 205 209 213 219 223 229 232 230 230 233 224 200 194 201 221 220 226 226 228 227 223 225
214 212 213 212 212 216 218 219 221 243 244 244 247 239 242 235 240 228 242 224 229 211 223 230 230 231 228 230 232 229 241 237 203 199 194 211 229 238 227 233 225 221 226 222
213 210 211 212 212 221 218 219 221 253 252 256 251 243 244 242 238 237 230 229 230 226 214 215 228 231 230 231 230 203 232 213 200 194 204 203 214 226 232 231 228 226 226 227
217 214 211 211 217 215 228 223 220 243 256 254 249 237 245 235 230 230 233 220 210 205 235 238 248 239 245 246 244 232 208 207 206 201 202 204 215 223 225 227 227 225 227 225
220 216 214 214 214 212 225 214 216 222 259 251 245 244 234 228 230 233 215 209 206 232 244 249 249 256 251 243 221 217 210 208 204 206 202 206 208 217 231 228 226 229 228 215
229 217 215 215 213 213 213 231 217 217 215 236 248 247 238 237 240 225 213 220 221 238 236 240 237 231 224 212 214 217 212 213 212 206 207 207 206 222 234 239 232 231 210 211
227 232 222 221 220 223 222 227 214 217 221 223 237 260 252 227 223 248 219 221 233 241 218 221 230 232 195 223 224 214 217 223 208 208 206 211 214 233 238 232 221 216 202 207
252 229 233 225 223 222 221 216 229 218 219 224 211 237 260 248 240 230 230 241 233 238 237 224 227 230 217 197 224 210 203 200 201 206 214 216 215 229 238 223 225 205 212 222
234 258 248 229 228 223 223 226 229 224 221 218 215 212 226 243 253 237 236 216 227 238 239 258 255 238 236 234 206 206 214 222 216 216 217 211 224 224 222 214 206 215 228 237
237 228 237 227 233 230 229 223 226 225 225 221 218 220 213 226 234 241 233 224 218 212 235 236 238 252 250 239 228 211 223 221 213 214 214 222 220 207 221 217 226 244 242 249
252 242 232 227 235 223 226 227 227 232 224 218 224 224 218 202 214 217 230 231 240 238 242 228 227 210 222 226 233 216 221 230 215 219 218 206 215 217 226 239 236 251 256 266
295 251 241 238 230 237 238 231 218 224 225 236 228 227 224 211 229 223 221 224 232 219 231 243 230 225 229 228 228 225 227 227 221 222 209 217 221 233 230 243 253 255 285 317
292 292 269 247 246 240 234 231 232 232 230 228 227 228 227 229 218 228 224 214 225 236 230 224 229 236 224 232 221 223 226 230 226 215 217 226 227 234 250 250 261 275 334 235
277 285 288 276 267 247 243 242 237 236 237 236 234 235 233 234 227 209 223 248 247 242 248 236 235 226 242 235 237 226 224 220 221 231 234 241 244 247 254 266 306 270 231 231

GFSNGP_2pvu_pres_066.txt.gz
Presure
287 267 257 272 254 262 263 257 256 263 242 241 236 238 241 241 244 242 242 243 244 243 243 243 244 240 244 247 259 262 297 281 256 262 252 329 369 355 364 377 354 350 343 379
283 281 273 264 259 253 251 252 259 263 264 234 236 240 232 231 243 236 235 252 253 245 255 244 248 257 255 267 281 261 249 251 261 245 252 251 322 327 311 306 302 306 310 295
260 279 270 265 266 260 258 254 249 251 254 258 263 241 242 239 250 248 239 244 250 247 256 263 252 261 275 255 248 258 253 251 249 238 241 264 262 335 290 288 291 296 293 289
285 275 271 266 252 250 247 245 242 244 248 251 251 250 251 253 253 251 248 248 267 263 254 258 261 253 235 261 261 251 243 248 238 237 239 240 242 242 246 268 284 282 282 285
283 282 271 267 264 256 249 248 247 245 242 243 246 245 240 242 246 257 262 256 260 260 249 244 240 246 262 254 244 240 252 241 235 221 227 228 245 224 225 226 245 252 250 256
282 283 278 276 271 269 271 272 267 267 265 267 269 269 267 257 261 263 255 241 243 229 240 253 235 248 247 250 241 239 238 229 219 234 239 238 233 236 235 235 237 235 234 232
275 275 275 274 274 272 256 256 254 254 256 261 270 274 265 245 242 243 241 235 237 245 246 251 260 259 250 242 231 232 218 217 231 244 238 240 222 216 210 206 206 213 222 219
247 253 258 268 270 270 270 269 265 261 254 248 239 226 244 241 232 231 238 232 237 252 259 254 256 255 227 229 227 217 238 237 235 248 234 206 210 211 205 184 184 191 226 216
234 231 230 230 233 235 231 231 230 220 214 248 241 231 226 236 236 224 236 217 238 233 244 239 244 253 247 249 251 242 248 255 230 213 215 211 188 219 224 221 221 211 212 214
236 231 227 221 221 222 228 254 256 237 222 221 223 237 240 229 223 230 214 236 234 232 239 243 237 238 242 241 236 244 246 212 219 217 212 223 225 229 224 214 202 208 225 225
228 250 264 271 265 261 242 219 217 231 245 242 241 235 238 231 236 230 227 225 228 228 234 244 243 242 224 217 215 215 217 214 212 217 228 223 229 222 209 201 217 225 230 226
273 275 273 268 243 219 213 220 248 249 247 237 235 240 238 231 235 234 234 229 233 228 236 230 208 219 214 223 226 220 214 220 223 217 224 233 213 208 199 215 221 225 227 226
286 281 280 221 221 218 221 222 246 244 236 238 238 234 182 221 229 231 244 228 238 233 231 216 215 213 220 205 213 216 216 223 219 232 234 216 210 202 203 206 229 233 229 228
305 256 214 222 223 224 225 223 218 244 242 239 239 237 233 237 245 244 241 228 236 236 207 233 217 207 205 210 218 224 226 233 232 237 238 219 206 195 202 203 211 219 221 219
223 215 214 214 215 215 216 225 220 217 217 242 239 236 236 240 247 228 241 245 227 221 227 226 213 206 240 226 233 229 234 239 236 234 238 207 200 207 207 205 205 209 216 230
216 213 212 212 214 213 211 222 216 222 221 219 238 239 239 247 250 253 235 248 237 227 245 240 238 233 224 224 235 239 237 248 248 247 216 212 211 209 207 210 206 205 210 227
220 215 213 213 213 215 213 217 223 220 215 223 251 239 253 255 243 239 234 225 231 242 230 259 222 207 230 239 250 260 257 259 241 215 217 215 215 212 215 206 206 208 211 220
223 220 217 214 213 212 213 214 218 213 228 213 221 259 255 254 238 234 230 236 237 235 228 218 201 202 247 243 244 250 228 183 208 214 215 216 219 216 211 212 211 214 211 223
226 224 219 221 215 214 215 214 216 209 219 223 215 219 241 244 230 230 233 240 219 234 226 208 225 234 247 217 225 216 235 232 208 225 228 213 216 224 219 221 210 217 215 224
246 228 225 217 219 218 213 215 215 216 212 215 221 216 221 220 255 257 245 224 226 241 244 232 235 234 232 235 238 226 235 235 194 228 204 216 208 206 214 216 214 216 220 207
240 237 228 229 225 219 222 218 218 217 222 217 217 216 215 220 218 233 259 247 231 242 235 228 228 233 236 234 247 254 248 239 234 244 228 220 216 224 226 224 223 214 207 217
240 258 240 234 222 227 225 218 220 224 223 224 216 218 221 214 218 217 211 223 249 238 236 236 233 225 217 215 218 229 231 233 242 244 243 234 245 226 232 225 219 230 217 226
310 253 241 260 244 234 221 226 227 224 221 226 223 221 224 223 224 221 217 223 215 194 223 234 240 245 242 240 235 237 233 228 227 222 191 233 227 222 220 225 223 217 227 234
316 318 267 242 235 201 241 236 228 230 226 227 226 222 224 228 226 224 217 218 223 226 224 217 219 223 223 227 229 216 226 242 239 235 227 229 223 217 216 217 220 229 229 252
296 298 321 266 250 234 225 223 236 238 232 229 230 228 226 224 227 229 227 225 227 226 218 216 211 225 229 217 223 236 239 237 234 235 226 224 236 219 217 224 231 230 251 262
287 295 305 307 273 253 245 233 233 235 225 232 233 230 226 222 221 219 227 220 224 222 224 232 220 226 218 222 235 256 242 245 240 228 234 235 220 220 228 231 237 253 264 267
277 283 284 288 293 288 256 246 241 242 238 231 229 228 234 235 230 234 232 228 227 229 232 225 218 224 229 245 259 244 242 264 267 239 233 223 228 230 235 241 255 264 274 343

GFSNGP_2pvu_pres_069.txt.gz
Presure
273 282 277 277 276 273 267 266 256 256 257 259 253 246 244 251 260 256 240 223 217 231 230 226 224 225 230 252 260 257 256 257 253 261 261 271 263 264 261 248 304 318 290 303
281 274 268 263 268 266 261 265 262 265 279 269 242 246 246 248 249 252 252 253 256 255 254 256 256 251 253 248 247 249 258 255 259 272 271 265 249 240 259 242 268 271 276 303
271 277 279 275 257 261 258 264 266 265 262 265 248 259 255 240 238 240 245 248 249 251 244 245 247 248 251 256 262 256 276 259 263 257 245 253 254 249 243 236 241 227 263 253
259 269 281 279 262 252 266 247 258 260 256 255 263 254 249 246 250 245 239 235 236 238 234 242 239 234 257 252 273 264 263 252 258 251 248 250 256 238 229 239 246 233 238 232
256 289 267 278 277 269 264 262 260 259 253 255 257 265 267 244 240 240 235 237 237 247 251 252 253 258 272 264 263 247 265 254 260 244 242 250 237 238 251 240 224 211 205 201
254 287 271 270 271 263 263 254 250 246 241 240 242 246 250 253 254 251 249 250 251 252 250 256 267 266 253 248 250 240 229 252 249 239 242 239 225 247 249 214 204 201 216 219
288 268 278 267 264 262 258 247 246 244 242 241 242 243 243 243 246 247 248 256 261 264 263 254 245 238 238 236 238 252 250 254 243 240 237 225 236 247 208 205 192 228 218 225
278 278 278 276 272 265 261 262 264 264 261 257 259 265 268 268 261 262 261 259 259 241 237 233 240 252 258 266 260 260 252 244 236 243 222 261 253 230 215 192 218 234 225 208
260 269 274 272 271 272 271 270 264 254 254 253 253 261 266 277 263 250 239 232 231 226 235 239 247 245 243 249 253 247 232 233 244 251 253 271 242 215 214 225 224 228 210 205
245 248 253 263 269 270 270 270 270 269 267 264 256 244 232 243 229 238 230 228 237 225 228 233 238 239 239 239 245 248 249 250 245 212 222 222 213 215 226 220 228 213 197 209
232 233 234 233 234 239 243 242 242 234 229 220 232 246 236 232 224 230 235 227 225 233 221 235 231 234 237 245 242 245 236 223 216 215 205 211 216 225 223 228 225 210 205 203
235 234 233 223 221 218 223 223 227 251 255 238 226 222 233 240 235 234 229 225 227 226 226 226 233 236 236 247 239 213 219 223 220 216 216 215 223 215 237 236 216 207 201 204
226 222 229 273 244 276 263 261 258 221 218 229 247 237 239 243 229 237 227 229 235 243 240 240 237 240 229 216 214 223 217 208 213 215 221 225 242 226 223 230 214 208 206 204
230 223 270 270 274 270 268 227 219 218 246 249 247 239 239 235 233 228 230 227 229 249 249 246 241 229 199 209 214 212 205 212 217 220 231 230 236 238 244 215 213 209 213 212
241 222 281 280 279 273 219 215 219 221 232 229 228 239 237 236 232 232 236 243 251 239 243 235 232 232 203 204 210 207 238 227 214 229 234 229 246 250 230 221 212 207 209 222
244 235 286 299 290 218 220 218 223 224 221 222 218 234 245 241 236 238 237 248 252 241 245 239 234 226 234 233 240 238 226 224 236 249 237 251 252 231 209 197 209 218 221 223
242 258 283 291 219 214 219 219 222 215 224 224 222 223 223 246 238 239 245 258 239 235 245 244 243 240 231 228 226 211 211 271 249 252 245 192 226 225 221 223 232 212 212 206
247 268 282 225 219 214 214 217 215 211 221 221 220 215 224 237 244 244 249 254 244 239 231 229 228 229 230 223 216 204 211 250 226 243 241 238 235 236 238 194 209 213 213 216
252 267 279 224 224 217 214 214 214 219 216 215 219 230 219 220 220 257 253 247 243 232 236 235 237 238 235 229 210 227 240 238 239 237 239 236 236 234 220 232 240 235 224 247
255 253 271 227 225 220 219 215 215 214 214 215 219 215 217 226 216 222 218 227 244 247 248 238 228 228 181 236 238 236 232 228 225 222 220 232 233 242 239 213 214 215 229 233
254 247 229 244 224 225 225 219 223 216 214 215 216 216 215 214 219 223 215 220 223 218 260 253 242 237 247 243 234 236 237 229 222 232 228 233 237 232 228 226 227 226 227 228
226 239 244 256 229 236 225 224 226 218 219 222 219 217 216 218 223 220 217 223 220 219 220 218 217 218 220 224 233 231 232 237 234 232 228 226 223 217 230 225 229 231 229 242
259 254 246 243 248 238 233 236 226 226 224 219 218 220 219 220 221 221 216 219 222 224 223 225 221 217 217 223 220 221 215 213 220 226 218 215 224 248 240 242 237 233 232 228
311 318 257 248 246 237 243 241 218 207 207 223 228 228 226 223 222 223 224 219 223 229 231 224 222 221 221 218 217 224 220 222 231 217 219 224 233 247 248 244 249 261 230 229
294 304 311 325 273 250 244 244 251 245 236 193 225 232 223 223 226 225 226 228 228 228 226 223 227 233 230 230 228 222 214 218 225 233 227 228 240 261 238 240 246 236 231 229
287 289 290 299 309 320 289 255 248 244 251 241 247 239 235 236 236 236 235 232 224 220 224 221 224 225 227 232 229 225 225 228 228 228 229 240 252 252 258 262 226 226 232 240
284 285 285 290 293 295 308 315 273 256 244 241 239 233 234 233 238 237 237 234 233 231 228 228 228 227 224 223 228 230 229 229 236 240 247 258 261 270 229 231 231 237 244 264

GFSNGP_2pvu_pres_072.txt.gz
Presure
275 278 276 277 268 265 264 269 260 271 288 290 280 285 283 290 266 258 249 251 249 255 253 246 246 247 242 241 239 238 228 204 230 227 219 220 229 253 261 269 271 267 268 255
274 260 260 264 266 268 259 258 273 253 261 267 273 279 284 276 285 272 260 245 241 234 231 233 231 230 227 232 225 223 229 221 217 229 230 258 269 273 279 272 264 259 256 253
281 272 271 266 257 259 270 280 269 261 250 253 252 253 255 259 256 263 266 264 255 250 247 242 235 229 227 223 226 226 227 226 250 260 263 273 260 267 268 263 266 263 245 243
272 283 288 278 280 271 265 261 260 259 260 250 254 251 253 256 255 258 258 249 248 249 253 252 251 245 248 243 245 248 252 251 248 242 261 279 265 260 256 254 253 253 236 252
265 263 269 288 286 271 257 256 260 260 251 253 251 263 262 257 255 251 253 254 250 245 245 247 244 244 248 249 251 242 238 239 253 280 271 259 252 248 251 248 249 235 250 244
266 262 261 264 285 284 280 274 265 263 268 263 265 264 259 260 251 261 251 250 252 244 239 237 246 240 240 243 238 239 262 269 269 251 250 248 236 259 251 249 232 238 248 208
262 259 255 289 271 282 283 272 264 259 251 250 258 260 264 266 261 269 253 241 245 245 246 244 241 234 242 250 259 262 263 250 242 241 239 255 261 250 244 237 228 239 236 212
283 285 261 278 270 270 274 270 267 267 259 256 254 250 249 251 252 255 256 258 256 252 251 256 253 252 260 265 252 243 240 252 268 269 263 256 252 246 226 254 280 270 217 228
279 278 282 278 274 264 263 264 260 257 251 250 247 246 246 244 246 246 244 246 248 257 274 266 267 255 242 238 250 260 251 259 263 260 252 251 230 255 251 250 221 214 227 226
261 273 276 277 277 276 267 260 257 257 257 257 257 258 257 261 274 269 265 262 265 263 254 245 242 234 240 236 239 241 240 243 245 252 253 251 240 231 219 212 216 222 231 227
250 252 256 267 271 273 270 273 274 272 270 267 259 260 265 268 271 267 256 248 242 237 234 232 230 239 236 227 239 233 241 246 244 247 243 223 216 213 211 216 217 222 226 234
233 240 238 246 253 263 269 268 270 269 267 267 267 265 257 248 239 237 229 234 232 228 229 239 228 235 225 228 233 238 236 243 249 217 225 213 213 216 216 221 227 234 236 235
232 231 229 229 230 232 231 235 238 253 253 248 242 227 223 244 242 234 231 219 224 237 232 224 228 231 238 239 230 237 238 217 255 259 213 208 211 216 223 231 233 231 240 254
237 232 235 236 230 229 222 222 223 228 224 235 248 255 240 220 223 232 239 233 230 233 229 229 235 227 256 251 245 241 238 213 213 205 207 224 229 220 231 234 232 237 246 227
246 236 236 227 224 227 250 243 255 256 250 258 233 226 229 245 238 237 239 238 233 234 233 236 260 250 238 239 238 224 227 203 217 227 237 225 227 241 237 238 249 222 231 194
241 238 239 240 227 221 272 272 277 262 263 220 222 243 251 247 242 242 237 235 228 233 244 258 259 259 250 246 236 224 217 240 238 226 219 209 250 242 250 248 236 220 199 236
257 248 236 243 240 224 282 276 275 270 215 215 244 254 244 243 246 246 239 240 238 240 241 256 236 236 237 241 242 239 238 230 228 227 207 202 247 242 247 242 244 243 243 244
253 261 255 244 247 230 286 300 285 228 222 215 219 225 221 222 224 223 240 242 242 245 245 253 243 234 233 226 226 229 233 232 226 218 210 238 241 238 222 219 223 225 227 226
305 256 260 258 246 237 283 295 221 222 220 216 220 223 227 223 223 215 225 225 246 250 252 250 243 241 236 238 239 238 243 247 240 236 234 236 230 225 227 225 226 236 229 217
280 290 258 257 247 240 281 292 225 218 218 219 216 216 215 223 219 230 227 221 224 216 258 242 246 246 248 249 241 237 235 244 237 240 238 238 235 236 239 233 224 224 223 224
349 269 293 257 256 245 270 288 224 224 222 216 214 215 215 213 218 216 216 217 224 225 221 218 225 225 222 232 250 247 245 226 225 224 218 209 212 218 219 223 224 222 217 222
320 326 338 274 258 248 252 279 223 219 225 225 219 220 217 215 214 214 215 214 212 222 225 226 226 225 222 221 220 220 217 218 216 220 223 222 220 222 218 223 219 234 227 231
301 306 317 274 246 254 248 274 254 233 225 215 220 221 219 217 214 215 218 223 222 221 220 223 219 217 222 224 223 228 226 222 223 224 222 227 232 222 217 222 230 229 228 247
295 300 303 259 257 243 246 243 261 246 227 228 205 218 213 214 218 219 218 218 218 219 220 221 223 224 221 218 218 225 229 220 225 229 226 218 218 228 227 228 235 234 248 256
293 295 297 303 255 245 245 249 235 257 245 241 220 218 188 190 224 224 224 222 221 221 224 223 223 223 226 227 227 226 222 219 219 225 230 232 227 226 233 237 237 250 256 270
287 294 296 299 300 296 256 250 251 253 244 242 242 237 237 234 223 219 217 220 224 226 227 228 226 221 225 225 225 227 232 227 223 226 225 226 234 239 237 239 253 259 268 272
288 288 284 290 290 290 296 305 309 278 246 246 246 244 233 229 232 234 241 243 240 236 236 234 232 234 235 232 222 223 228 228 226 232 235 238 237 241 248 253 262 276 271 240

GFSNGP_2pvu_pres_075.txt.gz
Presure
269 284 274 275 279 278 276 283 293 298 301 289 285 291 304 303 289 290 281 277 264 264 260 258 256 255 256 259 255 256 245 247 248 254 244 244 239 246 243 240 232 229 225 229
269 269 266 262 265 264 268 273 272 270 286 296 280 277 284 297 283 290 268 276 258 256 252 249 247 247 249 258 248 239 235 236 235 244 247 234 249 231 235 229 222 234 240 264
266 266 262 258 267 267 261 259 257 253 265 272 282 288 283 281 290 290 267 273 271 256 248 251 251 246 248 267 239 240 251 251 249 245 228 232 229 223 222 230 234 262 254 276
281 276 282 268 260 271 258 259 257 258 253 255 262 271 278 280 281 280 290 281 267 275 252 243 239 239 243 243 249 235 225 224 221 224 229 227 225 233 240 259 246 285 266 259
264 271 277 291 288 273 254 257 250 273 259 250 254 261 262 268 271 272 272 276 276 277 270 258 255 246 236 235 234 231 232 236 237 239 239 250 255 252 246 251 280 265 252 241
264 266 270 275 284 292 288 275 272 263 259 260 254 249 248 253 257 254 257 261 262 260 264 261 264 266 264 255 252 251 253 252 251 248 251 246 246 245 275 264 251 245 249 269
264 281 262 260 262 265 288 285 274 274 265 257 257 261 257 250 250 248 247 249 251 251 254 250 255 256 252 251 251 246 245 239 243 240 240 245 269 262 244 240 245 265 266 233
271 258 267 265 260 299 270 288 287 266 267 263 261 260 259 252 251 254 259 257 265 268 256 248 248 249 249 245 242 241 244 244 238 252 269 260 241 248 274 270 264 261 246 256
274 280 286 286 255 287 275 273 280 277 272 277 266 265 261 261 261 271 269 266 261 262 260 240 235 236 236 238 238 239 250 255 269 252 240 262 265 270 266 260 233 254 244 220
270 274 279 285 278 274 275 268 272 271 268 262 263 257 265 257 255 254 250 248 250 250 250 251 255 256 254 252 250 263 264 248 240 240 245 249 251 248 251 250 238 216 220 213
259 262 266 275 280 278 269 267 265 267 265 262 264 255 252 251 247 248 246 243 246 245 245 245 254 259 265 260 250 243 234 244 235 243 241 241 251 241 236 221 218 217 218 219
250 252 252 262 268 271 274 278 275 267 261 258 257 254 252 251 254 262 268 268 269 268 270 266 257 248 241 238 232 242 244 232 231 235 239 235 242 221 229 212 211 213 216 228
253 247 248 247 252 260 265 271 272 272 276 277 270 268 271 267 261 275 276 272 262 253 248 241 237 238 226 242 236 234 230 232 238 228 236 229 220 217 217 206 210 232 220 236
232 246 244 239 234 237 238 238 252 270 272 272 271 273 271 272 270 261 251 247 242 236 236 229 221 237 236 232 236 240 234 250 246 245 242 224 209 210 205 206 229 221 239 255
256 233 246 244 239 235 235 236 235 229 224 226 243 242 241 240 228 235 245 239 226 229 231 232 231 231 237 241 240 293 249 247 243 237 203 237 207 204 240 230 216 228 225 238
258 250 244 226 245 235 237 236 228 230 230 229 233 232 238 249 257 239 224 232 235 239 243 231 229 234 234 239 263 241 240 234 232 226 224 205 237 250 228 222 208 202 245 246
263 266 252 253 224 240 242 236 225 223 264 260 248 253 255 214 229 229 236 243 234 238 234 232 236 237 239 255 243 243 232 235 238 239 239 235 228 243 221 219 213 209 234 223
317 269 267 260 249 233 233 246 237 222 225 274 270 268 261 219 234 239 254 246 240 241 239 238 239 239 239 250 247 228 238 235 225 224 230 238 233 221 225 233 236 239 235 232
283 316 299 268 263 255 249 234 238 243 224 287 275 277 219 222 230 254 223 230 225 227 231 241 245 247 243 249 246 240 237 232 238 233 231 235 244 247 245 239 238 231 224 218
285 281 298 318 298 263 261 256 248 243 228 271 306 280 228 221 219 218 217 217 228 224 216 220 217 239 252 257 245 243 249 250 251 247 246 245 237 226 223 222 218 212 219 220
293 285 291 289 317 295 275 259 257 254 238 254 297 262 221 221 216 218 212 215 219 217 226 222 223 224 220 218 218 222 222 224 223 221 221 217 216 213 213 217 216 217 228 227
331 335 339 343 307 291 293 274 257 255 249 247 287 259 220 220 216 214 213 214 211 210 214 209 212 212 211 224 224 224 225 225 224 227 227 230 228 229 221 220 231 225 225 228
305 305 309 311 313 323 282 285 269 257 248 243 277 258 223 222 216 215 215 215 215 215 216 215 216 218 220 218 217 218 218 219 222 221 221 217 224 225 223 224 226 227 228 229
296 297 296 296 301 305 313 319 278 265 257 242 256 280 214 213 214 215 216 217 217 216 216 215 213 214 214 215 219 225 226 224 221 223 225 226 226 224 226 232 227 225 227 231
293 289 288 290 293 294 298 310 323 267 260 250 245 270 275 231 226 226 222 212 215 214 215 217 218 217 219 218 218 217 218 220 223 221 223 227 232 234 230 227 233 229 231 239
291 286 287 287 288 290 292 297 301 267 240 258 247 247 263 253 238 229 217 216 216 216 217 218 218 217 217 217 220 222 219 222 223 230 229 232 229 229 232 236 233 230 245 242
290 292 293 286 287 287 289 288 290 262 260 250 242 240 242 235 243 254 241 237 234 232 230 230 229 228 229 229 230 233 235 234 230 229 229 229 235 239 237 230 243 242 244 252

GFSNGP_2pvu_pres_078.txt.gz
Presure
289 298 291 270 264 281 280 293 286 272 281 296 305 304 319 324 294 305 279 251 335 294 224 280 279 281 282 281 275 269 259 250 242 236 235 236 236 237 237 239 258 254 242 252
277 282 272 274 276 281 291 280 278 269 284 266 291 297 300 314 321 312 299 304 249 278 301 280 269 269 271 273 285 287 287 273 258 263 275 260 261 256 260 247 253 239 242 233
272 259 260 261 266 268 272 275 273 268 267 291 296 283 284 288 291 313 304 301 282 285 292 295 265 272 264 257 257 255 274 268 249 259 256 241 259 241 252 240 236 235 230 223
264 270 266 263 261 265 255 261 261 260 261 271 281 294 273 280 279 281 291 281 282 287 272 274 281 277 267 256 260 253 248 260 245 268 242 237 245 245 236 228 226 221 225 229
264 265 267 267 270 267 272 256 259 255 253 260 262 266 277 284 287 286 273 283 299 282 284 266 260 257 256 262 255 249 248 260 237 247 232 226 242 234 226 220 230 225 240 257
271 269 275 278 282 293 271 262 265 255 252 251 253 258 263 270 272 271 280 282 280 284 290 285 279 257 249 247 246 244 244 234 245 230 229 230 223 234 227 231 251 253 245 244
269 263 265 264 265 274 288 288 273 266 255 261 253 252 254 261 265 266 268 269 273 275 275 281 283 286 271 266 257 246 240 241 238 241 241 235 236 243 258 246 252 245 277 256
267 268 270 280 271 269 267 273 290 286 266 260 251 259 258 250 257 256 257 258 257 256 258 257 259 262 260 261 263 267 269 262 256 252 250 258 252 241 245 247 269 260 251 273
256 254 258 259 274 261 264 260 268 284 293 290 273 267 258 258 252 256 251 249 251 249 250 247 242 244 247 245 245 250 246 244 248 247 243 241 240 247 266 260 249 252 250 252
275 274 277 279 281 266 265 257 282 273 282 287 262 271 264 257 246 263 259 258 257 252 254 262 258 258 262 256 249 246 243 247 248 237 243 255 270 258 240 248 250 251 248 241
266 267 272 278 278 285 278 253 278 273 274 281 281 263 265 258 256 267 266 266 263 262 261 262 262 260 258 258 258 258 256 252 252 257 265 256 236 235 245 239 236 244 241 227
263 266 267 268 274 279 280 273 268 269 266 270 268 269 263 266 262 254 260 256 250 248 245 246 249 248 246 247 247 245 249 261 259 249 234 232 240 234 230 233 233 230 209 224
256 263 256 258 255 268 274 277 276 272 268 262 265 264 262 263 262 255 251 251 250 249 244 245 238 242 253 261 265 265 252 240 230 233 233 237 230 234 229 235 232 217 212 217
251 245 256 255 256 250 258 269 273 274 275 278 270 263 261 257 255 251 249 249 251 258 270 273 273 267 262 256 242 234 224 225 239 230 235 236 237 246 244 242 235 206 214 200
268 255 256 257 247 249 245 243 242 255 270 274 274 274 279 275 269 267 270 271 271 278 272 262 256 248 240 233 218 225 233 232 237 239 280 289 250 247 242 225 213 247 221 231
262 264 253 263 248 246 245 240 234 233 236 236 238 257 273 273 272 273 273 275 265 256 247 242 242 227 229 227 228 228 230 238 235 271 248 239 230 234 227 223 218 229 232 234
276 266 258 261 258 245 229 238 239 235 235 229 224 222 223 226 227 225 229 232 238 243 243 230 230 232 237 236 233 236 232 238 252 250 241 239 240 237 240 252 234 233 231 228
330 294 277 268 266 266 254 241 235 238 237 232 224 225 234 252 240 241 239 248 254 217 229 236 236 231 236 235 234 237 233 238 253 249 227 238 238 233 225 237 245 246 247 252
303 286 308 299 276 269 264 264 249 239 232 241 238 222 221 236 269 261 249 253 243 231 240 248 243 235 239 238 236 238 240 240 248 249 236 237 234 232 236 233 240 240 228 227
286 288 309 273 278 309 311 271 263 264 247 236 232 240 239 225 279 274 270 259 227 229 234 231 228 230 220 227 243 243 245 250 253 246 243 247 251 254 251 239 226 221 217 215
295 319 323 299 316 283 275 307 320 279 262 259 249 235 237 225 244 288 281 214 227 227 243 215 217 221 224 222 222 220 221 222 220 219 220 218 219 223 223 225 222 220 223 225
307 309 310 316 316 294 301 287 281 309 298 276 258 258 256 226 236 267 309 225 222 220 219 214 217 219 221 215 210 210 214 211 211 217 220 220 221 218 216 221 223 225 227 232
322 321 319 321 325 322 322 327 317 280 303 266 300 266 258 262 235 257 291 221 214 214 216 213 212 210 207 209 212 212 212 214 215 215 214 215 222 223 223 222 219 222 223 223
313 299 306 306 311 309 309 312 316 324 326 281 275 297 263 259 236 254 280 283 218 218 215 212 212 212 212 214 213 213 212 210 210 211 214 214 215 217 218 221 224 224 224 232
295 306 297 297 294 292 297 296 302 308 312 318 276 282 285 253 242 244 267 289 222 220 220 218 216 213 208 208 212 213 213 215 217 216 217 219 217 217 219 220 225 232 230 227
299 295 295 298 277 288 289 290 291 290 301 304 307 272 277 275 254 239 249 275 234 216 212 208 205 210 211 208 224 224 222 220 217 216 214 219 227 227 227 229 231 229 240 236
300 299 299 291 293 288 282 287 283 287 292 295 299 310 322 279 264 254 242 252 265 268 230 228 227 226 224 218 214 213 215 225 229 229 228 225 224 228 230 230 235 240 232 232

GFSNGP_2pvu_pres_081.txt.gz
Presure
279 271 266 264 270 280 285 267 291 265 273 277 280 279 292 303 285 363 311 356 339 306 285 270 265 306 315 277 269 270 297 298 298 300 287 260 272 270 260 252 249 249 244 238
279 279 278 281 281 283 280 274 241 261 269 280 293 296 304 294 316 346 334 328 332 301 289 316 273 314 300 298 296 293 291 288 291 287 281 286 285 277 278 267 261 266 268 262
297 304 309 308 297 284 287 261 282 281 270 281 275 279 288 289 286 312 321 317 304 320 278 291 305 300 307 283 276 272 276 279 284 276 272 274 273 280 276 245 249 263 252 244
286 281 287 270 278 279 274 272 300 279 262 263 268 287 292 290 292 292 303 304 298 303 302 274 303 272 255 292 271 270 284 289 284 265 259 257 265 255 248 262 260 247 249 239
284 267 267 265 266 267 267 270 269 279 275 276 269 271 278 294 278 287 283 298 317 299 293 275 299 288 272 262 310 274 260 255 274 263 257 246 260 250 256 255 258 239 243 228
264 264 261 272 262 259 262 261 263 267 264 263 266 261 269 272 281 290 278 279 283 294 296 274 290 270 280 283 283 294 270 259 258 260 268 254 263 260 246 236 250 234 221 230
273 270 265 270 266 268 263 273 255 266 259 261 262 260 264 260 271 271 278 276 283 267 278 294 281 281 270 259 263 261 270 261 261 264 257 247 245 230 242 246 225 229 223 226
277 273 269 274 277 274 272 278 291 284 270 258 267 255 258 257 259 268 274 273 268 271 277 284 282 292 286 275 265 261 257 249 252 250 244 244 237 234 229 226 227 236 249 250
287 278 275 275 271 272 264 265 272 279 294 262 257 258 268 250 260 260 260 268 263 261 261 262 264 268 275 276 287 292 284 268 259 249 249 258 262 260 253 256 253 245 241 244
265 264 260 260 259 263 269 279 271 263 266 275 293 274 260 262 258 247 260 252 255 254 254 253 253 250 250 250 249 249 249 249 251 249 248 249 248 242 244 242 238 245 265 250
272 271 272 273 273 276 278 262 270 266 266 260 272 293 279 273 254 266 259 261 255 250 252 253 248 249 247 243 241 240 243 245 246 244 241 244 238 234 239 244 261 256 237 232
282 283 277 272 271 272 278 283 282 262 261 263 274 279 282 280 266 270 260 264 259 261 262 263 253 271 268 263 262 262 263 261 259 254 251 249 246 245 259 258 236 232 236 230
258 271 266 269 266 268 273 279 285 282 267 249 271 270 273 277 274 266 258 259 254 260 262 261 257 255 258 255 253 251 246 240 243 240 238 243 261 251 234 229 230 233 227 231
259 259 257 253 258 258 259 263 273 278 279 273 269 267 263 268 268 265 261 261 263 252 257 254 250 247 246 244 244 242 238 244 251 258 257 245 233 230 235 224 230 237 236 248
265 257 261 249 257 242 253 256 250 256 270 274 274 270 261 260 260 261 260 259 263 254 249 249 248 247 243 240 242 251 265 261 250 237 227 226 235 230 237 267 310 250 245 239
274 266 261 262 257 256 236 254 248 246 245 247 261 269 273 273 273 273 264 260 259 256 252 252 257 265 268 277 271 262 252 235 225 224 228 230 237 237 270 250 245 237 230 234
285 276 268 265 259 260 257 237 248 242 238 234 234 234 240 258 269 271 271 270 272 274 273 271 275 273 271 261 249 231 227 227 227 228 232 231 239 248 250 238 234 232 231 244
315 293 282 274 271 267 263 258 242 241 239 239 231 229 228 227 223 221 224 224 235 256 269 271 263 247 241 234 227 227 228 235 234 235 235 233 240 241 253 237 228 234 235 228
291 285 313 293 282 279 274 268 262 259 243 231 235 237 233 231 225 224 229 237 234 235 236 238 240 239 220 231 235 233 231 238 233 236 234 235 241 242 251 245 239 239 249 256
318 285 290 293 296 303 316 313 286 274 266 261 250 236 231 239 230 223 222 223 260 261 251 241 246 250 224 233 240 241 234 236 234 236 235 244 245 246 252 250 229 220 218 219
333 315 286 286 290 304 300 297 294 295 315 288 269 262 244 238 231 237 230 219 223 260 267 266 253 256 230 232 236 243 233 225 223 219 222 221 221 221 221 222 223 221 220 217
303 304 302 288 300 288 288 301 290 299 318 275 279 304 305 263 252 236 233 234 221 227 257 278 275 263 222 227 220 217 218 224 222 220 211 218 212 211 214 215 213 213 218 223
318 340 320 319 318 320 323 324 325 291 296 307 314 280 275 307 306 261 253 236 233 228 237 261 293 217 225 227 222 218 217 220 221 222 217 214 211 213 212 212 210 212 215 215
319 310 314 315 308 310 311 307 310 314 318 326 332 335 274 289 299 304 284 261 260 243 234 244 277 303 225 220 220 215 217 216 213 211 212 213 213 213 213 213 214 219 218 220
304 301 295 308 288 302 300 301 299 302 301 304 308 312 313 326 273 291 291 312 264 258 235 238 261 289 220 217 217 215 210 208 212 215 217 215 215 208 212 219 221 215 211 225
294 291 302 302 291 291 296 295 291 295 292 292 295 297 302 310 317 337 280 289 293 255 260 236 251 280 255 222 222 220 221 220 211 205 208 214 218 222 218 209 212 225 227 223
307 294 297 296 297 302 300 295 294 279 287 289 294 290 291 296 301 320 324 265 283 280 255 241 239 260 279 259 220 219 216 215 216 221 224 226 219 212 222 228 231 226 223 233

GFSNGP_2pvu_pres_084.txt.gz
Presure
278 274 277 276 276 273 269 277 276 273 267 264 256 275 280 287 284 314 317 311 330 326 276 270 350 361 339 331 307 294 266 215 207 204 201 194 192 184 185 184 181 181 185 183
288 279 277 274 270 268 268 271 278 272 282 259 270 275 277 286 284 302 317 329 308 390 316 353 330 268 272 285 338 324 308 287 279 238 216 211 207 205 203 228 194 258 194 191
272 278 287 284 278 261 270 276 269 270 263 263 268 274 277 288 300 301 309 313 297 340 336 312 335 335 311 325 271 274 281 284 304 319 315 299 287 272 258 257 286 284 273 248
298 290 276 263 274 260 268 263 263 271 259 265 264 213 277 282 299 296 296 297 295 322 325 324 330 342 331 303 323 311 300 270 270 276 301 296 296 282 296 281 265 270 262 270
282 285 292 297 296 292 295 294 284 282 267 271 283 274 272 275 304 286 292 294 284 316 314 294 325 289 296 334 281 275 302 274 287 271 291 298 278 290 282 274 269 267 252 255
269 276 273 275 280 275 272 273 268 265 272 290 279 271 262 261 282 289 273 288 292 289 289 317 300 304 271 294 294 294 278 294 284 289 274 271 263 248 269 246 259 253 236 245
283 281 272 279 272 267 269 268 267 268 272 272 278 268 277 275 265 270 286 285 274 285 288 286 313 289 293 285 297 289 270 259 264 305 255 284 270 253 261 248 251 262 263 251
280 275 270 274 273 266 273 265 265 266 265 265 273 272 268 262 262 260 264 276 283 272 280 272 275 297 282 279 286 277 270 275 285 288 285 285 277 280 271 262 252 250 243 244
294 282 266 269 270 267 271 264 266 276 275 286 267 265 246 264 271 241 263 262 268 273 272 273 282 287 285 297 282 288 279 274 264 267 266 263 250 249 246 249 238 245 240 226
295 304 291 276 285 262 276 267 265 268 270 277 280 294 276 262 246 255 270 247 258 259 277 274 268 271 259 266 272 288 281 275 261 261 254 249 246 240 243 239 240 238 249 250
271 278 280 282 278 274 272 270 267 265 279 271 267 271 286 283 267 254 253 245 264 247 255 254 253 261 261 255 256 257 259 264 266 268 271 267 260 258 256 251 249 245 238 239
259 257 265 262 260 258 259 264 276 279 259 276 257 259 257 266 286 284 272 266 250 250 257 258 255 247 251 248 241 241 246 245 241 242 240 239 237 238 244 245 241 247 244 242
262 267 268 275 282 280 276 273 273 275 286 273 261 269 258 273 274 284 279 275 273 257 256 263 258 244 258 252 259 254 266 252 240 239 241 247 257 259 256 248 243 235 242 256
271 266 264 265 280 260 266 267 268 269 279 283 275 265 258 271 273 275 278 273 268 260 261 257 256 259 250 267 263 260 264 263 262 258 253 243 239 239 236 236 244 255 241 231
275 272 267 263 263 255 247 248 257 256 255 270 277 277 267 266 266 265 266 269 269 267 266 265 258 263 254 259 249 249 244 246 239 241 241 237 238 251 255 251 236 230 233 236
308 283 272 266 262 260 259 253 245 262 250 249 251 262 273 276 271 262 260 261 262 261 261 263 260 259 255 255 251 248 248 248 243 237 240 261 260 249 240 224 233 229 239 260
327 306 284 277 268 266 265 262 257 250 244 265 239 244 248 259 267 271 271 271 270 264 261 261 259 261 254 250 248 247 250 259 268 277 270 252 240 225 226 234 229 238 239 254
297 300 304 286 278 272 268 266 264 260 258 243 249 243 235 236 235 243 253 264 272 273 274 274 275 269 264 263 266 271 276 276 270 261 239 229 228 230 234 230 232 236 238 248
297 299 288 291 299 292 284 278 272 266 264 260 250 247 244 233 235 228 229 233 233 232 243 244 267 268 268 267 273 269 266 258 246 232 226 229 231 233 232 230 229 233 240 243
294 280 301 299 286 277 285 292 292 285 283 278 270 262 250 241 239 235 230 232 230 227 222 229 232 230 233 239 245 242 239 241 230 232 236 232 233 238 233 232 232 235 238 243
292 292 285 285 305 309 290 286 287 306 318 305 292 289 286 271 256 239 241 234 235 229 229 230 229 255 251 242 239 242 245 243 242 232 238 234 233 231 231 216 223 219 218 214
291 290 287 285 297 338 328 285 280 285 288 293 296 300 304 309 319 292 270 246 240 240 232 231 227 220 224 264 263 249 247 251 232 236 236 238 237 225 227 222 215 212 213 211
291 290 289 288 288 288 288 288 289 294 295 296 295 319 306 290 294 306 300 315 303 257 241 239 237 232 229 224 247 275 272 259 257 232 228 219 220 223 220 219 215 215 214 213
331 320 325 326 331 331 327 325 328 325 318 316 315 314 320 326 285 288 298 355 278 283 311 262 244 239 236 238 229 240 264 279 277 223 227 226 216 217 218 214 214 215 215 215
305 314 310 315 308 310 312 308 303 303 301 303 306 303 304 306 306 315 323 329 290 289 305 297 307 262 248 239 239 236 240 257 297 244 222 224 221 215 213 214 215 216 212 203
312 295 295 310 287 293 299 298 305 288 301 302 290 302 297 295 296 297 302 306 316 322 335 277 297 316 268 257 252 247 246 244 272 296 225 218 216 217 217 211 216 218 215 214
293 285 305 300 303 292 290 289 291 289 295 294 294 293 289 293 293 294 292 294 297 304 313 321 321 284 302 282 258 253 255 241 246 287 294 227 226 225 224 221 218 220 221 219

GFSNGP_2pvu_pres_087.txt.gz
Presure
292 266 272 271 273 269 272 279 265 258 268 268 273 273 269 262 265 283 302 280 304 299 311 281 296 325 355 287 291 298 289 286 281 233 207 198 205 219 189 177 188 184 174 182
292 280 276 293 284 282 279 276 277 274 271 269 279 269 264 272 280 280 291 295 300 298 298 309 324 292 286 274 296 299 276 280 289 300 299 275 211 208 200 192 190 171 188 184
290 279 279 271 267 266 261 257 256 259 271 276 270 273 268 270 268 290 294 296 291 288 309 323 300 312 316 297 307 272 285 288 287 289 291 288 283 285 258 252 246 217 214 224
282 283 278 263 267 269 270 265 264 259 261 272 271 272 268 265 274 282 281 291 294 281 301 288 353 304 373 307 328 317 311 303 264 261 341 355 303 319 308 315 305 283 272 299
291 294 287 284 290 291 292 290 289 275 270 263 267 273 270 275 273 274 274 287 299 300 302 280 323 319 339 340 299 311 338 335 309 327 299 259 233 262 300 299 306 259 252 287
294 295 299 299 296 292 287 287 285 285 277 273 279 276 266 282 278 274 274 275 293 286 288 269 294 312 300 318 328 288 340 330 337 298 289 336 287 326 275 298 278 246 245 268
264 277 276 282 277 284 288 284 286 290 289 282 277 276 269 271 275 278 270 265 276 282 280 278 294 280 320 304 314 306 266 313 303 323 316 286 215 196 268 250 254 241 247 263
277 266 266 278 271 274 279 273 271 269 271 277 279 276 275 280 273 281 271 286 272 282 290 276 285 284 288 308 297 293 287 286 286 292 281 292 269 284 271 267 251 262 269 265
289 283 271 267 259 270 270 262 258 261 266 268 271 270 268 277 279 276 274 264 273 271 270 263 278 273 275 272 299 289 276 294 269 285 279 273 275 294 279 281 286 276 272 277
300 297 292 285 281 264 259 263 262 259 269 274 262 263 264 262 264 247 253 250 265 256 270 263 271 274 272 274 275 275 281 286 275 275 272 273 278 272 262 262 268 261 251 250
262 289 291 305 287 276 271 263 274 269 277 272 266 271 270 279 281 292 289 252 244 251 262 254 257 258 277 262 266 273 273 269 273 282 288 270 275 263 259 254 251 243 244 238
271 265 271 279 296 288 284 282 279 272 269 266 267 264 277 270 265 269 280 286 264 258 244 243 260 246 244 246 261 259 262 262 260 262 266 271 272 273 272 267 265 263 260 259
270 266 265 265 264 265 261 259 259 258 261 270 276 283 258 278 264 259 260 264 275 277 269 260 257 245 258 257 251 245 249 249 247 251 249 250 249 250 248 250 247 239 238 238
277 272 264 259 259 261 263 269 279 277 271 268 272 275 288 265 262 268 261 256 272 274 280 280 278 271 256 247 266 257 248 255 253 259 251 246 244 242 240 239 239 245 255 254
296 280 273 268 263 258 257 265 276 263 264 266 260 265 280 282 272 263 257 250 273 274 276 277 276 273 266 268 256 253 259 249 265 263 263 266 264 265 260 256 247 240 240 237
301 296 290 277 270 268 262 259 261 254 250 254 257 252 253 265 277 276 263 264 265 266 269 271 271 268 264 262 255 257 259 260 260 251 250 247 240 240 241 238 238 232 245 258
300 305 291 302 288 276 269 264 258 260 258 251 250 251 251 247 247 260 270 274 272 263 260 262 264 262 261 263 260 255 266 252 252 250 247 241 239 244 244 236 236 262 253 237
286 297 301 294 315 298 286 278 271 262 260 263 256 248 249 260 247 240 246 254 261 266 269 269 265 260 258 260 261 256 259 255 252 250 248 248 244 249 257 269 265 249 231 228
284 288 288 305 296 319 305 289 281 279 271 267 264 262 259 251 252 250 240 239 242 246 253 262 265 268 269 272 272 265 260 257 256 254 256 262 271 274 275 262 247 228 232 232
285 285 288 289 298 299 294 293 304 293 285 283 279 274 269 263 260 252 250 248 238 239 239 235 240 246 255 264 267 268 269 271 271 270 273 269 267 265 255 232 225 233 233 227
290 286 289 291 302 290 290 297 296 294 291 294 299 300 297 288 280 275 267 258 249 251 240 239 238 230 229 227 223 226 231 232 261 267 262 256 250 242 238 223 235 233 233 236
291 290 289 287 291 292 286 281 283 286 296 303 301 292 289 290 300 306 308 298 289 279 257 247 239 239 240 234 228 229 238 253 246 239 238 242 243 241 230 230 230 234 229 230
295 292 287 287 287 287 288 289 287 283 286 322 325 326 312 293 286 287 286 294 302 306 307 312 295 253 241 238 239 238 232 227 227 236 259 250 242 245 248 242 235 237 237 235
311 303 295 291 291 288 287 288 289 289 311 308 313 326 295 318 318 307 295 334 297 299 308 339 342 342 305 275 249 238 238 239 236 236 226 235 270 263 251 234 246 232 217 216
312 320 319 317 310 319 331 324 323 326 320 322 317 314 310 308 305 315 311 308 308 312 320 321 326 332 335 322 280 296 255 242 237 236 236 239 229 240 267 275 275 215 224 231
311 302 312 313 303 313 304 311 295 304 316 310 312 304 298 302 308 296 304 302 300 303 302 304 306 316 327 326 331 347 278 306 259 249 244 237 236 236 232 242 272 297 248 221
301 292 303 315 315 302 290 293 308 294 292 295 288 289 287 288 290 290 291 290 290 292 293 298 298 299 305 310 315 340 334 281 308 277 260 254 251 248 241 244 235 266 297 288

GFSNGP_2pvu_pres_093.txt.gz
Presure
291 289 285 302 289 296 294 299 298 260 252 265 260 253 255 262 273 270 242 242 268 275 287 269 298 302 276 280 264 231 226 222 216 212 207 201 201 200 197 192 190 186 189 187
300 289 294 276 276 287 291 308 278 271 263 266 250 264 272 261 263 266 274 272 261 259 269 280 274 279 299 311 291 279 277 267 246 233 226 220 215 210 212 207 206 206 202 200
286 282 289 285 273 274 278 289 274 272 281 272 272 259 252 254 257 269 261 259 266 265 257 264 266 271 280 287 298 306 311 293 304 295 294 283 273 241 234 228 220 218 213 214
278 287 283 271 272 270 274 275 276 274 272 271 269 273 266 265 263 264 260 269 274 278 270 269 267 285 264 267 290 304 303 300 315 326 323 307 284 364 280 288 311 286 282 264
289 287 278 261 265 272 284 284 268 271 268 266 267 267 265 264 263 263 275 273 263 276 282 283 258 282 292 292 268 259 261 283 299 303 308 320 315 300 302 310 343 317 291 231
305 299 278 271 263 270 276 277 283 270 270 276 273 264 273 273 263 263 260 262 278 270 285 275 280 288 298 310 278 276 281 328 335 317 298 299 333 304 337 234 297 282 280 143
301 297 299 292 282 271 268 263 281 282 274 266 261 264 274 277 282 278 270 267 262 272 271 260 272 292 277 276 264 282 267 294 326 298 305 338 346 307 311 317 275 270 157 170
314 312 298 297 287 288 286 267 286 273 274 271 273 271 271 264 259 272 265 287 266 263 260 281 276 284 279 273 276 277 282 293 288 322 203 326 319 340 339 320 343 324 295 297
297 296 290 306 305 304 297 282 272 267 268 268 265 268 264 276 274 279 261 274 271 262 280 278 274 276 279 274 268 275 266 274 274 294 279 296 303 306 301 288 306 307 314 280
287 278 280 279 273 275 288 298 302 298 296 298 300 275 281 281 285 268 280 281 274 291 279 279 283 287 290 274 264 280 287 267 281 265 281 292 286 283 281 284 285 299 296 307
287 280 274 276 275 272 271 266 260 269 273 273 277 281 277 273 274 270 268 265 266 263 264 266 265 274 274 274 269 258 248 272 265 274 269 276 288 268 269 279 270 274 274 276
296 287 272 270 272 275 274 275 271 267 262 250 254 260 265 252 253 260 258 258 260 263 272 273 253 251 263 254 263 258 265 265 271 258 261 267 267 275 279 283 277 273 262 261
311 290 272 270 264 261 268 281 282 284 284 276 275 259 258 262 265 264 268 271 270 269 270 264 273 273 286 282 245 258 267 242 256 266 262 256 249 266 265 266 272 276 277 274
319 310 288 271 262 267 262 262 273 276 295 295 289 278 267 268 272 272 269 261 259 261 257 270 271 262 265 268 295 268 251 247 249 248 260 252 252 257 254 246 258 254 261 265
326 315 308 293 278 272 266 261 263 265 270 292 287 281 275 266 259 258 255 261 271 271 278 257 269 272 260 259 264 277 280 270 253 258 239 253 249 238 248 246 248 249 249 246
332 320 312 302 300 286 275 268 265 261 261 263 262 262 260 260 262 270 272 268 268 270 275 280 263 266 255 268 262 259 270 270 277 279 278 252 244 247 249 248 251 246 242 242
334 332 316 306 296 295 293 281 272 269 264 259 257 257 259 262 262 275 267 264 264 260 266 275 274 268 263 263 259 253 268 272 273 274 277 280 265 269 258 266 251 249 248 254
351 335 330 312 305 305 299 303 294 279 272 269 268 263 259 256 255 264 260 258 259 261 255 257 269 275 276 272 262 262 262 265 267 268 270 270 269 266 270 262 256 252 258 254
335 328 322 311 318 311 299 300 304 297 296 286 276 271 269 264 261 257 254 259 255 250 251 256 250 242 244 258 266 268 269 265 257 255 260 265 265 267 264 266 260 261 255 258
344 324 311 310 302 302 295 290 294 295 292 298 300 292 285 281 274 267 263 261 258 258 261 256 247 249 254 254 245 245 250 263 269 271 270 266 258 257 260 264 263 263 258 263
358 338 316 304 297 296 298 296 295 289 279 283 291 297 295 292 296 289 285 279 275 271 266 262 258 260 262 259 251 251 253 248 242 242 240 262 271 275 273 268 263 260 261 260
354 346 330 313 302 294 290 290 291 291 289 285 285 285 288 297 300 300 309 303 298 295 289 286 283 277 275 273 270 266 263 258 253 252 251 242 239 237 240 258 273 275 275 275
354 342 338 333 312 298 294 290 289 288 289 288 286 283 286 295 289 287 294 302 302 301 301 302 306 313 318 312 314 311 309 304 284 274 266 259 253 248 239 236 234 231 227 227
358 345 333 330 320 323 300 291 291 290 288 285 288 289 287 284 286 289 292 291 284 285 286 287 287 291 330 334 335 342 344 305 299 296 315 346 304 279 264 254 246 240 238 239
388 361 342 329 324 315 319 312 303 297 290 290 289 288 287 287 287 287 286 284 283 285 288 291 309 303 282 309 312 311 312 314 318 321 329 328 291 281 290 306 314 274 253 245
377 363 371 342 327 321 315 307 305 312 314 308 301 300 292 302 302 311 305 305 298 293 291 305 314 306 305 303 308 306 303 306 308 306 309 312 311 310 316 318 324 310 316 322
381 362 358 388 344 326 319 312 305 305 302 301 305 305 308 311 314 307 309 307 307 310 309 302 298 301 294 293 296 302 303 302 302 305 305 304 305 305 308 311 312 317 324 339

GFSNGP_2pvu_pres_096.txt.gz
Presure
303 291 285 311 290 303 314 291 304 282 279 258 256 273 265 250 263 259 262 265 268 272 272 272 279 281 289 295 271 237 230 228 223 218 217 213 210 208 206 204 196 240 184 181
300 250 297 283 313 298 292 298 291 285 271 287 282 271 253 255 249 246 255 248 258 272 274 278 278 284 296 295 283 287 296 287 248 241 111 232 228 224 224 222 217 212 208 198
307 295 265 298 295 290 295 293 299 291 286 267 274 269 259 258 253 248 248 247 247 244 269 253 250 250 262 271 288 280 274 286 285 282 280 268 246 239 238 230 226 225 224 222
301 291 277 282 283 274 282 286 295 291 296 307 261 265 255 266 264 257 251 255 261 259 271 264 263 274 274 268 267 262 283 277 263 265 271 279 284 282 277 270 258 248 243 240
293 279 280 273 265 273 269 273 276 278 288 289 286 275 256 248 263 263 247 248 254 255 253 260 264 265 263 277 273 272 271 269 271 275 278 295 297 308 318 318 316 298 281 281
300 296 279 277 273 276 275 262 272 276 280 276 286 272 262 265 266 270 259 248 246 250 255 258 254 256 256 274 257 259 260 261 262 267 296 321 293 306 272 306 405 335 309 309
306 303 297 283 278 285 280 270 273 270 268 273 278 276 270 267 264 264 267 263 258 253 255 260 261 271 271 274 275 278 278 278 279 279 277 291 292 332 327 341 321 369 379 323
331 321 311 307 300 276 272 266 264 279 274 277 268 263 265 271 267 262 263 262 267 267 264 264 268 261 267 269 273 286 280 264 281 281 277 284 282 299 301 295 323 335 367 368
307 293 319 304 296 301 289 278 265 263 268 271 272 279 277 262 268 269 267 267 281 281 281 282 274 275 277 271 263 275 269 280 274 274 280 285 281 279 307 301 309 320 317 330
311 300 287 303 309 309 296 291 284 282 284 269 262 268 272 277 262 260 261 267 268 271 267 261 263 262 259 274 272 282 279 278 273 290 285 273 272 283 276 301 298 276 307 298
317 299 291 281 283 285 289 299 301 259 302 304 294 276 275 265 266 267 267 267 274 280 288 270 273 276 271 277 282 278 272 284 278 263 271 270 266 264 275 271 289 280 273 278
344 314 300 288 281 274 276 275 272 277 280 286 285 285 287 286 286 288 293 288 288 286 284 283 276 282 293 273 268 268 273 282 270 256 264 270 252 264 264 266 267 279 279 280
343 336 320 299 287 283 273 272 272 272 271 270 264 257 272 272 274 275 281 274 265 260 257 262 268 265 264 271 273 259 280 250 263 266 254 265 265 266 255 255 261 264 264 266
352 338 326 321 302 293 284 275 267 264 270 274 277 278 275 271 252 250 251 254 252 260 264 267 269 269 271 271 273 277 274 274 274 258 263 254 251 250 266 261 257 252 258 261
375 341 333 321 316 305 288 286 269 269 263 261 261 278 291 291 296 285 269 265 265 266 269 269 265 260 262 266 262 275 274 266 264 278 294 260 249 256 254 248 254 249 251 256
271 361 337 324 320 314 308 295 283 274 273 264 263 263 267 286 299 296 276 274 277 270 261 254 252 266 270 276 284 263 274 275 262 262 265 280 283 265 258 245 249 246 239 251
254 366 349 335 329 315 309 307 300 289 279 272 270 264 261 262 263 273 273 269 259 259 264 273 271 266 266 272 279 277 267 266 262 270 266 262 271 275 274 278 283 264 248 251
245 370 369 341 328 322 318 307 302 299 296 285 275 272 267 262 258 257 255 258 259 260 261 271 267 262 264 259 263 273 276 271 267 264 262 262 260 268 275 275 276 274 280 268
243 320 375 354 339 329 323 318 304 303 297 290 290 281 276 273 269 264 261 259 257 255 255 255 264 262 258 254 253 252 250 253 261 273 273 271 267 263 261 264 270 270 271 267
237 302 389 370 339 326 340 325 324 305 301 297 296 295 295 291 281 276 272 269 267 263 261 261 258 253 254 256 252 251 251 251 253 255 249 245 251 269 274 273 266 262 263 265
231 272 385 373 361 338 319 308 305 300 311 305 294 288 290 294 295 297 295 289 283 278 275 273 267 263 262 261 259 254 253 258 261 260 257 253 251 251 246 239 246 261 273 274
223 253 393 374 358 353 336 315 303 298 292 292 293 291 288 289 290 290 295 297 298 295 289 287 286 285 285 283 279 277 275 273 269 268 269 269 268 263 261 256 252 251 239 235
242 255 407 384 361 345 343 332 315 302 295 291 290 291 292 291 289 280 278 279 280 285 294 300 300 299 298 300 301 302 302 304 309 313 315 318 314 301 288 278 268 263 258 253
241 253 301 405 380 348 338 333 329 317 304 293 290 285 286 286 287 285 281 281 281 283 288 314 307 298 284 284 283 282 281 285 289 290 296 333 336 336 330 305 307 308 315 311
244 255 288 404 388 383 344 332 330 321 320 309 299 293 287 283 281 283 283 285 287 289 289 287 289 290 289 290 289 288 282 286 322 304 312 316 308 305 308 313 318 321 293 290
253 273 282 419 394 389 383 346 334 327 322 315 314 307 294 288 289 290 288 289 292 297 291 291 288 289 288 292 292 294 306 304 304 304 303 306 306 304 304 306 307 309 310 310
259 290 278 408 390 373 362 345 353 334 323 318 314 305 304 310 308 303 302 309 310 304 313 316 317 315 316 309 309 308 308 307 308 310 306 301 305 310 309 311 312 312 305 306

GFSNGP_2pvu_pres_099.txt.gz
Presure
302 297 294 295 304 304 298 297 316 318 314 302 303 268 287 268 304 262 268 260 251 254 252 251 250 250 253 255 257 249 245 237 214 194 192 190 190 184 191 187 187 185 185 183
296 292 265 285 290 305 338 304 308 310 337 306 281 279 302 282 275 289 255 258 290 273 265 256 255 255 255 258 263 268 264 262 255 244 233 227 214 204 202 195 195 195 194 196
304 299 291 303 294 286 310 294 308 305 298 279 272 287 270 292 302 267 270 267 269 264 264 259 261 265 269 271 274 281 293 290 298 287 281 298 304 285 254 238 235 229 226 227
303 301 296 292 291 287 282 296 296 288 303 284 277 278 269 278 278 288 260 257 253 251 255 257 259 257 258 267 259 268 275 263 260 285 282 274 276 278 281 284 286 284 274 262
297 296 280 272 282 288 290 289 284 288 292 287 281 285 274 268 269 280 259 253 252 251 251 252 254 244 249 254 250 256 260 269 274 281 284 283 260 250 260 289 266 267 270 274
315 306 283 283 294 280 268 269 283 282 287 297 293 284 279 261 276 265 264 268 270 250 256 255 256 258 257 259 262 261 261 261 260 265 275 278 273 280 310 315 292 292 297 297
321 313 307 287 276 279 261 275 271 270 273 273 281 292 303 294 275 261 264 266 253 251 250 251 252 253 253 251 254 257 257 261 263 282 286 288 286 279 288 301 299 294 331 339
331 317 320 301 296 279 271 272 269 274 269 268 269 266 272 283 277 283 279 264 257 255 254 257 254 253 254 256 256 254 254 266 273 275 276 276 287 304 286 279 284 279 301 326
342 324 308 321 317 307 295 274 271 287 275 276 268 264 261 261 276 274 279 264 268 270 270 270 265 261 259 261 261 269 265 271 268 279 283 268 284 288 280 282 278 286 287 302
389 336 317 301 293 316 299 307 298 281 275 266 260 267 272 265 266 266 266 274 267 265 264 263 255 258 270 259 269 275 278 271 274 269 269 269 285 290 277 277 284 276 277 279
118 381 331 311 297 285 303 303 290 288 288 278 269 264 260 262 273 271 275 270 266 263 264 264 265 264 262 266 264 266 264 266 274 280 265 281 284 297 282 274 288 272 271 275
160 393 368 330 311 299 285 282 293 296 299 295 286 283 281 281 281 272 270 257 260 269 273 275 276 280 268 267 275 287 258 284 292 290 283 277 272 275 273 268 271 271 263 265
230 274 379 354 336 312 298 285 276 275 273 282 286 284 284 289 294 291 291 292 291 275 274 283 292 291 286 281 278 270 269 271 275 282 268 272 278 277 272 265 266 267 258 257
109 253 328 374 351 334 318 300 287 276 273 268 269 269 271 270 266 272 271 274 276 277 275 274 276 270 272 264 261 257 267 275 275 279 275 282 271 269 250 258 268 270 264 264
114 255 265 322 362 347 333 326 311 292 283 273 270 262 267 268 269 270 266 263 259 256 270 264 272 270 257 254 260 269 273 267 267 267 269 275 268 270 273 285 263 251 251 248
228 251 246 282 371 357 341 333 322 316 306 294 285 270 273 261 265 261 276 281 286 296 297 261 258 256 258 265 267 269 265 260 252 264 285 260 276 269 269 262 277 293 256 258
231 240 244 264 378 363 356 336 326 322 314 310 298 288 285 271 271 264 262 261 268 273 297 292 285 278 269 276 267 260 256 268 270 275 281 276 264 274 266 262 264 264 263 287
229 224 239 257 255 315 362 344 339 331 325 313 304 302 291 281 277 272 267 265 263 261 267 279 278 276 270 257 256 267 274 267 264 262 269 278 278 273 270 267 265 265 264 268
228 225 238 251 257 287 373 368 344 329 314 317 307 300 296 298 291 282 268 270 265 263 260 259 255 256 257 259 260 262 271 263 259 262 256 251 254 259 267 274 277 274 267 266
227 225 235 238 250 294 369 381 355 341 324 314 314 308 298 295 288 289 294 285 274 270 264 260 259 259 257 257 255 258 257 258 263 262 256 252 252 253 252 251 251 247 246 253
218 238 237 245 237 291 367 386 374 356 330 317 327 323 312 295 293 292 294 290 288 290 281 275 270 268 267 267 267 265 264 263 264 264 260 259 259 259 259 260 260 257 253 250
218 242 230 225 240 287 343 403 378 364 351 327 310 306 310 313 299 305 294 291 290 294 290 287 288 289 287 285 283 280 279 279 279 277 275 275 273 271 270 270 270 270 269 267
226 239 250 230 250 273 291 355 395 366 354 342 325 306 300 297 292 293 302 295 290 283 285 289 287 287 295 294 295 296 295 295 293 293 298 300 304 307 308 308 311 313 315 318
221 235 244 245 255 296 336 360 415 390 362 344 335 322 310 297 292 289 288 285 285 284 282 282 282 278 277 279 280 280 283 292 293 295 296 300 302 298 292 287 288 289 291 315
219 236 235 250 244 294 348 363 357 390 395 352 342 331 323 315 305 295 292 288 284 284 283 283 284 283 279 278 278 279 282 289 321 337 297 292 290 296 295 289 290 296 299 317
226 212 239 239 228 291 336 357 358 410 373 385 338 335 330 321 315 307 302 294 289 284 281 282 281 281 281 282 286 290 292 292 292 293 291 292 290 318 304 310 308 308 308 313
234 213 249 238 276 290 323 358 348 361 388 356 354 342 326 325 320 311 308 305 295 292 290 283 287 291 292 292 291 291 315 315 317 327 316 317 319 315 314 310 310 314 317 316

GFSNGP_2pvu_pres_102.txt.gz
Presure
131 214 300 302 305 295 293 327 329 309 330 317 303 313 283 330 308 286 302 302 288 294 285 262 259 257 255 255 252 250 249 252 254 252 253 253 250 223 187 183 198 200 205 233
296 118 300 293 302 296 312 313 327 336 313 333 306 294 306 312 280 307 288 270 281 272 263 259 260 260 257 253 250 250 252 255 253 252 251 249 244 241 232 225 219 210 182 198
163 304 301 295 303 309 307 298 312 323 302 313 325 299 288 279 286 289 289 322 279 272 276 269 262 261 256 252 252 252 253 253 255 257 259 262 263 266 263 257 255 254 238 213
303 305 298 294 306 291 292 325 290 302 291 312 303 301 291 291 288 272 270 293 269 262 259 263 256 253 255 252 245 242 252 255 258 267 279 272 289 297 288 288 288 300 295 286
311 299 290 297 294 295 287 289 303 294 300 299 302 286 280 278 275 287 315 284 280 278 281 288 252 249 251 267 267 262 261 268 262 272 268 261 260 259 260 252 258 309 267 292
332 315 293 286 290 292 278 280 279 288 290 298 286 281 282 279 269 278 277 299 294 272 272 270 262 258 259 256 254 255 254 261 258 258 261 262 254 264 268 276 257 302 285 299
362 331 316 298 285 280 280 279 278 280 284 292 282 285 286 281 274 270 267 271 280 287 270 264 264 267 261 259 259 255 254 258 260 271 270 269 263 269 267 258 283 273 283 301
265 356 331 327 306 289 280 282 277 276 274 283 285 292 291 281 277 278 278 271 267 260 272 273 269 260 256 257 263 266 259 259 255 251 257 259 263 272 271 268 264 285 293 296
257 316 355 335 321 323 301 280 285 270 267 264 266 273 275 282 294 299 274 267 265 257 257 256 266 254 255 257 254 249 249 254 254 257 260 264 262 267 276 286 288 277 279 287
227 257 229 109 302 322 328 317 293 278 278 271 274 268 267 262 267 272 275 290 288 278 265 260 255 254 253 251 251 252 255 259 262 262 256 255 263 274 276 273 268 277 276 289
236 247 111 285 358 332 314 305 311 316 301 290 276 270 279 270 265 260 266 261 262 268 277 280 277 273 270 271 271 270 265 260 257 259 268 264 272 270 283 290 279 278 286 287
226 238 247 256 306 365 333 313 299 298 306 297 300 300 282 277 269 263 262 262 264 266 261 262 263 263 267 267 266 264 266 264 263 261 277 268 281 289 289 292 291 283 281 271
242 228 242 246 264 338 370 336 314 299 295 289 299 291 286 287 280 266 262 260 259 261 265 269 264 265 266 253 265 269 267 272 262 263 289 285 273 276 276 275 278 278 275 275
223 229 230 252 259 253 332 365 346 321 303 295 288 283 286 293 294 294 291 290 294 299 301 297 299 293 288 274 273 273 292 288 279 276 277 273 268 268 278 278 281 275 289 277
234 226 226 238 254 252 343 388 366 345 334 312 300 286 280 275 275 278 277 270 269 273 272 273 273 273 275 275 275 273 273 273 267 266 261 259 266 277 269 272 271 269 275 268
234 221 217 244 246 250 275 323 386 361 346 332 326 308 294 286 275 274 271 264 264 266 266 263 262 261 262 258 257 270 264 247 247 264 261 263 267 270 262 257 276 275 259 274
241 214 244 219 251 231 251 312 410 374 363 344 335 323 319 313 293 283 276 266 269 257 264 267 268 275 278 278 285 293 268 258 258 253 261 270 269 253 269 267 278 277 270 265
210 226 225 222 242 228 202 250 406 415 375 356 340 325 315 314 311 307 301 288 278 267 268 259 262 258 259 268 283 292 287 279 275 269 274 264 256 268 265 263 257 269 280 277
224 220 248 226 228 241 255 251 245 389 413 383 349 338 334 320 312 301 300 299 295 280 276 269 267 264 263 263 262 266 278 276 274 270 259 255 258 270 263 259 261 256 253 259
238 222 204 225 239 244 252 247 254 317 373 406 382 355 330 318 307 312 305 296 295 297 294 279 269 266 266 260 259 259 260 259 256 257 258 258 257 256 260 262 257 254 253 252
224 225 219 233 225 237 250 247 242 262 361 363 393 383 351 334 316 309 305 301 297 295 293 290 289 288 280 267 265 262 256 254 255 256 256 257 258 259 258 260 260 259 259 258
226 212 222 220 226 233 251 236 251 263 315 364 359 386 371 358 336 317 307 310 304 299 290 289 285 284 281 280 281 278 272 268 266 265 266 268 269 271 272 271 272 273 273 273
229 220 213 222 229 227 246 239 243 264 312 355 353 392 369 352 349 332 318 300 317 313 313 297 290 289 289 284 282 285 287 287 287 288 292 294 294 295 298 298 297 297 297 299
227 219 219 229 209 226 256 236 242 263 303 331 357 379 406 354 345 335 328 317 303 296 297 300 290 293 302 293 287 285 285 285 287 287 287 287 282 283 283 284 295 291 293 296
228 232 215 246 224 226 239 230 246 261 301 330 362 351 390 385 350 335 329 326 323 316 301 292 288 283 284 285 286 285 281 282 282 283 278 277 278 278 278 279 282 288 293 293
215 211 216 213 235 242 232 258 248 263 302 329 363 361 403 371 373 348 333 330 320 317 310 305 301 292 285 281 280 281 282 281 282 282 281 280 279 280 284 291 293 295 298 302
214 218 240 215 238 227 243 249 255 289 305 327 354 353 377 383 355 340 344 329 328 321 314 309 308 303 297 295 291 285 283 282 282 283 286 288 289 291 292 297 312 311 327 335

GFSNGP_2pvu_pres_105.txt.gz
Presure
317 323 322 322 315 311 309 348 324 320 299 311 301 268 265 268 263 257 256 259 258 256 257 262 257 258 266 266 263 251 178 236 259 260 251 251 249 248 249 253 229 226 233 248
314 313 311 309 308 301 323 321 331 358 339 331 308 316 277 273 268 270 271 275 275 273 269 271 270 266 266 262 206 266 268 252 253 300 266 264 266 251 251 251 263 262 257 260
321 323 311 305 294 305 296 294 304 339 332 335 362 351 322 276 272 273 267 267 269 262 266 269 265 266 260 270 273 278 272 280 277 272 266 257 254 263 260 256 252 217 259 257
319 311 307 318 309 308 300 296 295 318 337 317 329 347 356 324 327 321 310 324 301 295 291 281 279 286 290 289 290 323 297 264 258 254 253 253 208 190 253 256 257 186 247 265
289 323 309 305 302 314 299 296 322 296 329 318 316 325 309 306 308 314 314 287 284 332 344 297 288 314 305 299 267 263 260 259 258 257 252 252 250 251 256 249 262 277 261 279
257 336 319 310 304 303 317 294 312 315 296 307 298 313 328 307 286 284 284 289 292 316 276 276 276 274 270 252 281 269 255 255 251 243 255 253 250 250 259 264 271 275 264 285
263 233 329 324 310 304 297 302 302 297 303 292 298 297 308 310 292 284 292 295 293 303 272 257 295 284 260 266 264 256 253 252 248 257 261 250 259 258 255 262 261 263 249 266
230 257 259 332 337 308 300 297 292 289 286 285 289 292 290 292 283 280 277 277 289 277 291 291 283 278 274 267 269 273 262 270 261 256 252 260 268 263 251 248 254 261 260 273
241 239 166 269 110 193 254 304 293 284 290 278 284 284 288 291 281 281 281 264 276 267 270 278 299 281 270 267 271 259 262 264 253 253 250 249 246 260 264 258 261 257 265 269
241 238 244 264 256 305 359 342 314 298 286 284 280 281 278 284 295 291 285 276 281 279 268 262 265 265 262 282 274 266 259 260 259 257 258 260 265 253 253 257 255 270 268 263
222 233 211 229 250 263 257 361 343 331 320 294 286 283 278 275 268 269 277 284 291 294 274 272 264 262 261 256 255 257 257 255 256 253 253 252 253 251 251 263 271 265 278 265
223 230 232 245 244 251 240 264 372 341 327 326 315 288 283 274 276 274 270 268 270 265 271 280 289 273 263 260 258 258 257 256 255 254 257 261 273 274 265 262 265 270 275 273
231 223 209 244 248 250 234 239 262 378 344 324 315 310 323 316 287 280 270 270 267 266 265 261 264 267 266 268 271 278 280 274 273 278 277 273 268 265 272 273 276 263 290 282
208 223 245 224 253 226 243 246 259 259 393 358 327 315 305 302 305 300 303 287 277 283 272 270 265 260 256 256 261 262 259 260 262 263 264 259 253 268 266 263 290 280 279 265
246 226 223 221 239 239 231 255 266 250 261 406 371 340 314 303 297 293 293 292 289 284 283 274 269 266 263 264 264 267 266 267 266 265 264 277 292 288 282 278 272 268 260 266
229 222 222 225 241 220 241 232 248 243 252 339 404 378 349 328 305 292 290 280 286 285 288 289 289 291 292 292 289 284 282 282 281 280 279 277 275 270 268 266 275 268 264 267
198 224 239 232 211 235 214 229 247 262 241 238 437 410 382 351 336 326 300 290 283 277 267 272 273 273 269 265 265 263 261 261 261 260 260 260 257 266 250 260 256 253 266 273
224 222 225 217 232 244 218 234 228 257 249 239 302 424 417 377 358 340 325 319 310 287 279 274 268 265 267 263 261 263 263 262 264 266 274 274 281 301 292 284 266 266 270 261
214 235 214 219 234 213 233 226 222 249 243 234 302 316 390 415 384 349 336 323 322 313 311 301 274 274 271 267 264 265 253 257 263 259 258 264 274 287 280 275 270 265 266 256
228 246 221 216 213 240 218 212 229 238 254 250 290 313 323 386 407 380 351 332 329 310 306 303 305 307 301 293 287 283 274 263 261 257 258 260 260 264 274 271 267 266 258 257
231 238 222 222 218 214 231 220 218 225 257 250 247 311 319 326 375 398 375 353 326 321 316 316 309 300 294 295 292 287 274 270 269 264 264 260 258 258 258 258 256 254 252 254
193 214 245 235 219 232 225 215 227 234 251 248 269 300 310 316 363 371 393 365 348 326 312 304 298 294 295 294 291 291 290 288 282 277 269 263 262 261 260 258 256 254 256 259
227 225 199 246 216 242 212 243 215 246 249 251 301 290 305 312 357 369 407 379 352 340 324 317 302 299 296 292 293 285 284 284 283 282 281 280 281 280 278 274 272 272 278 284
213 239 216 236 223 233 195 215 219 249 237 253 287 312 300 315 338 364 377 399 358 338 332 322 321 305 305 303 299 305 294 285 281 284 281 283 284 287 287 285 288 292 293 292
231 240 230 233 214 235 228 213 226 236 244 255 284 304 305 322 323 363 367 389 377 341 332 322 321 319 310 301 296 296 297 301 298 289 288 295 296 294 285 282 280 280 283 285
215 237 209 236 224 234 231 217 253 246 250 270 320 303 315 324 322 362 387 391 365 365 337 325 319 312 311 312 308 304 294 289 288 285 281 281 282 285 287 288 287 288 289 290
235 244 211 231 230 237 208 205 247 245 269 312 302 314 321 321 331 361 371 388 380 344 353 338 327 320 312 308 308 308 306 303 296 292 287 285 283 282 281 281 282 283 284 287

GFSNGP_2pvu_pres_108.txt.gz
Presure
330 340 374 344 327 315 327 274 277 260 264 254 254 258 258 258 254 258 256 248 246 240 238 270 267 264 268 277 241 237 289 226 210 231 216 183 229 210 175 181 242 190 184 181
322 319 327 325 329 340 327 328 339 272 271 264 261 254 253 253 258 256 268 254 253 255 268 245 266 244 249 253 248 263 297 271 206 198 273 138 154 288 229 264 233 262 258 184
316 313 317 308 314 319 325 326 332 326 270 265 257 261 258 254 261 261 258 268 272 268 240 242 245 259 255 261 254 269 269 240 262 255 260 252 259 221 158 252 217 211 247 200
344 334 326 321 310 304 307 309 317 342 345 336 273 269 268 265 269 264 264 267 257 257 269 271 259 258 253 277 262 258 249 251 254 252 256 264 258 235 231 249 243 248 246 260
234 286 330 327 325 309 315 318 307 320 310 350 351 333 310 275 275 271 265 268 264 263 260 260 259 260 265 258 257 249 256 253 255 260 267 273 268 272 283 279 260 250 266 265
224 226 277 331 333 328 313 321 314 312 312 333 337 338 330 341 350 310 269 266 274 258 265 274 270 265 259 256 250 254 261 273 266 282 261 269 275 272 277 305 279 268 261 261
213 208 233 269 312 330 258 117 326 311 328 305 304 324 316 317 326 338 342 307 277 272 272 275 262 264 258 258 272 271 276 273 275 269 271 264 285 297 281 262 260 255 251 249
216 240 260 263 223 246 276 330 306 315 316 317 307 298 301 317 309 319 320 309 314 311 315 317 314 300 300 315 290 331 336 319 305 322 279 278 284 253 249 246 252 246 249 246
234 254 221 251 267 246 262 275 331 322 316 309 304 296 293 303 298 309 286 296 307 292 286 286 291 297 291 296 301 308 266 271 281 265 280 256 251 250 252 249 274 273 259 256
216 203 240 209 224 266 226 266 277 350 327 313 305 300 295 291 289 289 290 297 307 285 284 283 280 295 277 300 287 283 265 254 254 271 271 256 247 239 264 259 268 265 260 249
222 215 226 229 218 245 249 244 221 263 372 346 321 304 301 292 287 287 283 279 288 281 280 275 277 270 273 275 279 298 278 273 281 286 285 285 277 257 253 257 252 251 249 253
217 204 242 225 219 209 235 262 248 239 267 411 376 347 314 301 289 282 279 283 285 293 287 284 282 276 274 270 261 267 272 280 281 270 268 265 260 260 261 259 261 249 260 258
164 226 226 211 248 228 213 228 257 228 257 273 349 397 362 339 329 297 283 278 275 272 275 270 272 277 293 292 273 264 269 265 258 257 256 255 254 253 253 252 253 261 256 253
206 226 214 225 213 218 224 213 231 245 230 259 278 313 418 382 345 324 320 303 280 277 272 267 267 264 269 261 267 278 285 279 266 260 257 254 252 257 259 263 261 262 268 274
190 202 226 220 220 227 203 212 213 252 224 243 226 267 309 436 400 361 327 314 304 306 294 283 276 269 267 266 264 262 259 260 267 271 273 272 267 258 259 261 261 259 262 265
212 235 197 232 227 220 224 217 231 229 230 225 236 279 293 318 395 418 379 336 311 303 297 303 302 300 287 266 263 264 268 266 266 264 261 259 259 260 257 259 261 264 290 288
220 215 198 220 210 218 228 202 229 228 246 215 249 237 299 305 319 339 424 388 356 315 299 296 291 293 291 289 288 283 276 277 268 264 263 263 266 297 291 287 284 284 279 277
213 201 199 227 217 230 221 233 258 227 220 246 247 246 278 302 323 314 333 425 392 361 336 308 293 290 283 279 281 286 288 288 287 288 289 288 283 273 268 265 266 263 263 259
216 216 225 211 245 229 225 230 217 223 207 231 242 253 272 298 306 305 334 363 418 397 360 343 327 311 292 286 281 278 273 267 269 267 269 267 259 262 263 263 262 264 270 275
222 215 178 214 226 235 224 211 215 238 212 251 255 253 268 288 300 307 318 329 389 377 393 360 340 332 320 310 302 287 278 279 275 267 259 260 260 259 255 254 258 262 262 256
211 204 212 227 219 228 214 250 214 213 209 244 223 247 275 300 300 306 323 341 329 384 365 394 369 337 329 315 311 306 301 296 287 277 275 268 266 265 260 262 263 261 259 257
158 214 227 227 222 236 202 245 220 211 224 236 235 253 274 281 294 303 318 339 325 378 371 419 379 359 345 323 320 303 296 297 297 293 293 294 293 291 289 284 277 271 265 265
233 220 210 227 219 218 224 229 222 232 250 239 231 230 269 309 296 312 325 336 330 368 369 363 396 358 350 335 320 310 305 303 303 299 294 290 288 288 288 287 281 274 271 269
231 214 220 223 243 211 230 209 243 216 219 248 226 249 273 281 293 314 321 324 342 364 368 368 388 361 346 334 328 320 301 295 291 287 287 290 291 288 287 284 283 281 284 283
221 207 232 220 229 228 235 198 227 214 207 256 229 252 290 310 297 319 328 338 357 364 370 367 384 366 339 337 325 322 324 311 300 291 286 288 288 289 290 285 281 280 282 284
219 222 226 233 232 225 235 226 234 247 217 260 237 247 277 298 318 327 330 357 357 360 368 367 382 373 349 336 330 323 315 312 311 306 304 297 294 295 294 301 298 297 296 300
213 232 232 218 232 229 247 239 235 237 249 217 254 241 279 310 325 325 361 358 364 363 364 367 378 361 351 345 334 328 323 311 309 307 305 305 305 299 302 308 297 291 291 292

GFSNGP_2pvu_pres_111.txt.gz
Presure
346 336 330 357 351 286 288 288 273 262 263 256 259 260 246 250 253 258 247 236 262 268 284 248 251 236 211 201 200 195 189 204 156 185 165 154 178 170 183 186 145 148 153 178
335 392 343 334 355 359 290 284 290 278 274 265 260 266 255 251 244 235 239 240 245 255 268 284 253 267 239 247 199 197 199 198 190 185 178 184 184 189 183 170 143 177 179 189
149 336 333 344 347 352 343 289 277 290 280 261 279 282 265 263 252 246 243 255 237 245 243 244 241 265 280 255 234 219 213 200 194 200 154 198 197 195 195 193 191 176 185 174
231 350 347 336 333 350 367 280 297 306 274 270 261 272 267 269 257 261 257 246 247 259 251 244 246 269 267 267 257 243 234 235 224 213 204 203 204 203 204 206 178 202 197 195
227 232 323 266 352 334 347 356 302 276 276 275 270 258 275 268 263 260 251 261 255 260 255 256 248 267 268 265 260 263 289 272 264 251 238 236 222 223 215 215 223 212 222 230
279 212 270 213 243 366 368 343 318 231 364 297 275 260 270 256 266 266 266 249 254 250 250 248 258 253 247 248 252 252 255 240 262 264 258 258 276 264 265 267 283 262 215 226
141 271 244 219 240 267 316 213 138 346 341 337 305 284 274 274 268 257 259 260 260 257 264 250 252 253 260 266 261 250 258 257 261 253 256 265 263 262 269 243 251 260 257 258
234 240 240 239 227 263 247 266 286 371 361 350 331 357 327 351 345 279 263 265 266 259 262 264 260 256 251 264 267 266 271 265 258 255 249 262 256 253 271 253 255 249 250 261
201 216 245 239 221 221 236 224 281 228 306 369 353 344 336 286 320 329 335 333 331 328 269 253 260 256 261 260 261 260 258 255 262 278 253 261 266 279 264 273 273 268 287 311
209 218 232 246 216 241 222 220 234 242 219 283 357 363 349 331 329 319 310 311 319 318 325 332 336 325 320 315 290 290 281 264 263 267 265 281 273 262 260 318 337 320 308 296
230 196 215 241 248 238 231 224 257 234 241 267 221 307 355 358 339 323 315 306 303 298 302 319 300 299 307 298 296 292 297 305 306 298 308 295 294 299 302 283 293 278 287 285
205 199 205 233 235 237 250 229 247 262 252 215 276 261 303 325 405 349 329 311 305 299 292 292 290 300 303 296 286 285 277 278 280 288 286 289 296 281 278 285 268 287 296 272
227 192 196 217 214 233 242 225 231 231 216 239 246 266 279 301 312 317 404 361 320 303 293 286 285 285 278 281 292 279 277 278 280 279 274 273 277 267 294 290 270 266 273 273
155 165 233 221 227 186 218 230 219 224 221 243 233 266 215 227 284 305 322 411 391 351 316 300 288 276 279 284 286 281 273 268 267 270 266 264 273 257 265 269 274 283 271 273
213 151 219 235 203 233 211 232 238 239 226 227 228 226 244 263 275 306 299 333 365 407 371 332 315 296 281 276 274 272 274 276 267 269 278 285 284 278 265 262 263 263 262 263
170 166 174 236 212 211 226 218 207 225 245 234 252 229 242 256 272 285 286 315 343 348 415 382 343 313 308 306 282 275 269 264 257 262 263 265 267 264 268 277 279 279 275 270
165 204 213 209 223 230 219 225 232 234 221 254 246 242 245 234 281 271 285 301 330 362 348 436 393 353 320 308 302 307 295 283 272 267 267 266 261 255 252 252 253 253 256 258
201 230 185 172 222 230 222 217 202 215 216 226 229 235 245 218 272 290 278 286 317 341 362 348 408 402 359 331 314 304 295 295 301 296 291 286 285 270 263 261 260 264 264 262
184 161 156 206 217 222 207 225 172 225 232 249 216 222 223 241 256 265 295 300 307 329 332 348 365 378 391 371 341 325 307 300 292 290 288 283 283 281 279 281 277 271 271 271
202 163 150 206 230 215 210 203 227 221 240 233 225 265 245 234 237 264 275 300 308 316 327 352 360 359 364 360 379 347 333 322 306 293 290 286 279 280 285 283 281 281 279 275
147 146 160 159 222 215 207 205 235 223 213 248 231 229 237 238 234 253 273 288 317 320 344 359 357 356 353 364 344 378 350 333 328 318 311 294 285 281 281 278 273 268 265 267
164 158 159 194 216 215 215 207 221 226 248 222 224 215 228 260 250 255 270 281 324 332 355 365 353 353 355 357 351 396 369 347 326 324 322 311 304 300 296 288 279 273 273 274
190 145 163 198 219 215 212 221 236 213 228 237 242 231 244 232 262 277 313 292 331 364 360 367 355 356 355 355 357 392 362 355 339 325 313 310 302 304 301 293 289 288 291 295
190 146 192 200 225 213 234 210 236 228 227 211 248 232 254 229 254 261 286 308 334 365 367 368 364 361 358 360 363 382 361 343 340 325 325 311 295 309 299 287 286 287 283 279
190 187 180 204 182 219 216 207 232 221 234 234 235 227 232 261 249 262 281 323 353 370 373 369 367 365 365 364 368 395 362 338 333 327 323 317 306 296 295 294 296 295 291 288
197 168 214 209 224 222 217 212 233 234 231 218 228 251 234 255 260 268 293 339 380 374 376 377 373 370 366 367 374 383 360 339 334 328 320 320 320 303 295 294 294 291 289 285
206 187 219 216 234 231 214 226 231 232 235 230 243 242 246 242 266 280 330 332 382 386 385 383 377 371 370 367 370 368 364 341 334 332 329 321 315 310 311 310 309 308 307 307

GFSNGP_2pvu_pres_114.txt.gz
Presure
348 347 311 327 321 272 262 265 265 264 258 268 252 240 254 255 263 265 258 269 245 250 239 216 201 204 210 202 189 198 184 182 182 208 184 181 179 196 176 179 181 178 193 160
336 345 343 292 326 287 277 272 272 265 266 252 259 249 267 244 265 268 269 278 275 278 257 229 213 200 200 203 196 190 187 189 186 193 178 192 185 169 191 176 196 168 160 142
346 354 370 334 285 289 285 284 271 264 261 261 254 254 245 240 247 238 243 242 280 251 275 270 226 213 197 198 204 200 202 190 194 190 189 185 178 190 195 182 187 189 171 160
250 233 325 380 339 283 280 276 284 271 276 251 258 265 247 258 261 267 267 240 267 258 274 265 253 270 209 202 197 195 189 196 186 182 182 205 198 179 182 186 172 176 178 176
245 298 273 233 380 351 312 290 280 267 236 265 249 264 253 265 247 254 242 269 243 246 259 258 251 264 254 259 228 211 196 193 192 191 184 183 183 182 202 182 183 186 149 168
202 114 254 252 290 399 407 405 320 310 110 278 278 260 260 266 242 255 258 246 244 268 244 257 291 249 266 255 263 218 206 237 197 199 193 194 187 179 178 181 181 187 188 189
234 169 235 242 232 243 271 251 232 408 409 215 300 286 277 266 263 246 256 248 253 252 242 256 253 251 261 262 274 248 255 223 204 206 194 192 194 193 192 191 202 182 184 192
210 252 242 247 230 234 263 264 293 264 299 413 408 385 295 291 287 282 270 257 262 252 253 243 254 257 239 251 257 249 263 278 286 282 277 244 207 199 201 198 185 191 191 191
183 160 202 185 241 251 254 229 243 256 291 292 307 383 409 398 358 390 301 291 275 275 278 263 262 253 262 248 243 250 248 252 257 257 262 270 266 265 261 259 258 235 235 208
150 136 238 230 223 201 229 256 269 247 231 231 270 224 303 311 403 391 386 365 366 277 272 268 274 266 264 262 261 260 263 257 252 245 242 249 247 252 251 256 244 247 272 270
161 190 163 208 223 226 204 240 235 229 258 252 243 252 277 285 276 312 391 382 364 324 329 324 318 309 304 277 267 263 261 255 251 266 260 248 245 254 259 248 259 265 268 267
162 169 216 219 215 233 219 221 229 220 245 242 253 271 233 236 239 278 303 352 443 399 346 331 315 299 316 321 327 319 318 285 303 308 264 260 260 263 268 272 306 316 311 314
171 192 165 226 170 221 222 230 243 229 254 263 235 241 233 246 268 260 273 258 340 397 448 411 339 317 310 302 302 300 306 308 309 311 314 314 297 303 292 300 302 289 295 290
168 160 172 222 216 197 187 232 217 223 222 228 242 242 256 227 241 268 278 290 279 339 373 389 437 412 365 311 303 294 294 288 296 301 300 282 279 281 281 282 293 298 287 286
175 172 147 158 189 160 212 228 221 233 231 241 241 238 240 236 216 243 262 262 278 296 349 364 382 372 428 393 348 306 295 284 285 284 282 283 283 285 287 275 274 277 278 274
153 149 179 178 212 154 197 218 230 202 212 216 245 244 239 236 245 263 248 250 258 280 322 345 355 367 362 403 397 360 334 311 291 281 279 277 283 282 274 273 264 264 265 282
159 204 147 210 202 151 160 215 212 203 211 232 238 233 231 256 216 257 220 240 262 274 290 334 349 361 361 362 366 401 356 335 322 319 294 280 277 268 270 267 270 270 271 271
144 148 153 148 169 158 213 202 218 226 239 210 227 225 215 240 252 244 270 230 250 270 291 314 337 353 357 353 351 350 379 358 335 327 311 307 306 295 280 273 268 264 261 258
144 176 151 146 192 180 152 170 205 176 230 233 224 235 225 214 250 251 251 249 256 269 287 314 326 360 358 357 356 347 337 339 367 339 329 316 303 296 299 300 299 288 277 265
150 175 176 183 190 156 162 223 215 220 232 210 219 232 226 246 233 247 244 250 254 278 295 324 326 340 359 362 354 350 341 337 344 340 362 333 323 309 298 292 292 290 286 285
156 162 217 149 195 198 210 193 205 205 235 223 212 236 219 228 247 234 228 239 248 242 305 327 331 366 372 357 366 358 350 344 339 348 343 374 341 330 322 304 291 290 287 284
139 141 187 189 202 185 180 204 201 223 226 221 219 238 215 227 229 241 257 269 249 264 319 276 367 379 377 376 369 368 358 352 355 353 358 343 365 357 332 320 313 305 291 280
149 164 188 189 158 187 216 160 217 209 223 234 224 225 225 196 250 229 247 260 258 270 328 350 278 375 382 378 375 377 370 360 361 364 361 353 394 354 344 331 312 311 308 300
192 191 154 156 197 209 169 187 211 220 212 232 222 230 221 203 245 233 237 259 262 277 331 358 287 395 388 381 381 379 376 371 373 370 357 378 349 350 326 331 323 307 308 307
141 163 197 176 165 204 235 200 224 212 215 209 179 237 226 241 252 237 231 261 262 282 361 316 408 402 396 392 321 310 382 375 380 370 381 361 336 341 332 322 321 317 296 293
151 151 193 167 223 182 165 173 233 222 237 212 195 229 201 248 247 259 232 285 267 290 360 321 418 411 405 346 320 307 389 380 381 377 376 349 333 332 323 324 321 312 303 302
142 199 167 161 206 201 229 220 246 231 233 215 225 232 194 217 243 253 227 274 284 300 432 437 431 424 348 325 319 310 388 382 377 372 371 350 337 328 327 321 310 307 312 307

GFSNGP_2pvu_pres_117.txt.gz
Presure
353 342 345 294 285 276 266 261 253 271 276 270 272 279 291 296 293 224 216 199 201 184 196 183 190 186 181 184 184 195 180 179 183 194 188 207 192 195 188 188 180 178 178 187
341 349 338 305 291 272 273 266 266 276 271 246 254 273 270 290 284 303 235 219 196 189 187 193 189 170 188 189 186 183 187 189 183 185 179 182 223 170 177 188 172 175 178 180
357 365 345 304 275 292 281 267 277 266 253 259 254 270 275 276 276 273 246 273 263 217 197 192 180 178 189 193 191 197 189 190 194 204 177 179 182 180 176 176 197 186 183 190
318 365 386 305 300 291 282 282 283 271 277 260 247 251 254 281 272 278 261 271 268 256 218 195 201 190 199 191 205 197 190 193 191 189 189 183 180 183 185 177 195 186 186 194
273 336 375 270 324 284 262 270 247 251 250 242 263 263 247 273 267 283 254 281 275 236 259 233 212 214 203 194 196 201 198 182 183 199 191 185 191 188 193 171 173 174 187 189
260 249 233 259 276 374 290 287 268 261 255 255 117 116 111 270 240 257 253 269 304 252 234 261 228 239 223 223 243 215 212 201 191 197 200 190 194 184 191 185 190 199 190 181
223 220 241 260 255 239 239 395 355 326 283 277 268 161 253 240 243 243 248 236 247 252 286 290 208 210 229 225 231 223 243 217 225 215 210 206 200 197 189 189 183 193 182 183
116 213 227 227 240 250 236 272 273 287 339 403 441 310 280 269 253 260 246 249 245 251 253 245 270 278 216 216 217 203 227 214 221 183 224 208 206 208 194 193 193 191 201 193
187 219 222 222 207 271 259 233 270 277 284 271 296 224 327 413 441 346 264 270 255 253 239 249 240 261 262 247 249 308 280 217 216 206 205 194 220 222 204 193 174 207 178 185
193 148 196 222 229 225 246 238 238 263 258 258 234 270 279 217 299 309 335 440 408 295 278 266 256 250 238 250 254 252 254 251 262 254 292 268 230 213 204 207 206 200 200 199
131 166 193 193 203 210 180 219 216 243 241 235 265 267 262 248 257 284 294 290 313 397 499 467 392 280 273 266 255 249 263 248 249 249 256 249 243 243 242 230 209 193 183 206
171 165 148 186 161 194 170 203 207 228 231 245 196 243 274 274 265 260 253 260 280 307 316 434 431 446 455 383 351 275 264 262 255 257 247 248 255 257 264 245 251 241 263 246
141 192 152 143 158 164 222 173 214 210 193 229 245 240 251 254 239 268 268 266 268 272 276 303 325 407 412 405 454 376 340 343 339 332 286 270 265 263 253 240 245 243 244 250
149 146 170 173 198 154 173 210 163 192 234 241 232 226 221 230 251 236 257 254 277 257 260 272 309 349 360 390 390 382 410 416 333 328 328 333 329 333 324 263 272 288 288 285
174 164 161 152 192 138 141 171 206 204 159 216 233 241 230 248 203 231 241 255 255 269 245 256 288 321 324 350 335 374 372 366 402 411 321 315 306 304 307 309 305 303 305 305
123 132 143 171 162 152 153 141 208 193 215 164 227 243 231 226 237 240 244 227 263 246 246 265 265 294 350 275 344 340 361 357 354 363 400 374 314 305 300 291 290 287 296 291
122 144 133 138 144 176 150 170 212 201 201 194 191 226 238 230 219 224 248 217 249 252 252 245 266 277 337 351 275 376 366 366 352 346 345 356 378 344 306 297 292 288 282 279
150 139 150 149 180 167 185 167 157 192 187 203 214 203 206 241 209 220 235 228 255 249 255 235 284 273 296 341 372 389 363 364 356 348 348 344 338 364 344 332 309 290 288 281
160 160 145 150 165 173 165 149 188 215 230 205 195 214 215 204 214 232 213 226 224 250 244 261 242 293 306 346 350 369 367 372 357 348 354 348 344 334 357 344 333 326 312 294
123 142 136 158 154 169 158 187 148 169 181 194 166 212 233 184 227 228 225 227 215 231 251 261 241 293 309 355 389 372 389 369 378 371 365 361 359 348 341 339 363 334 330 320
132 175 196 200 144 181 164 194 176 190 181 229 235 200 221 253 212 229 199 236 242 228 253 246 262 293 343 359 385 391 383 387 379 379 378 375 368 370 352 347 344 351 350 334
128 181 157 159 142 163 157 161 185 208 213 249 207 216 214 201 215 232 195 218 206 247 228 264 263 306 360 354 399 398 392 390 388 386 386 388 380 375 357 361 360 357 357 362
185 140 142 165 144 162 160 185 189 174 224 220 213 172 224 210 226 233 196 230 216 262 222 253 278 319 360 418 419 407 400 398 393 325 329 393 391 388 382 378 369 366 355 349
144 155 139 159 160 172 144 186 198 161 219 233 222 203 251 228 216 241 205 235 219 250 263 272 282 322 434 431 425 418 414 407 335 321 320 396 395 390 383 371 363 386 350 375
187 122 167 141 177 202 176 150 199 222 178 223 209 236 216 212 229 209 234 238 240 222 264 276 282 341 453 443 438 423 370 344 327 320 316 393 392 385 380 379 365 351 353 343
167 136 160 145 166 187 176 180 158 226 217 214 191 235 228 200 241 243 234 248 235 219 241 288 288 471 426 402 393 376 356 339 338 324 309 387 387 383 374 370 353 341 335 341
170 170 161 182 139 166 165 173 201 179 178 220 223 234 244 235 253 244 250 227 251 246 242 288 328 428 409 395 386 361 332 337 340 322 322 380 383 380 374 363 340 332 335 325

GFSNGP_2pvu_pres_120.txt.gz
Presure
327 239 308 266 293 282 275 271 283 292 267 286 132 293 308 305 250 244 228 236 224 214 216 209 202 190 184 192 192 204 200 200 198 202 186 182 191 196 185 183 181 182 180 178
332 339 310 266 279 267 284 272 287 278 267 272 278 278 286 295 246 250 229 224 214 209 193 193 199 195 189 173 189 191 182 196 183 186 198 184 198 194 196 178 176 178 174 176
338 346 281 278 290 260 272 281 275 279 279 282 291 273 242 231 221 220 221 211 203 185 176 196 195 201 202 191 195 192 190 192 188 197 194 188 194 210 178 176 180 174 174 178
358 355 281 272 278 285 262 267 275 254 279 285 288 234 233 226 220 224 213 221 225 197 203 190 195 190 196 201 183 200 191 211 200 203 200 183 193 193 181 184 171 171 189 190
272 389 344 285 155 267 280 260 274 271 250 249 296 254 230 136 219 221 214 211 199 213 207 197 198 196 194 184 202 193 186 190 181 182 205 195 193 187 186 212 179 179 194 207
257 320 347 378 262 253 264 272 303 253 248 273 252 262 222 222 216 158 207 200 208 214 219 211 189 202 203 203 194 202 189 182 205 189 170 170 183 173 202 176 180 180 190 176
247 235 270 264 337 277 276 284 298 289 284 274 258 253 271 273 222 213 193 208 210 213 193 222 202 194 180 189 190 197 197 212 195 197 187 195 191 185 187 185 186 180 182 189
155 123 218 211 263 238 267 276 276 348 300 391 318 298 285 280 272 235 220 208 205 219 206 204 192 204 188 203 191 174 174 183 183 196 206 195 196 192 188 177 179 192 206 199
163 126 155 210 234 237 269 267 255 266 261 268 251 241 253 399 404 321 309 215 216 191 203 202 208 191 196 192 178 184 179 180 171 169 205 186 191 199 185 195 195 195 190 184
140 176 125 164 217 189 170 231 245 235 255 247 275 282 277 251 274 313 348 382 397 378 236 224 226 194 192 204 204 205 205 205 203 188 193 200 191 194 184 182 211 212 227 211
141 171 152 186 136 128 215 191 183 218 226 225 258 245 263 268 263 273 283 273 276 304 333 346 380 401 401 427 308 240 268 286 225 215 217 217 217 215 215 229 207 189 192 200
133 119 174 165 139 125 154 136 229 172 224 229 203 232 187 253 257 254 203 261 268 300 290 272 300 312 343 375 397 413 403 401 347 278 294 228 232 261 264 252 234 230 214 276
135 196 131 187 142 182 129 175 163 195 211 233 211 215 226 217 191 221 177 172 258 250 272 251 229 304 308 344 331 352 326 392 385 388 380 382 395 331 287 249 251 279 253 224
154 164 142 141 128 177 173 147 151 239 189 150 204 192 218 208 195 244 246 213 223 255 251 272 247 277 266 259 321 329 348 344 299 364 371 367 362 365 371 391 334 291 274 257
135 138 182 163 202 170 139 169 179 182 174 231 160 206 217 203 234 229 249 215 237 250 227 272 242 258 259 279 296 320 328 363 336 358 379 372 356 350 354 352 365 383 326 308
137 132 143 157 135 147 181 147 198 183 173 161 210 182 219 191 218 189 223 224 231 205 223 229 239 226 275 279 280 309 325 354 374 360 387 379 363 355 347 339 346 343 381 348
185 121 185 153 174 152 174 169 153 158 163 173 220 223 193 208 252 210 177 237 219 203 241 218 259 228 257 266 284 294 331 344 345 389 399 382 377 363 353 343 345 343 345 360
160 153 160 123 178 149 166 167 191 190 174 158 169 186 196 232 192 199 182 213 205 216 259 211 228 263 247 236 273 306 339 352 369 408 398 390 381 370 369 350 353 339 339 342
195 167 175 143 179 162 135 164 204 153 168 165 193 159 169 213 174 214 236 247 242 210 219 241 258 265 240 239 263 295 342 358 409 397 394 389 382 379 372 362 368 356 346 344
192 187 158 184 140 133 128 179 151 191 161 188 156 197 203 233 201 161 222 244 238 243 234 248 257 259 241 238 269 295 342 417 416 402 399 390 389 386 382 387 381 380 380 360
178 192 135 153 153 173 147 170 137 170 153 172 176 186 160 204 203 247 214 230 245 245 239 245 244 261 255 241 279 296 346 428 419 412 404 403 396 401 392 329 390 390 386 379
163 198 161 142 161 138 156 152 191 141 191 169 172 209 178 174 217 227 226 180 227 248 239 245 253 225 266 264 294 305 349 439 433 426 420 414 410 342 326 319 359 406 398 385
159 221 138 189 185 151 150 136 168 166 184 163 162 195 179 210 220 213 231 179 224 259 248 251 231 243 280 288 294 359 461 452 449 417 405 373 342 329 329 321 314 409 399 393
204 216 171 216 175 153 174 173 131 161 148 150 199 201 175 166 192 190 228 189 223 252 239 250 222 247 240 296 299 450 471 417 403 394 377 343 329 354 339 326 315 398 392 385
209 210 202 174 174 172 175 170 170 140 165 182 203 150 201 209 212 182 236 238 239 251 248 257 225 279 293 304 337 439 416 408 393 381 377 385 353 361 347 323 377 391 384 379
213 170 188 197 169 127 177 196 152 138 184 196 203 152 211 214 243 232 247 234 243 258 262 244 255 255 282 298 401 421 407 398 391 389 387 383 377 366 353 365 386 385 377 373
187 190 165 170 128 180 136 161 150 161 169 202 213 206 203 235 232 215 243 243 255 266 239 265 276 288 309 303 425 416 408 403 402 393 384 373 364 356 366 401 383 371 382 369

GFSNGP_2pvu_pres_123.txt.gz
Presure
300 252 276 219 267 276 267 265 268 273 276 127 129 255 251 126 152 151 195 199 201 198 199 195 179 178 191 161 161 158 168 168 178 179 158 157 157 178 178 190 200 174 188 190
259 256 270 271 268 275 278 263 269 268 279 279 279 266 277 132 276 285 290 205 203 205 206 221 211 161 176 179 174 152 208 188 178 176 193 172 170 166 200 188 190 195 204 169
294 272 282 277 275 271 269 263 256 267 269 265 281 257 261 280 283 281 293 216 201 192 207 221 190 190 193 181 201 197 191 184 194 183 180 189 186 177 181 183 205 187 185 192
289 287 256 251 272 268 275 268 260 273 269 262 273 263 240 259 273 293 232 211 209 203 204 198 193 202 203 192 198 198 201 184 188 219 186 188 191 206 188 197 205 194 195 196
278 269 271 266 263 252 270 265 274 271 285 263 269 255 235 259 268 281 246 125 225 208 208 197 208 199 210 185 188 192 211 208 205 201 210 181 183 202 200 204 192 188 188 181
296 276 263 276 284 288 277 252 233 254 285 198 267 257 244 245 260 273 279 243 219 214 211 202 202 203 201 197 203 211 195 192 191 197 199 193 192 187 190 200 213 203 192 187
123 205 279 257 256 251 358 413 309 266 259 258 256 274 262 248 262 263 256 239 199 205 220 206 215 208 211 205 194 189 206 198 199 200 198 197 205 196 202 193 191 194 188 182
240 187 197 250 264 254 277 293 282 331 378 285 284 248 260 268 250 260 228 234 233 223 216 201 199 218 226 231 206 200 217 225 219 213 202 186 194 195 197 184 213 196 197 187
133 128 192 113 118 208 253 266 263 268 288 281 275 306 326 224 272 330 238 250 203 209 232 205 218 225 202 216 201 197 223 200 199 188 203 203 214 204 210 203 202 184 201 189
136 180 129 128 196 137 226 252 231 255 277 268 261 285 256 291 250 246 214 209 218 207 244 219 212 224 194 221 218 196 206 204 191 186 186 217 187 197 202 200 215 181 185 200
132 166 162 161 125 138 147 173 191 187 221 226 159 202 262 287 252 227 214 210 228 228 228 232 227 219 201 216 197 197 195 199 194 192 211 205 194 189 212 215 205 208 196 192
145 179 165 132 156 157 143 159 202 161 221 216 230 225 238 216 243 285 281 254 289 280 223 201 168 208 215 207 199 194 205 190 189 196 206 187 204 205 218 210 201 217 211 220
177 138 142 115 135 127 141 126 215 148 197 215 177 194 222 189 204 218 217 210 197 217 249 283 237 261 247 224 206 205 205 204 205 214 216 235 245 213 216 210 202 208 214 214
179 148 201 190 149 146 167 168 172 131 191 134 182 168 150 185 174 207 200 179 219 206 248 271 244 197 272 249 268 253 219 253 272 321 330 357 359 368 381 379 386 324 308 266
152 171 150 154 140 183 147 208 164 135 139 171 169 166 198 200 186 198 214 190 166 206 245 236 210 256 254 241 266 251 258 247 300 316 319 362 356 346 382 384 361 388 367 365
190 170 157 143 190 161 178 155 178 169 167 150 160 164 181 179 185 188 187 155 218 191 198 238 253 240 246 255 270 274 249 305 306 307 320 350 352 349 381 395 398 377 378 362
195 183 174 141 140 121 130 163 171 125 144 173 151 177 141 166 141 224 216 184 193 201 211 191 247 245 267 270 247 266 282 250 313 296 336 343 350 386 406 413 405 394 384 376
178 153 183 172 191 161 168 163 140 119 161 207 191 180 174 175 185 149 197 185 212 184 222 192 251 201 252 268 267 273 280 279 306 305 334 344 398 427 419 411 410 396 389 385
155 187 177 176 177 185 138 165 153 172 155 126 161 192 145 155 169 192 154 210 215 210 193 232 248 245 214 270 265 254 283 281 304 306 340 360 437 428 423 420 417 407 401 393
237 219 206 220 192 174 142 215 216 133 177 125 169 181 143 163 177 160 199 205 205 204 198 229 240 249 223 267 228 283 266 299 301 329 347 449 445 442 435 431 424 414 415 409
219 215 220 227 227 209 134 221 140 188 140 184 166 132 175 146 174 144 194 201 169 200 241 246 223 247 258 253 266 247 284 299 283 341 396 461 457 454 410 418 407 422 356 340
218 218 215 219 221 222 212 211 213 208 195 178 136 134 146 179 181 152 195 209 225 200 249 242 239 255 252 259 262 281 285 294 340 369 466 459 415 408 395 389 368 346 337 341
218 212 159 233 215 220 201 220 220 200 131 189 156 181 137 151 181 178 160 157 220 208 256 240 251 239 255 236 240 291 280 302 371 436 426 412 403 396 385 384 379 378 353 333
203 201 217 214 221 185 216 200 167 192 144 127 168 146 136 148 173 170 202 162 213 236 240 255 242 265 249 264 274 286 293 324 435 422 413 407 399 392 391 387 381 377 377 372
203 204 196 198 199 200 201 200 176 136 198 131 165 213 162 146 144 215 219 219 223 242 237 251 252 256 236 242 270 277 299 292 422 405 397 395 391 391 390 386 377 369 365 363
208 196 191 180 178 186 186 169 167 163 169 182 177 198 191 143 168 212 218 242 238 241 235 248 254 275 257 248 265 297 300 380 406 390 386 388 384 375 370 367 363 355 352 351
195 191 173 184 176 183 174 179 158 164 163 135 207 185 137 216 220 218 232 229 249 240 229 253 251 275 242 255 279 291 299 419 402 382 369 381 458 449 433 407 401 441 427 390